[[{"header":{"parameterUnit":"m.s-1","parameterCategory":1,"la1":31.0,"la2":29.5877,"lo1":-88.7671,"lo2":-86.6584,"dy":0.0162,"dx":0.0185,"nx":115,"ny":88,"refTime":"2024-07-16T06:00:00:Z","depth":0,"parameterNumber":2,"parameterNumberName":"U-component_of_WINDS"},"data":[0.0,0.0,0.0,0.0,0.0,0.0,0.0,0.0,0.0,0.0,0.0,0.0,0.0,0.0,0.0,0.0,0.0,0.0,0.0,0.0,0.0,0.0,0.0,0.0,0.0,0.0,0.0,0.0,0.0,0.0,0.0,0.0,0.0,0.0,0.0,0.0,0.0,0.0,0.0,0.0,0.0,0.0,0.0,0.0,0.0,0.0,0.0,0.0,0.0,0.0,0.0,0.0,0.0,0.0,0.0,0.0,0.0,0.0,0.0,0.0,0.0,0.0,0.0,0.0,0.0,0.0,0.0,0.0,0.0,0.0,0.0,0.0,0.0,0.0,0.0,0.0,0.0,0.0,0.0,0.0,0.0,0.0,0.0,0.0,0.0,0.0,0.0,0.0,0.0,0.0,0.0,0.0,0.0,0.0,0.0,0.0,0.0,0.0,0.0,0.0,0.0,0.0,0.0,0.0,0.0,0.0,0.0,0.0,0.0,0.0,0.0,0.0,0.0,0.0,0.0,0.0,0.0,0.0,0.0,0.0,0.0,0.0,0.0,0.0,0.0,0.0,0.0,0.0,0.0,0.0,0.0,0.0,0.0,0.0,0.0,0.0,0.0,0.0,0.0,0.0,0.0,0.0,0.0,0.0,0.0,0.0,0.0,0.0,0.0,0.0,0.0,0.0,0.0,0.0,0.0,0.0,0.0,0.0,0.0,0.0,0.0,0.0,0.0,0.0,0.0,0.0,0.0,0.0,0.0,0.0,0.0,0.0,0.0,0.0,0.0,0.0,0.0,0.0,0.0,0.0,0.0,0.0,0.0,0.0,0.0,0.0,0.0,0.0,0.0,0.0,0.0,0.0,0.0,0.0,0.0,0.0,0.0,0.0,0.0,0.0,0.0,0.0,0.0,0.0,0.0,0.0,0.0,0.0,0.0,0.0,0.0,0.0,0.0,0.0,0.0,0.0,0.0,0.0,0.0,0.0,0.0,0.0,0.0,0.0,0.0,0.0,0.0,0.0,0.0,0.0,0.0,0.0,0.0,0.0,0.0,0.0,0.0,0.0,0.0,0.0,0.0,0.0,0.0,0.0,0.0,0.0,0.0,0.0,0.0,0.0,0.0,0.0,0.0,0.0,0.0,0.0,0.0,0.0,0.0,0.0,0.0,0.0,0.0,0.0,0.0,0.0,0.0,0.0,0.0,0.0,0.0,0.0,0.0,0.0,0.0,0.0,0.0,0.0,0.0,0.0,0.0,0.0,0.0,0.0,0.0,0.0,0.0,0.0,0.0,0.0,0.0,0.0,0.0,0.0,0.0,0.0,0.0,0.0,0.0,0.0,0.0,0.0,0.0,0.0,0.0,0.0,0.0,0.0,0.0,0.0,0.0,0.0,0.0,0.0,0.0,0.0,0.0,0.0,0.0,0.0,0.0,0.0,0.0,0.0,0.0,0.0,0.0,0.0,0.0,0.0,0.0,0.0,0.0,0.0,0.0,0.0,0.0,0.0,0.0,0.0,0.0,0.0,0.0,0.0,0.0,0.0,0.0,0.0,0.0,0.0,0.0,0.0,0.0,0.0,0.0,0.0,0.0,0.0,0.0,0.0,0.0,0.0,0.0,0.0,0.0,0.0,0.0,0.0,0.0,0.0,0.0,0.0,0.0,0.0,0.0,0.0,0.0,0.0,0.0,0.0,0.0,0.0,0.0,0.0,0.0,0.0,0.0,0.0,0.0,0.0,0.0,0.0,0.0,0.0,0.0,0.0,0.0,0.0,0.0,0.0,0.0,0.0,0.0,0.0,0.0,0.0,0.0,0.0,0.0,0.0,0.0,0.0,0.0,0.0,0.0,0.0,0.0,0.0,0.0,0.0,0.0,0.0,0.0,0.0,0.0,0.0,0.0,0.0,0.0,0.0,0.0,0.0,0.0,0.0,0.0,0.0,0.0,0.0,0.0,0.0,0.0,0.0,0.0,0.0,0.0,0.0,0.0,0.0,0.0,0.0,0.0,0.0,0.0,0.0,0.0,0.0,0.0,0.0,0.0,0.0,0.0,0.0,0.0,0.0,0.0,0.0,0.0,0.0,0.0,0.0,0.0,0.0,0.0,0.0,0.0,0.0,0.0,0.0,0.0,0.0,0.0,0.0,0.0,0.0,0.0,0.0,0.0,0.0,0.0,0.0,0.0,0.0,0.0,0.0,0.0,0.0,0.0,0.0,0.0,0.0,0.0,0.0,0.0,0.0,0.0,0.0,0.0,0.0,0.0,0.0,0.0,0.0,0.0,0.0,0.0,0.0,0.0,0.0,0.0,0.0,0.0,0.0,0.0,0.0,0.0,0.0,0.0,0.0,0.0,0.0,0.0,0.0,0.0,0.0,0.0,0.0,0.0,0.0,0.0,0.0,0.0,0.0,0.0,0.0,0.0,0.0,0.0,0.0,0.0,0.0,0.0,0.0,0.0,0.0,0.0,0.0,0.0,0.0,0.0,0.0,0.0,0.0,0.0,0.0,0.0,0.0,0.0,0.0,0.0,0.0,0.0,0.0,0.0,0.0,0.0,0.0,0.0,0.0,0.0,0.0,0.0,0.0,0.0,0.0,0.0,0.0,0.0,0.0,0.0,0.0,0.0,0.0,0.0,0.0,0.0,0.0,0.0,0.0,0.0,0.0,0.0,0.0,0.0,0.0,0.0,0.0,0.0,0.0,0.0,0.0,0.0,0.0,0.0,0.0,0.0,0.0,0.0,0.0,0.0,0.0,0.0,0.0,0.0,0.0,0.0,0.0,0.0,0.0,0.0,0.0,0.0,0.0,0.0,0.0,0.0,0.0,0.0,0.0,0.0,0.0,0.0,0.0,0.0,0.0,0.0,0.0,0.0,0.0,0.0,0.0,0.0,0.0,0.0,0.0,0.0,0.0,0.0,0.0,0.0,0.0,0.0,0.0,0.0,0.0,0.0,0.0,0.0,0.0,0.0,0.0,0.0,0.0,0.0,0.0,0.0,0.0,0.0,0.0,0.0,0.0,0.0,0.0,0.0,0.0,0.0,0.0,0.0,0.0,0.0,0.0,0.0,0.0,0.0,0.0,0.0,0.0,0.0,0.0,0.0,0.0,0.0,0.0,0.0,0.0,0.0,0.0,0.0,0.0,0.0,0.0,0.0,0.0,0.0,0.0,0.0,0.0,0.0,0.0,0.0,0.0,0.0,0.0,0.0,0.0,0.0,0.0,0.0,0.0,0.0,0.0,0.0,0.0,0.0,0.0,0.0,0.0,0.0,0.0,0.0,0.0,0.0,0.0,0.0,0.0,0.0,0.0,0.0,0.0,0.0,0.0,0.0,0.0,0.0,0.0,0.0,0.0,0.0,0.0,0.0,0.0,0.0,0.0,0.0,0.0,0.0,0.0,0.0,0.0,0.0,0.0,0.0,0.0,0.0,0.0,0.0,0.0,0.0,0.0,0.0,0.0,0.0,0.0,0.0,0.0,0.0,0.0,0.0,0.0,0.0,0.0,0.0,0.0,0.0,0.0,0.0,0.0,0.0,0.0,0.0,0.0,0.0,0.0,0.0,0.0,0.0,0.0,0.0,0.0,0.0,0.0,0.0,0.0,0.0,0.0,0.0,0.0,0.0,0.0,0.0,0.0,0.0,0.0,0.0,0.0,0.0,0.0,0.0,0.0,0.0,0.0,0.0,0.0,0.0,0.0,0.0,0.0,0.0,0.0,0.0,0.0,0.0,0.0,0.0,0.0,0.0,0.0,0.0,0.0,0.0,0.0,0.0,0.0,0.0,0.0,0.0,0.0,0.0,0.0,0.0,0.0,0.0,0.0,0.0,0.0,0.0,0.0,0.0,0.0,0.0,0.0,0.0,0.0,0.0,0.0,0.0,0.0,0.0,0.0,0.0,0.0,0.0,0.0,0.0,0.0,0.0,0.0,0.0,0.0,0.0,0.0,0.0,0.0,0.0,0.0,0.0,0.0,0.0,0.0,0.0,0.0,0.0,0.0,0.0,0.0,0.0,0.0,0.0,0.0,0.0,0.0,0.0,0.0,0.0,0.0,0.0,0.0,0.0,0.0,0.0,0.0,0.0,0.0,0.0,0.0,0.0,0.0,0.0,0.0,0.0,0.0,0.0,0.0,0.0,0.0,0.0,0.0,0.0,0.0,0.0,0.0,0.0,0.0,0.0,0.0,0.0,0.0,0.0,0.0,0.0,0.0,0.0,0.0,0.0,0.0,0.0,0.0,0.0,0.0,0.0,0.0,0.0,0.0,0.0,0.0,0.0,0.0,-0.659,0.0,0.0,0.0,0.0,0.0,0.0,0.0,0.0,0.0,0.0,0.0,0.0,0.0,0.0,0.0,0.0,0.0,0.0,0.0,0.0,0.0,0.0,0.0,0.0,0.0,0.0,0.0,0.0,0.0,0.0,0.0,0.0,0.0,0.0,0.0,0.0,0.0,0.0,0.0,0.0,0.0,0.0,0.0,0.0,0.0,0.0,0.0,0.0,0.0,0.0,0.0,0.0,0.0,0.0,0.0,0.0,0.0,0.0,0.0,0.0,0.0,0.0,0.0,0.0,0.0,0.0,0.0,0.0,0.0,0.0,0.0,0.0,0.0,0.0,0.0,0.0,0.0,0.0,0.0,0.0,0.0,0.0,0.0,0.0,0.0,0.0,0.0,0.0,0.0,0.0,0.0,0.0,0.0,0.0,0.0,0.0,0.0,0.0,0.0,0.0,0.0,0.0,0.0,0.0,0.0,0.0,0.0,0.0,0.0,0.0,-0.6531,-0.659,-0.6561,-0.6561,-0.659,0.0,0.0,0.0,0.0,0.0,0.0,0.0,0.0,0.0,0.0,0.0,0.0,0.0,0.0,0.0,0.0,0.0,0.0,0.0,0.0,0.0,0.0,0.0,0.0,0.0,0.0,0.0,0.0,0.0,0.0,0.0,0.0,0.0,0.0,0.0,0.0,0.0,0.0,0.0,0.0,0.0,0.0,0.0,0.0,0.0,0.0,0.0,0.0,0.0,0.0,0.0,0.0,0.0,0.0,0.0,0.0,0.0,0.0,0.0,0.0,0.0,0.0,0.0,0.0,0.0,0.0,0.0,0.0,0.0,0.0,0.0,0.0,0.0,0.0,0.0,0.0,0.0,0.0,0.0,0.0,0.0,0.0,0.0,0.0,0.0,0.0,0.0,0.0,0.0,0.0,0.0,0.0,0.0,0.0,0.0,0.0,0.0,0.0,0.0,0.0,0.0,0.0,0.0,0.0,0.0,0.0,0.0,0.0,0.0,0.0,0.0,0.0,-0.6922,-0.6935,-0.6975,0.0,0.0,0.0,0.0,0.0,0.0,0.0,0.0,0.0,0.0,0.0,0.0,0.0,0.0,0.0,0.0,0.0,0.0,0.0,0.0,0.0,0.0,0.0,0.0,0.0,0.0,0.0,0.0,0.0,0.0,0.0,0.0,0.0,0.0,0.0,0.0,0.0,0.0,0.0,0.0,0.0,0.0,0.0,0.0,0.0,0.0,0.0,0.0,0.0,0.0,0.0,0.0,0.0,0.0,0.0,0.0,0.0,0.0,0.0,0.0,0.0,0.0,0.0,0.0,0.0,0.0,0.0,0.0,0.0,0.0,0.0,0.0,0.0,0.0,0.0,0.0,0.0,0.0,0.0,0.0,0.0,0.0,0.0,0.0,0.0,0.0,0.0,0.0,0.0,0.0,0.0,0.0,0.0,0.0,0.0,0.0,0.0,0.0,0.0,0.0,0.0,0.0,0.0,0.0,0.0,0.0,0.0,0.0,0.0,0.0,-0.7022,-0.81,-0.8125,0.0,-0.8125,0.0,0.0,0.0,0.0,0.0,0.0,0.0,0.0,0.0,0.0,0.0,0.0,0.0,0.0,0.0,0.0,0.0,0.0,0.0,0.0,0.0,0.0,0.0,0.0,0.0,0.0,0.0,0.0,0.0,0.0,0.0,0.0,0.0,0.0,0.0,0.0,0.0,0.0,0.0,0.0,0.0,0.0,0.0,0.0,0.0,0.0,0.0,0.0,0.0,0.0,0.0,0.0,0.0,0.0,0.0,0.0,0.0,0.0,0.0,0.0,0.0,0.0,0.0,0.0,0.0,0.0,0.0,0.0,0.0,0.0,0.0,0.0,0.0,0.0,0.0,0.0,0.0,0.0,0.0,0.0,0.0,0.0,0.0,0.0,0.0,0.0,0.0,0.0,0.0,0.0,0.0,0.0,0.0,0.0,0.0,0.0,0.0,0.0,0.0,0.0,0.0,0.0,0.0,0.0,0.0,0.0,0.0,0.0,0.0,0.0,0.0,-0.8154,-0.8189,-0.8189,0.0,0.0,0.0,0.0,0.0,0.0,0.0,0.0,0.0,0.0,0.0,0.0,0.0,0.0,0.0,0.0,0.0,0.0,0.0,0.0,0.0,0.0,0.0,0.0,0.0,0.0,0.0,0.0,0.0,0.0,0.0,0.0,0.0,0.0,0.0,0.0,0.0,0.0,0.0,0.0,0.0,0.0,0.0,0.0,0.0,0.0,0.0,0.0,0.0,0.0,0.0,0.0,0.0,0.0,0.0,0.0,0.0,0.0,0.0,0.0,0.0,0.0,0.0,0.0,0.0,0.0,0.0,0.0,0.0,0.0,0.0,0.0,0.0,0.0,0.0,0.0,0.0,0.0,0.0,0.0,0.0,0.0,0.0,0.0,0.0,0.0,0.0,0.0,0.0,0.0,0.0,0.0,0.0,0.0,0.0,0.0,0.0,0.0,0.0,0.0,0.0,0.0,0.0,0.0,0.0,0.0,0.0,0.0,0.0,0.0,-0.7727,0.0,-0.8518,-0.826,-0.8089,-0.8088,0.0,0.0,0.0,0.0,0.0,0.0,0.0,0.0,0.0,0.0,0.0,0.0,0.0,0.0,0.0,0.0,0.0,0.0,0.0,0.0,0.0,0.0,0.0,0.0,0.0,0.0,0.0,0.0,0.0,0.0,0.0,0.0,0.0,0.0,0.0,0.0,0.0,0.0,0.0,0.0,0.0,0.0,0.0,0.0,0.0,0.0,0.0,0.0,0.0,0.0,0.0,0.0,0.0,0.0,0.0,0.0,0.0,0.0,0.0,0.0,0.0,0.0,0.0,0.0,0.0,0.0,0.0,0.0,0.0,0.0,0.0,0.0,0.0,0.0,0.0,0.0,0.0,0.0,0.0,0.0,0.0,0.0,0.0,0.0,0.0,0.0,0.0,0.0,0.0,0.0,0.0,0.0,0.0,0.0,0.0,0.0,0.0,0.0,0.0,0.0,0.0,0.0,0.0,0.0,0.0,0.0,0.0,0.0,0.0,-0.8369,-0.8534,-0.9574,-0.8629,-0.8089,0.0,0.0,0.0,0.0,0.0,0.0,0.0,0.0,0.0,0.0,0.0,0.0,0.0,0.0,0.0,0.0,0.0,0.0,0.0,0.0,0.0,0.0,0.0,0.0,0.0,0.0,0.0,0.0,0.0,0.0,0.0,0.0,0.0,0.0,0.0,0.0,0.0,0.0,0.0,0.0,0.0,0.0,0.0,0.0,0.0,0.0,0.0,0.0,0.0,0.0,0.0,0.0,0.0,0.0,0.0,0.0,0.0,0.0,0.0,0.0,0.0,0.0,0.0,0.0,0.0,0.0,0.0,0.0,0.0,0.0,0.0,0.0,0.0,0.0,0.0,0.0,0.0,0.0,0.0,0.0,0.0,0.0,0.0,0.0,0.0,0.0,0.0,0.0,0.0,0.0,0.0,0.0,0.0,0.0,0.0,0.0,0.0,0.0,0.0,0.0,0.0,0.0,0.0,0.0,0.0,0.0,0.0,0.0,0.0,-0.7367,-0.7721,-0.8791,0.0,-0.8888,-0.8282,0.0,0.0,0.0,0.0,0.0,0.0,0.0,0.0,0.0,0.0,0.0,0.0,0.0,0.0,0.0,0.0,0.0,0.0,0.0,0.0,0.0,0.0,0.0,0.0,0.0,0.0,0.0,0.0,0.0,0.0,0.0,0.0,0.0,0.0,0.0,0.0,0.0,0.0,0.0,0.0,0.0,0.0,0.0,0.0,0.0,0.0,0.0,0.0,0.0,0.0,0.0,0.0,0.0,0.0,0.0,0.0,0.0,0.0,0.0,0.0,0.0,0.0,0.0,0.0,0.0,0.0,0.0,0.0,0.0,0.0,0.0,0.0,0.0,0.0,0.0,0.0,0.0,0.0,0.0,0.0,0.0,0.0,0.0,0.0,0.0,0.0,0.0,0.0,0.0,0.0,0.0,0.0,0.0,0.0,0.0,0.0,0.0,0.0,0.0,0.0,0.0,0.0,0.0,0.0,0.0,0.0,0.0,0.0,0.0,-0.7327,0.0,-0.9475,0.0,-0.9018,-0.826,0.0,0.0,0.0,0.0,0.0,0.0,0.0,0.0,0.0,0.0,0.0,0.0,0.0,0.0,0.0,0.0,0.0,0.0,0.0,0.0,0.0,0.0,0.0,0.0,0.0,0.0,0.0,0.0,0.0,0.0,0.0,0.0,0.0,0.0,0.0,0.0,0.0,0.0,0.0,0.0,0.0,0.0,0.0,0.0,0.0,0.0,0.0,0.0,0.0,0.0,0.0,0.0,0.0,0.0,0.0,0.0,0.0,0.0,0.0,0.0,0.0,0.0,0.0,0.0,0.0,0.0,0.0,0.0,0.0,0.0,0.0,0.0,0.0,0.0,0.0,0.0,0.0,0.0,0.0,0.0,0.0,0.0,0.0,0.0,0.0,0.0,0.0,0.0,0.0,0.0,0.0,0.0,0.0,0.0,0.0,0.0,0.0,0.0,0.0,0.0,0.0,0.0,0.0,0.0,0.0,0.0,0.0,0.0,-0.735,-0.9366,-1.0411,-1.0459,-0.9569,-0.897,-0.7959,0.0,0.0,0.0,0.0,0.0,0.0,0.0,0.0,0.0,0.0,0.0,0.0,0.0,0.0,0.0,0.0,0.0,0.0,0.0,0.0,0.0,0.0,0.0,0.0,0.0,0.0,0.0,0.0,0.0,0.0,0.0,0.0,0.0,0.0,0.0,0.0,0.0,0.0,0.0,0.0,0.0,0.0,0.0,0.0,0.0,0.0,0.0,0.0,0.0,0.0,0.0,0.0,0.0,0.0,0.0,0.0,0.0,0.0,0.0,0.0,0.0,0.0,0.0,0.0,0.0,0.0,0.0,0.0,0.0,0.0,0.0,0.0,0.0,0.0,0.0,0.0,0.0,0.0,0.0,0.0,0.0,0.0,0.0,0.0,0.0,0.0,0.0,0.0,0.0,0.0,0.0,0.0,0.0,0.0,0.0,0.0,0.0,0.0,0.0,0.0,0.0,0.0,0.0,0.0,0.0,0.0,0.0,0.0,0.0,-0.8417,-0.9079,-0.9994,-1.1018,-0.885,-0.8068,0.0,0.0,0.0,0.0,0.0,0.0,0.0,0.0,0.0,0.0,0.0,0.0,0.0,0.0,0.0,0.0,0.0,0.0,0.0,0.0,0.0,0.0,0.0,0.0,0.0,0.0,0.0,0.0,0.0,0.0,0.0,0.0,0.0,0.0,0.0,0.0,0.0,0.0,0.0,0.0,0.0,0.0,0.0,0.0,0.0,0.0,0.0,0.0,0.0,0.0,0.0,0.0,0.0,0.0,0.0,0.0,0.0,0.0,0.0,0.0,0.0,0.0,0.0,0.0,0.0,0.0,0.0,0.0,0.0,0.0,0.0,0.0,0.0,0.0,0.0,0.0,0.0,0.0,0.0,0.0,0.0,0.0,0.0,0.0,0.0,0.0,0.0,0.0,0.0,0.0,0.0,0.0,0.0,0.0,0.0,0.0,0.0,0.0,0.0,0.0,0.0,0.0,0.0,0.0,0.0,0.0,0.0,0.0,0.0,-0.9729,-1.0418,-1.1238,-1.2191,-0.9848,-0.8838,-0.9331,0.0,0.0,0.0,0.0,0.0,0.0,0.0,0.0,0.0,0.0,0.0,0.0,0.0,0.0,0.0,0.0,0.0,0.0,0.0,0.0,0.0,0.0,0.0,0.0,0.0,0.0,0.0,0.0,0.0,0.0,0.0,0.0,0.0,0.0,0.0,0.0,0.0,0.0,0.0,0.0,0.0,0.0,0.0,0.0,0.0,0.0,0.0,0.0,0.0,0.0,0.0,0.0,0.0,0.0,0.0,0.0,0.0,0.0,0.0,0.0,0.0,0.0,0.0,0.0,0.0,0.0,0.0,0.0,0.0,0.0,0.0,0.0,0.0,0.0,0.0,0.0,0.0,0.0,0.0,0.0,0.0,0.0,0.0,0.0,0.0,0.0,0.0,0.0,0.0,0.0,0.0,0.0,0.0,0.0,0.0,0.0,0.0,0.0,0.0,0.0,0.0,0.0,0.0,0.0,0.0,0.0,0.0,0.0,-1.28,-1.3927,-1.4019,-1.2969,-1.1752,-1.0173,0.0,0.0,0.0,0.0,0.0,0.0,0.0,0.0,0.0,0.0,0.0,0.0,0.0,0.0,0.0,0.0,0.0,0.0,0.0,0.0,0.0,0.0,0.0,0.0,0.0,0.0,0.0,0.0,0.0,0.0,0.0,0.0,0.0,0.0,0.0,0.0,0.0,0.0,0.0,0.0,0.0,0.0,0.0,0.0,0.0,0.0,0.0,0.0,0.0,0.0,0.0,0.0,0.0,0.0,0.0,0.0,0.0,0.0,0.0,0.0,0.0,0.0,0.0,0.0,0.0,0.0,0.0,0.0,0.0,0.0,0.0,0.0,0.0,0.0,0.0,0.0,0.0,0.0,0.0,0.0,0.0,0.0,0.0,0.0,0.0,0.0,0.0,0.0,0.0,0.0,0.0,0.0,0.0,0.0,0.0,0.0,0.0,0.0,0.0,0.0,0.0,0.0,0.0,0.0,0.0,0.0,0.0,0.0,0.0,-1.4361,-1.6221,-1.6666,-1.5572,-1.3047,-1.1247,0.0,0.0,0.0,0.0,0.0,0.0,0.0,0.0,0.0,0.0,0.0,0.0,0.0,0.0,0.0,0.0,0.0,0.0,0.0,0.0,0.0,0.0,0.0,0.0,0.0,0.0,0.0,0.0,0.0,0.0,0.0,0.0,0.0,0.0,0.0,0.0,0.0,0.0,0.0,0.0,0.0,0.0,0.0,0.0,0.0,0.0,0.0,0.0,0.0,0.0,0.0,0.0,0.0,0.0,0.0,0.0,0.0,0.0,0.0,0.0,0.0,0.0,0.0,0.0,0.0,0.0,0.0,0.0,0.0,0.0,0.0,0.0,0.0,0.0,0.0,0.0,0.0,0.0,0.0,0.0,0.0,0.0,0.0,0.0,0.0,0.0,0.0,0.0,0.0,0.0,0.0,0.0,0.0,0.0,0.0,0.0,0.0,0.0,0.0,0.0,0.0,0.0,0.0,0.0,0.0,0.0,0.0,0.0,-1.3347,-1.5648,-1.8204,-1.9155,-1.8301,-1.5211,-1.2758,0.0,0.0,0.0,0.0,0.0,0.0,0.0,0.0,0.0,0.0,0.0,0.0,0.0,0.0,0.0,0.0,0.0,0.0,0.0,0.0,0.0,0.0,0.0,0.0,0.0,0.0,0.0,0.0,0.0,0.0,0.0,0.0,0.0,0.0,0.0,0.0,0.0,0.0,0.0,0.0,0.0,0.0,0.0,0.0,0.0,0.0,0.0,0.0,0.0,0.0,0.0,0.0,0.0,0.0,0.0,0.0,0.0,0.0,0.0,0.0,0.0,0.0,0.0,0.0,0.0,0.0,0.0,0.0,0.0,0.0,0.0,0.0,0.0,0.0,0.0,0.0,0.0,0.0,0.0,0.0,0.0,0.0,0.0,0.0,0.0,0.0,0.0,0.0,0.0,0.0,0.0,0.0,0.0,0.0,0.0,0.0,0.0,0.0,0.0,0.0,0.0,0.0,0.0,0.0,0.0,0.0,0.0,0.0,-1.4801,-1.6751,-1.9817,-2.1151,-2.0615,-1.758,-1.4457,0.0,0.0,0.0,0.0,0.0,0.0,0.0,0.0,0.0,0.0,0.0,0.0,0.0,0.0,0.0,0.0,0.0,0.0,0.0,0.0,0.0,0.0,0.0,0.0,0.0,0.0,0.0,0.0,0.0,0.0,0.0,0.0,0.0,0.0,0.0,0.0,0.0,0.0,0.0,0.0,0.0,0.0,0.0,0.0,0.0,0.0,0.0,0.0,0.0,0.0,0.0,0.0,0.0,0.0,0.0,0.0,0.0,0.0,0.0,0.0,0.0,0.0,0.0,0.0,0.0,0.0,0.0,0.0,0.0,0.0,0.0,0.0,0.0,0.0,0.0,0.0,0.0,0.0,0.0,0.0,0.0,0.0,0.0,0.0,0.0,0.0,0.0,0.0,0.0,0.0,0.0,0.0,0.0,0.0,0.0,0.0,0.0,0.0,0.0,0.0,0.0,0.0,0.0,0.0,0.0,0.0,0.0,0.0,-1.5372,-1.7832,-2.0177,-2.1356,-2.1223,-1.8121,-1.5346,0.0,0.0,0.0,0.0,0.0,0.0,0.0,0.0,0.0,0.0,0.0,0.0,0.0,0.0,0.0,0.0,0.0,0.0,0.0,0.0,0.0,0.0,0.0,0.0,0.0,0.0,0.0,0.0,0.0,0.0,0.0,0.0,0.0,0.0,0.0,0.0,0.0,0.0,0.0,0.0,0.0,0.0,0.0,0.0,0.0,0.0,0.0,0.0,-0.9653,0.0,0.0,0.0,0.0,0.0,0.0,0.0,0.0,0.0,0.0,0.0,0.0,0.0,0.0,0.0,0.0,0.0,0.0,0.0,0.0,0.0,0.0,0.0,0.0,0.0,0.0,0.0,0.0,0.0,0.0,0.0,0.0,0.0,0.0,0.0,0.0,0.0,0.0,0.0,0.0,0.0,0.0,0.0,0.0,0.0,0.0,0.0,0.0,0.0,0.0,0.0,0.0,0.0,0.0,0.0,0.0,0.0,0.0,0.0,-1.6406,-1.8891,-2.0791,-2.1777,-2.168,-1.9155,-1.651,0.0,0.0,0.0,0.0,0.0,0.0,0.0,0.0,0.0,0.0,0.0,0.0,0.0,0.0,0.0,0.0,0.0,0.0,0.0,0.0,0.0,0.0,0.0,0.0,0.0,0.0,0.0,0.0,0.0,0.0,0.0,0.0,0.0,0.0,0.0,0.0,0.0,0.0,0.0,0.0,0.0,0.0,0.0,0.0,0.0,0.0,0.0,0.0,0.0,0.0,0.0,0.0,0.0,0.0,0.0,0.0,0.0,0.0,0.0,0.0,0.0,0.0,0.0,0.0,0.0,0.0,0.0,0.0,0.0,0.0,0.0,0.0,0.0,0.0,0.0,0.0,0.0,0.0,0.0,0.0,0.0,0.0,0.0,0.0,0.0,0.0,0.0,0.0,0.0,0.0,0.0,0.0,0.0,0.0,0.0,0.0,0.0,0.0,0.0,0.0,0.0,0.0,0.0,0.0,0.0,0.0,0.0,-1.4605,-1.7297,-1.9961,-2.1452,-2.2197,-2.2161,-2.0189,-1.7689,-1.4651,0.0,0.0,0.0,0.0,0.0,0.0,0.0,0.0,0.0,0.0,0.0,0.0,0.0,0.0,0.0,0.0,0.0,0.0,0.0,0.0,0.0,0.0,0.0,0.0,0.0,0.0,0.0,0.0,0.0,0.0,0.0,0.0,0.0,0.0,0.0,0.0,0.0,0.0,-0.7982,-0.8616,0.0,0.0,0.0,0.0,0.0,0.0,0.0,0.0,-1.003,0.0,0.0,0.0,0.0,0.0,0.0,0.0,0.0,0.0,0.0,0.0,0.0,0.0,0.0,0.0,0.0,0.0,0.0,0.0,0.0,0.0,0.0,0.0,0.0,0.0,0.0,0.0,0.0,0.0,0.0,0.0,0.0,0.0,0.0,0.0,0.0,0.0,0.0,0.0,0.0,0.0,0.0,0.0,0.0,0.0,0.0,0.0,0.0,0.0,0.0,0.0,0.0,0.0,0.0,0.0,0.0,-1.4096,-1.4693,-1.6954,-2.1002,-2.1825,-2.2197,-2.2149,-2.0538,-1.8374,-1.5634,0.0,0.0,0.0,0.0,0.0,0.0,0.0,0.0,0.0,0.0,0.0,0.0,0.0,0.0,0.0,0.0,0.0,0.0,0.0,0.0,0.0,0.0,0.0,0.0,0.0,0.0,0.0,0.0,0.0,0.0,0.0,0.0,0.0,0.0,0.0,0.0,0.0,0.0,0.0,-1.121,-1.2164,0.0,0.0,0.0,0.0,0.0,0.0,0.0,0.0,-1.3891,0.0,0.0,0.0,0.0,0.0,0.0,0.0,0.0,0.0,0.0,0.0,0.0,0.0,0.0,0.0,0.0,0.0,0.0,0.0,0.0,0.0,0.0,0.0,0.0,0.0,0.0,0.0,0.0,0.0,0.0,0.0,0.0,0.0,0.0,0.0,0.0,0.0,0.0,0.0,0.0,0.0,0.0,0.0,0.0,0.0,0.0,0.0,0.0,0.0,0.0,0.0,0.0,0.0,0.0,0.0,-1.3912,-1.5677,-1.8247,-2.168,-2.2065,-2.2197,-2.2137,-1.9817,-1.758,0.0,0.0,0.0,0.0,0.0,0.0,0.0,0.0,0.0,0.0,0.0,0.0,0.0,0.0,0.0,0.0,0.0,0.0,0.0,0.0,0.0,0.0,0.0,0.0,0.0,0.0,0.0,0.0,0.0,0.0,0.0,0.0,0.0,0.0,0.0,0.0,0.0,0.0,0.0,0.0,-1.2252,-1.3244,-1.4856,0.0,0.0,0.0,0.0,0.0,0.0,-1.4026,-1.3639,0.0,0.0,0.0,0.0,0.0,0.0,0.0,0.0,0.0,0.0,0.0,0.0,0.0,0.0,0.0,0.0,0.0,0.0,0.0,0.0,0.0,0.0,0.0,0.0,0.0,0.0,0.0,0.0,0.0,0.0,0.0,0.0,0.0,0.0,0.0,0.0,0.0,0.0,0.0,0.0,0.0,0.0,0.0,0.0,0.0,0.0,0.0,0.0,0.0,0.0,0.0,0.0,0.0,0.0,0.0,-1.3483,-1.6338,-1.9222,-2.2041,-2.2197,-2.2197,-2.2137,-1.9191,-1.6763,0.0,0.0,0.0,0.0,0.0,0.0,0.0,0.0,0.0,0.0,0.0,0.0,0.0,0.0,0.0,0.0,0.0,0.0,0.0,0.0,0.0,0.0,0.0,0.0,0.0,0.0,0.0,0.0,0.0,0.0,0.0,0.0,0.0,0.0,0.0,0.0,0.0,0.0,0.0,0.0,0.0,-1.4348,-1.5915,-1.5681,0.0,0.0,0.0,0.0,-1.5834,-1.491,0.0,0.0,0.0,0.0,0.0,0.0,0.0,0.0,0.0,0.0,0.0,0.0,0.0,0.0,0.0,0.0,0.0,0.0,0.0,0.0,0.0,0.0,0.0,0.0,0.0,0.0,0.0,0.0,0.0,0.0,0.0,0.0,0.0,0.0,0.0,0.0,0.0,0.0,0.0,0.0,0.0,0.0,0.0,0.0,0.0,0.0,0.0,0.0,0.0,0.0,0.0,0.0,0.0,0.0,0.0,0.0,-1.3405,-1.5483,-1.8372,-2.1981,-2.2197,-2.2197,-2.2161,-1.954,-1.7123,0.0,0.0,0.0,0.0,0.0,0.0,0.0,0.0,0.0,0.0,0.0,0.0,0.0,0.0,0.0,0.0,0.0,0.0,0.0,0.0,0.0,0.0,0.0,0.0,0.0,0.0,0.0,0.0,0.0,0.0,0.0,0.0,0.0,0.0,0.0,0.0,0.0,0.0,0.0,0.0,0.0,-1.64,-1.7188,-1.6993,-1.6667,0.0,0.0,-1.6047,-1.7782,-1.7979,0.0,0.0,0.0,0.0,0.0,0.0,0.0,0.0,0.0,0.0,0.0,0.0,0.0,0.0,0.0,0.0,0.0,0.0,0.0,0.0,0.0,0.0,0.0,0.0,0.0,0.0,0.0,0.0,0.0,0.0,0.0,0.0,0.0,0.0,0.0,0.0,0.0,0.0,0.0,0.0,0.0,0.0,0.0,0.0,0.0,0.0,0.0,0.0,0.0,0.0,0.0,0.0,0.0,0.0,0.0,-1.0653,-1.3526,-1.6386,-1.9266,-2.2065,-2.2197,-2.2197,-2.2185,-1.8696,-1.6149,0.0,0.0,0.0,0.0,0.0,0.0,0.0,0.0,0.0,0.0,0.0,0.0,0.0,0.0,0.0,0.0,0.0,0.0,0.0,0.0,0.0,0.0,0.0,0.0,0.0,0.0,0.0,0.0,0.0,0.0,0.0,0.0,0.0,0.0,0.0,0.0,0.0,0.0,0.0,0.0,0.0,0.0,-1.7542,-1.7771,0.0,0.0,0.0,-1.7636,-1.8045,0.0,0.0,0.0,0.0,0.0,0.0,0.0,0.0,0.0,0.0,0.0,0.0,0.0,0.0,0.0,0.0,0.0,0.0,0.0,0.0,0.0,0.0,0.0,0.0,0.0,0.0,0.0,0.0,0.0,0.0,0.0,0.0,0.0,0.0,0.0,0.0,0.0,0.0,0.0,0.0,0.0,0.0,0.0,0.0,0.0,0.0,0.0,0.0,0.0,0.0,0.0,0.0,0.0,0.0,0.0,0.0,0.0,-1.3674,-1.7205,-2.0021,-2.2089,-2.2197,-2.2197,-2.2125,-1.842,0.0,0.0,0.0,0.0,0.0,0.0,0.0,0.0,0.0,0.0,0.0,0.0,0.0,0.0,0.0,0.0,0.0,0.0,0.0,0.0,0.0,0.0,0.0,0.0,0.0,0.0,0.0,-0.5502,0.0,0.0,0.0,0.0,0.0,0.0,0.0,0.0,0.0,0.0,0.0,0.0,0.0,0.0,-1.7176,-1.8004,-1.8532,-1.8909,0.0,0.0,-1.9017,-1.8621,-1.9313,-1.9131,0.0,0.0,0.0,0.0,0.0,0.0,0.0,0.0,0.0,0.0,0.0,0.0,0.0,0.0,0.0,0.0,0.0,0.0,0.0,0.0,0.0,0.0,0.0,0.0,0.0,0.0,0.0,0.0,0.0,0.0,0.0,0.0,0.0,0.0,0.0,0.0,0.0,0.0,0.0,0.0,0.0,0.0,0.0,0.0,0.0,0.0,0.0,0.0,0.0,0.0,0.0,0.0,0.0,0.0,0.0,-1.39,-1.7254,-2.0033,-2.2101,-2.2197,-2.2197,-2.2149,-1.9504,-1.6846,0.0,0.0,0.0,0.0,0.0,0.0,0.0,0.0,0.0,0.0,0.0,0.0,0.0,0.0,0.0,0.0,0.0,0.0,0.0,0.0,0.0,0.0,0.0,0.0,0.0,0.0,0.0,0.0,0.0,0.0,0.0,0.0,0.0,0.0,0.0,0.0,0.0,0.0,0.0,0.0,0.0,-1.7421,-1.9051,-1.9308,-1.9763,0.0,0.0,-1.9749,-2.0238,-2.1033,-2.0583,-1.7456,0.0,0.0,0.0,0.0,0.0,0.0,0.0,0.0,0.0,0.0,0.0,0.0,0.0,0.0,0.0,0.0,0.0,0.0,0.0,0.0,0.0,0.0,0.0,0.0,0.0,0.0,0.0,0.0,0.0,0.0,0.0,0.0,0.0,0.0,0.0,0.0,0.0,0.0,0.0,0.0,0.0,0.0,0.0,0.0,0.0,0.0,0.0,0.0,0.0,0.0,0.0,0.0,0.0,-1.2018,-1.3969,-1.7614,-2.0386,-2.2101,-2.2197,-2.2197,-2.2185,-1.9913,-1.7448,0.0,0.0,0.0,0.0,0.0,0.0,0.0,0.0,0.0,0.0,0.0,0.0,0.0,0.0,0.0,0.0,0.0,0.0,0.0,0.0,0.0,0.0,0.0,0.0,0.0,0.0,0.0,0.0,-0.9539,-0.9548,-0.8778,0.0,0.0,0.0,0.0,0.0,0.0,0.0,0.0,0.0,0.0,-1.8638,-1.958,-2.0691,0.0,0.0,-2.1188,-2.0828,-2.0274,-2.0679,-2.0211,-1.7706,-1.7116,0.0,0.0,0.0,0.0,0.0,0.0,0.0,0.0,0.0,0.0,0.0,0.0,0.0,0.0,0.0,0.0,0.0,0.0,0.0,0.0,0.0,0.0,0.0,0.0,0.0,0.0,0.0,0.0,0.0,0.0,0.0,0.0,0.0,0.0,0.0,0.0,0.0,0.0,0.0,0.0,0.0,0.0,0.0,0.0,0.0,0.0,0.0,0.0,0.0,0.0,0.0,0.0,-1.2405,-1.4295,-1.7927,-2.0562,-2.2149,-2.2197,-2.2197,-2.2137,-2.0261,-1.8061,0.0,0.0,0.0,0.0,0.0,0.0,0.0,0.0,0.0,0.0,0.0,0.0,0.0,0.0,0.0,0.0,0.0,0.0,0.0,0.0,0.0,0.0,0.0,0.0,0.0,0.0,0.0,0.0,-1.0131,-0.9944,-0.8826,0.0,0.0,0.0,0.0,0.0,0.0,0.0,0.0,0.0,0.0,-1.9268,-1.9924,-2.0984,-2.1593,-2.1326,-2.101,-2.0562,-1.998,-2.0122,-1.9682,-1.7935,0.0,0.0,0.0,0.0,0.0,0.0,0.0,0.0,0.0,0.0,0.0,0.0,0.0,0.0,0.0,0.0,0.0,0.0,0.0,0.0,0.0,0.0,0.0,0.0,0.0,0.0,0.0,-0.5156,0.0,0.0,-0.5146,0.0,0.0,0.0,0.0,0.0,0.0,0.0,0.0,0.0,0.0,0.0,0.0,0.0,0.0,0.0,0.0,0.0,0.0,0.0,0.0,0.0,0.0,-1.2727,-1.4989,-1.8193,-2.0586,-2.2137,-2.2197,-2.2197,-2.2161,-2.0651,-1.8758,-1.6595,0.0,0.0,0.0,0.0,0.0,0.0,0.0,0.0,0.0,0.0,0.0,0.0,0.0,0.0,0.0,0.0,0.0,0.0,0.0,0.0,0.0,0.0,0.0,0.0,0.0,0.0,-0.6712,-0.7839,-0.8754,0.0,0.0,0.0,0.0,0.0,0.0,0.0,0.0,0.0,0.0,-1.752,-1.9081,-2.0062,-1.9825,-1.9988,-2.0751,-1.9471,-1.8657,-1.9518,-1.9631,-1.9253,0.0,0.0,0.0,0.0,0.0,0.0,0.0,0.0,0.0,0.0,0.0,0.0,0.0,0.0,0.0,0.0,0.0,0.0,0.0,0.0,0.0,0.0,0.0,0.0,0.0,0.0,0.0,-0.8242,-0.7999,0.0,0.0,0.0,0.0,0.0,0.0,0.0,0.0,0.0,0.0,0.0,-1.3765,-1.4034,0.0,0.0,0.0,0.0,0.0,0.0,0.0,0.0,0.0,0.0,0.0,0.0,-1.3657,-1.56,-1.9032,-2.1296,-2.2161,-2.2197,-2.2197,-2.2185,-2.132,-1.936,-1.6163,0.0,0.0,0.0,0.0,0.0,0.0,0.0,0.0,0.0,0.0,0.0,0.0,0.0,0.0,0.0,0.0,0.0,0.0,0.0,0.0,0.0,0.0,0.0,0.0,0.0,-0.8477,0.0,0.0,0.0,0.0,0.0,0.0,0.0,0.0,0.0,0.0,0.0,-1.5894,-1.7366,-1.8893,-1.9978,-2.0348,-2.1641,-2.2322,0.0,0.0,0.0,0.0,0.0,0.0,0.0,0.0,0.0,0.0,0.0,0.0,0.0,0.0,-1.8896,-1.4888,-1.4476,-1.5236,-1.6918,0.0,0.0,0.0,0.0,0.0,0.0,0.0,0.0,0.0,0.0,0.0,0.0,0.0,0.0,-1.1132,0.0,-1.0144,0.0,0.0,0.0,0.0,0.0,0.0,0.0,0.0,-1.5094,-1.603,-1.6538,-1.6824,-1.6859,0.0,-1.5778,-1.3836,0.0,0.0,0.0,0.0,0.0,0.0,0.0,0.0,-1.4708,-1.6404,-1.9669,-2.1668,-2.2161,-2.2197,-2.2197,-2.2185,-2.15,-1.9901,-1.7267,-1.5175,-1.3239,0.0,0.0,0.0,0.0,0.0,0.0,0.0,0.0,0.0,0.0,0.0,0.0,0.0,0.0,0.0,0.0,0.0,0.0,0.0,0.0,0.0,0.0,0.0,-0.92,0.0,0.0,0.0,0.0,0.0,0.0,0.0,0.0,0.0,-1.7497,-1.7424,-1.7678,-1.8886,-1.9959,-2.066,-2.0779,0.0,0.0,0.0,0.0,0.0,0.0,0.0,-1.9348,-1.9118,-1.9551,-2.0095,-2.0645,-2.1686,-2.2359,-2.2067,0.0,0.0,-1.7927,-1.7461,-1.8216,-1.9897,-1.923,-1.8272,-1.805,-1.8265,-1.8506,0.0,0.0,0.0,0.0,0.0,0.0,0.0,0.0,-1.3818,-1.3815,0.0,-1.2602,0.0,0.0,0.0,0.0,0.0,-1.4428,0.0,0.0,-1.9552,-2.0803,-1.9929,-2.0334,-2.0322,-1.978,-1.877,-1.7483,-1.5924,-1.3694,0.0,0.0,0.0,0.0,0.0,0.0,-1.5816,-1.7459,-2.0069,-2.1644,-2.2137,-2.2185,-2.2197,-2.2161,-2.117,-2.037,-1.9772,-1.7784,-1.6187,-1.5061,-1.2584,0.0,0.0,0.0,0.0,0.0,0.0,0.0,0.0,0.0,0.0,0.0,0.0,0.0,0.0,0.0,0.0,0.0,0.0,0.0,0.0,-0.9558,0.0,0.0,0.0,0.0,0.0,0.0,0.0,0.0,0.0,0.0,-1.8374,-1.8484,-1.8923,-2.016,0.0,0.0,0.0,0.0,-2.1589,-2.1443,-2.0662,-2.0312,-2.0598,-2.1011,-2.135,-2.1478,0.0,0.0,-2.3258,-2.3195,-2.3108,-2.2543,-2.3409,-2.3511,-2.1827,-2.088,-2.0889,-2.2238,-2.1807,-2.1121,-2.0771,-2.0663,-2.0699,-1.8366,0.0,0.0,0.0,0.0,-1.5913,-1.6787,-1.8301,-1.8118,-1.7598,-1.6836,-1.6123,0.0,0.0,0.0,0.0,0.0,0.0,-1.7027,-1.9191,-1.9965,-2.0711,-2.1476,-2.1284,-2.1091,-2.0935,-2.0634,-2.0454,-2.031,-1.8919,-1.6093,-1.1957,0.0,0.0,0.0,0.0,-1.6547,-1.8518,-2.043,-2.1476,-2.162,-2.1993,-2.2197,-2.2197,-2.1536,-2.0923,-2.0386,-1.9411,-1.8037,-1.6223,-1.4689,0.0,0.0,0.0,0.0,0.0,0.0,0.0,0.0,0.0,0.0,0.0,0.0,0.0,0.0,0.0,0.0,0.0,0.0,0.0,-0.9606,-1.0916,-1.1548,0.0,0.0,0.0,0.0,0.0,0.0,0.0,0.0,0.0,-2.0205,-2.0188,-2.039,0.0,0.0,-2.1212,-2.1228,-2.2035,-2.267,-2.2568,-2.2755,0.0,-2.299,-2.2368,-2.2052,-2.2569,-2.374,-2.4625,-2.4858,-2.5234,-2.5427,-2.5132,-2.5361,-2.5335,-2.4751,-2.3795,-2.3479,-2.4223,-2.4011,-2.3462,-2.3007,-2.2879,-2.2879,-2.2743,-2.0351,-1.8725,-1.8553,-1.936,-1.9323,-2.0188,-2.1629,-2.144,-2.1036,-2.0358,-1.9624,-1.8444,-1.6955,-1.6213,0.0,0.0,0.0,-1.942,-2.1855,-2.1313,-2.1711,-2.2751,-2.2517,-2.2342,-2.2361,-2.2125,-2.2197,-2.2486,-2.1235,-1.8734,-1.5112,0.0,0.0,-1.4751,-1.6054,-1.7471,-1.8975,-2.0382,-2.1199,-2.1404,-2.1921,-2.2197,-2.2173,-2.1873,-2.156,-2.1253,-2.0735,-1.9636,-1.7941,-1.6439,-1.4521,0.0,0.0,0.0,0.0,0.0,0.0,0.0,0.0,0.0,0.0,0.0,-0.8381,0.0,0.0,0.0,0.0,-1.0363,-1.2692,-1.2068,-1.3065,0.0,0.0,0.0,0.0,0.0,0.0,0.0,-1.707,-1.9814,-2.1816,-2.211,-2.2402,-2.2733,-2.3033,-2.2541,-2.2357,-2.287,0.0,-2.3991,-2.4387,-2.4713,-2.4793,-2.4582,-2.4362,-2.436,-2.4976,-2.5615,-2.6189,-2.654,-2.6892,-2.707,-2.6989,-2.6953,-2.6768,-2.6241,-2.5578,-2.5182,-2.5469,-2.5196,-2.4786,-2.4444,-2.4374,-2.442,-2.6154,-2.5925,-2.3039,-2.1954,-2.2167,-2.2423,-2.3107,-2.4047,-2.4059,-2.4023,-2.3914,-2.2931,-2.2185,-2.1554,-2.0603,0.0,-2.1656,-2.1644,-2.2474,-2.3962,-2.3493,-2.3493,-2.3926,-2.3926,-2.3878,-2.3794,-2.3264,-2.3011,-2.2939,-2.1524,-2.0478,-1.9844,-1.8434,-1.7399,-1.6883,-1.776,-1.8542,-1.9119,-2.0069,-2.0827,-2.1404,-2.1873,-2.2149,-2.2185,-2.2197,-2.2161,-2.2113,-2.1656,-2.0887,-1.976,-1.7869,-1.6535,-1.584,0.0,0.0,0.0,0.0,0.0,0.0,0.0,0.0,0.0,0.0,0.0,0.0,0.0,0.0,0.0,-1.2147,0.0,-1.5934,-1.576,0.0,0.0,0.0,-1.7216,-1.9197,-2.0563,-2.1137,-2.0532,0.0,0.0,-2.437,-2.5045,-2.5614,-2.5633,-2.4505,-2.4199,-2.549,-2.5427,-2.5586,-2.6352,-2.6424,-2.6143,-2.5749,-2.6465,-2.7293,-2.772,-2.8109,-2.7996,-2.7996,-2.8034,-2.8072,-2.8047,-2.8097,-2.7808,-2.6813,-2.6637,-2.6511,-2.6218,-2.5754,-2.5444,-2.5444,-2.5444,-2.5444,-2.6705,-2.6633,-2.5889,-2.5373,-2.5085,-2.5132,-2.5552,-2.6166,-2.6141,-2.5937,-2.5516,-2.5264,-2.4662,-2.3703,-2.3144,-2.3171,-2.3773,-2.3773,-2.4422,-2.5504,-2.5408,-2.5204,-2.4951,-2.4951,-2.4518,-2.3806,-2.3264,-2.3011,-2.2999,-2.2606,-2.174,-2.0478,-2.0442,-1.978,-1.8494,-1.8686,-1.9275,-2.0213,-2.0069,-2.0442,-2.1368,-2.1524,-2.1777,-2.2185,-2.2197,-2.2005,-2.162,-2.1476,-2.0718,-1.9275,-1.8698,-1.8013,-1.7027,-1.3419,0.0,0.0,0.0,0.0,0.0,0.0,0.0,0.0,0.0,-1.1367,-0.9079,0.0,-1.1523,0.0,-1.2812,-1.7086,-1.7241,-1.8007,0.0,0.0,-1.992,-2.0776,-2.2782,-2.3397,-2.3647,-2.3667,-2.5202,-2.7122,-2.9299,-2.825,-2.7615,-2.8288,-2.6903,-2.5861,-2.6043,-2.6477,-2.6847,-2.7105,-2.7421,-2.7509,-2.7216,-2.7806,-2.831,-2.8134,-2.8122,-2.8109,-2.8122,-2.8109,-2.8109,-2.8109,-2.8109,-2.7984,-2.777,-2.7708,-2.7791,-2.7794,-2.7165,-2.6513,-2.6501,-2.6489,-2.6501,-2.7606,-2.7594,-2.7594,-2.7188,-2.6466,-2.6429,-2.6609,-2.6885,-2.6885,-2.6717,-2.6429,-2.6478,-2.6142,-2.5553,-2.53,-2.5324,-2.5541,-2.5565,-2.5877,-2.6454,-2.6466,-2.631,-2.5997,-2.5997,-2.5612,-2.4807,-2.4506,-2.4121,-2.3676,-2.3436,-2.2806,-2.1692,-2.1957,-2.1536,-2.0418,-1.9468,-1.9287,-1.9877,-2.0069,-2.0454,-2.1043,-2.1512,-2.156,-2.1139,-2.1373,-2.1145,-2.0358,-2.0334,-1.9696,-1.8362,-1.8061,-1.8001,-1.8037,-1.4381,-1.1126,0.0,0.0,0.0,0.0,0.0,0.0,0.0,0.0,0.0,0.0,0.0,-1.5082,-1.2224,-1.7003,-2.0017,-1.9398,-2.0433,-2.1565,-2.2598,-2.304,-2.4045,-2.5921,-2.6445,-2.67,-2.6712,-2.799,-2.9485,-3.1148,-3.0065,-2.9287,-2.9847,-2.8825,-2.7846,-2.7512,-2.7797,-2.8097,-2.8373,-2.8662,-2.88,-2.8611,-2.89,-2.9114,-2.8913,-2.8863,-2.8863,-2.885,-2.885,-2.8863,-2.885,-2.8863,-2.8863,-2.8863,-2.8863,-2.8861,-2.8746,-2.8354,-2.7692,-2.7019,-2.6885,-2.6885,-2.851,-2.851,-2.851,-2.7942,-2.7102,-2.7102,-2.6946,-2.6681,-2.6681,-2.6765,-2.691,-2.703,-2.7102,-2.7102,-2.709,-2.7102,-2.7102,-2.7102,-2.7102,-2.7102,-2.7102,-2.703,-2.6885,-2.6885,-2.6573,-2.6009,-2.5925,-2.542,-2.4484,-2.4085,-2.3532,-2.2939,-2.2987,-2.2686,-2.1933,-2.0189,-1.9263,-1.9215,-2.0201,-2.0718,-2.073,-2.1416,-2.1139,-1.9904,-2.0181,-1.9929,-1.8951,-1.8891,-1.841,-1.7376,-1.6943,-1.7231,-1.8241,-1.5028,-1.2812,0.0,-1.1752,0.0,0.0,0.0,0.0,0.0,0.0,0.0,0.0,-1.6341,-1.7629,-1.9194,-2.232,-2.3655,-2.2133,-2.3009,-2.4152,-2.532,-2.6045,-2.7003,-2.8545,-2.933,-2.9667,-2.9419,-3.0555,-3.1386,-3.1361,-3.0934,-3.0608,-3.0493,-3.003,-2.9428,-2.9088,-2.8963,-2.9164,-2.9741,-2.9779,-2.9641,-2.9654,-2.9716,-2.9741,-2.9754,-2.9704,-2.9779,-2.9716,-2.9729,-2.9754,-2.9741,-2.9704,-2.9729,-2.9779,-2.9754,-2.9638,-2.9341,-2.9147,-2.8709,-2.7631,-2.73,-2.7165,-2.851,-2.851,-2.851,-2.8402,-2.8182,-2.821,-2.7224,-2.5624,-2.5612,-2.6069,-2.6946,-2.7798,-2.821,-2.821,-2.821,-2.821,-2.821,-2.821,-2.8222,-2.8222,-2.821,-2.7714,-2.6922,-2.6885,-2.6369,-2.5468,-2.5011,-2.4723,-2.4484,-2.4388,-2.3688,-2.239,-2.2794,-2.2301,-2.0976,0.0,0.0,0.0,-2.0923,-2.126,-2.1223,-2.0153,-1.9688,-1.9796,-1.9483,0.0,-1.8386,-1.835,-1.7832,-1.6835,-1.7063,0.0,0.0,0.0,0.0,0.0,0.0,0.0,0.0,0.0,0.0,0.0,-1.7267,-1.746,-1.6979,-1.7159,-1.83,-2.0767,-2.4496,-2.6331,-2.5169,-2.577,-2.6912,-2.8336,-2.8849,-2.9487,-3.0462,-3.086,-3.0991,-3.1004,-3.1232,-3.1373,-3.1311,-3.0934,-3.0593,-3.0595,-3.0143,-2.9779,-2.9654,-2.9616,-2.9654,-2.9779,-2.9779,-2.9779,-2.9779,-2.9779,-2.9779,-2.9779,-2.9779,-2.9779,-2.9779,-2.9779,-2.9779,-2.9779,-2.9779,-2.9779,-2.9779,-2.9779,-2.9702,-2.9353,-2.9495,-2.9445,-2.8834,-2.8668,-2.868,-2.9292,0.0,-2.9292,-2.8991,0.0,-2.851,-2.7558,-2.6105,-2.6671,-2.72,-2.7702,-2.8282,-2.851,-2.8474,-2.793,-2.769,-2.7666,-2.7176,-2.7224,-2.7729,-2.7741,-2.769,-2.7666,-2.7678,-2.7296,-2.649,-2.5961,-2.5397,-2.488,-2.4616,-2.3989,-2.2979,-2.3276,-2.2999,-2.2228,-2.2678,-2.2558,-2.1789,-2.2053,-2.2197,-2.2149,-2.138,-2.0615,-1.9844,-1.9793,0.0,0.0,0.0,0.0,0.0,0.0,0.0,0.0,0.0,0.0,-1.8857,-1.7267,-1.634,-1.6629,-1.7567,-1.865,-1.972,-2.1223,-2.1452,-1.9901,-1.978,-2.0754,-2.3135,-2.6178,-2.7782,-2.7284,-2.7761,-2.8648,-2.9902,-3.0431,-3.0963,-3.1522,-3.1718,-3.1763,-3.1662,-3.1512,-3.121,-3.0658,-3.0896,-3.0871,-3.0645,-3.0382,-3.0193,-3.0168,-2.9955,-2.9792,-2.9779,-2.9779,-2.9779,-2.9779,-2.9779,-2.9779,-2.9779,-2.9779,-2.9779,-2.9779,-2.9779,-2.9779,-2.9779,-2.9779,-2.9779,-2.9779,-2.9779,-2.974,-2.9624,-2.9702,-2.9753,-2.9456,-2.926,-2.9104,-3.0086,-3.0086,-3.0086,-2.9581,-2.8787,-2.8799,-2.8294,-2.7498,0.0,0.0,0.0,-2.8703,-2.8727,-2.8595,-2.7741,-2.7258,-2.7114,-2.6286,-2.6358,-2.7162,-2.7174,-2.7621,-2.8366,-2.8366,-2.8062,-2.7534,-2.7114,-2.6441,-2.56,-2.5059,-2.4542,-2.4119,-2.3986,-2.389,-2.383,-2.4181,-2.3977,-2.3159,-2.3156,-2.3156,-2.3144,-2.2847,-2.1843,-2.0001,-2.0286,-1.9729,-1.8277,-1.8614,-1.8602,-1.8097,-1.8157,-1.7977,-1.752,-1.7796,-1.8458,-1.9432,-1.9155,-1.9095,-1.954,-2.0562,-2.168,-2.2799,-2.447,-2.4675,-2.2871,-2.2919,-2.3773,-2.5588,-2.7673,-2.8871,-2.8799,-2.9326,-3.0065,-3.0947,-3.1346,-3.1725,-3.2106,-3.2102,-3.2001,-3.1951,-3.1612,-3.111,-3.0432,-3.0922,-3.1248,-3.0871,-3.0771,-3.0758,-3.0683,-3.0306,-3.0005,-3.0055,-2.9942,-2.9829,-2.9955,-2.9842,-2.9804,-2.9779,-2.9779,-2.9779,-2.9779,-2.9779,-2.9779,-2.9779,-2.9779,-2.9779,-2.9779,-2.9779,-2.9779,-2.9779,-2.9779,-2.9779,-2.974,-2.9507,-2.9248,-3.0098,-3.0086,-3.0086,-3.0001,-2.9869,-2.9869,-2.9785,-2.9581,-2.8847,-2.8522,-2.857,-2.9472,-2.9605,-2.9184,-2.9039,-2.8715,-2.8282,-2.8126,-2.811,-2.8282,-2.8294,-2.8114,-2.7837,-2.7798,-2.7522,-2.703,-2.6934,-2.6825,-2.6621,-2.6129,-2.56,-2.5095,-2.4638,-2.4206,-2.3854,-2.3878,-2.383,-2.3697,-2.3685,-2.3685,-2.3673,-2.2318,-2.1254,-2.0538,-2.0141,-1.9399,-1.8265,-1.8313,-1.8061,-1.7568,-1.7965,-1.8626,-1.9603,-1.9937,-2.0634,-2.1632,-2.1668,-2.1668,-2.174,-2.2727,-2.3998,-2.5384,-2.5829,-2.5661,-2.4987,-2.5733,-2.6549,-2.738,-2.922,-3.0282,-2.9926,-3.0527,-3.1294,-3.1826,-3.1667,-3.1659,-3.2114,-3.18,-3.165,-3.1913,-3.1625,-3.1512,-3.1512,-3.1474,-3.1424,-3.1298,-3.1286,-3.1286,-3.121,-3.0834,-3.0595,-3.0595,-3.0193,-3.0118,-3.0482,-3.0168,-2.9942,-2.9779,-2.9854,-2.9917,-2.993,-2.9829,-2.9829,-2.9817,-2.9905,-2.988,-2.9854,-2.9779,-2.9867,-2.9892,-2.993,-2.9917,-2.993,-2.9814,-2.9738,-3.0983,-3.0983,-3.0983,-3.0983,-3.0983,-3.0939,-3.0983,-3.0946,-3.0446,-2.9893,-2.9436,-2.9881,-2.9953,-2.9689,-2.9136,-2.8582,-2.8053,-2.7476,-2.7356,-2.7606,-2.7606,-2.7798,-2.8126,-2.815,-2.8017,-2.7789,-2.7462,-2.7318,-2.7282,-2.6765,-2.6393,-2.6105,-2.5336,-2.4554,-2.3878,-2.4049,-2.4181,-2.4181,-2.4181,-2.4181,-2.4157,-2.3472,-2.2847,-2.2342,-2.2096,-2.147,-2.0406,-2.0646,-2.0562,-2.0033,-2.0237,-2.0634,-2.1187,-2.1115,-2.126,-2.1728,-2.1765,-2.1765,-2.1753,-2.328,-2.4602,-2.56,-2.6601,-2.6975,-2.6635,-2.6765,-2.743,-2.8609,-3.0041,-3.0819,-3.0827,-3.1269,-3.1684,-3.1992,-3.1822,-3.1701,-3.1709,-3.1562,-3.1474,-3.1612,-3.1512,-3.1461,-3.1637,-3.175,-3.1838,-3.1825,-3.1825,-3.1838,-3.1838,-3.1637,-3.1386,-3.1198,-3.0911,-3.0821,-3.1085,-3.0896,-3.0683,-3.067,-3.0658,-3.0658,-3.0608,-3.0281,-3.0093,-3.0532,-3.0658,-3.0658,-3.0633,-3.0507,-3.0482,-3.0658,-3.0859,-3.0896,-3.0746,-3.0658,-3.0457,-3.1705,-3.1705,-3.1705,-3.1705,-3.1705,-3.1705,-3.1705,-3.1705,-3.1693,-3.1247,-3.0506,-3.0446,-3.0374,-3.0182,-2.94,-2.8751,-2.8174,-2.726,-2.7067,-2.739,-2.7306,-2.7678,-2.8438,-2.851,-2.851,-2.8462,-2.8089,-2.7897,-2.7837,-2.733,-2.7018,-2.6813,-2.5961,-2.5023,-2.4145,-2.4386,-2.4458,-2.4362,-2.447,-2.4496,-2.4496,-2.4496,-2.4278,-2.3854,-2.3902,-2.3448,-2.2474,-2.2794,-2.2739,-2.2246,-2.2306,-2.2366,-2.2366,-2.2101,-2.1885,-2.1777,-2.1765,-2.1873,-2.2185,-2.3787,-2.5155,-2.5829,-2.7134,-2.7908,-2.7849,-2.7536,-2.7864,-2.9383,-3.0613,-3.1437,-3.1588,-3.1827,-3.2017,-3.2162,-3.1913,-3.1672,-3.1433,-3.1286,-3.1273,-3.1361,-3.1499,-3.1625,-3.18,-3.2139,-3.239,-3.2403,-3.2403,-3.2403,-3.2403,-3.2403,-3.2215,-3.1926,-3.1775,-3.17,-3.1637,-3.1712,-3.1637,-3.1499,-3.1348,-3.1286,-3.1185,-3.0633,-3.0482,-3.1173,-3.1612,-3.1562,-3.1436,-3.1173,-3.1097,-3.1235,-3.1449,-3.1625,-3.1361,-3.1298,-3.1148,-3.1705,-3.1705,-3.1705,-3.1705,-3.1705,-3.1705,-3.1705,-3.1705,-3.1705,-3.1669,-3.15,-3.1517,-3.1271,-3.0886,-3.0675,-3.0314,-2.9785,-2.9268,-2.9003,-2.8979,-2.8582,-2.8426,-2.8483,-2.851,-2.851,-2.8498,-2.8438,-2.839,-2.8354,-2.7897,-2.7378,-2.6885,-2.6322,-2.5757,-2.5192,-2.4736,-2.4326,-2.3902,-2.429,-2.4496,-2.4496,-2.4496,-2.4278,-2.3818,-2.4206,-2.3965,-2.2967,-2.2987,-2.2782,-2.2282,-2.2654,-2.2927,-2.2931,-2.3292,-2.3348,-2.2891,-2.2823,-2.3232,-2.4124,-2.53,-2.6346,-2.733,-2.7596,-2.7996,-2.8378,-2.8378,-2.8595,-2.9588,-3.1512,-3.2356,-3.1772,-3.2381,-3.2832,-3.2749,-3.206,-3.1436,-3.1361,-3.0972,-3.0859,-3.1348,-3.1851,-3.2328,-3.2704,-3.288,-3.2986,-3.2905,-3.2935,-3.2893,-3.2948,-3.2905,-3.2948,-3.291,-3.2893,-3.2641,-3.2328,-3.2591,-3.239,-3.1675,-3.1424,-3.1512,-3.1512,-3.1449,-3.1336,-3.1662,-3.2227,-3.2458,-3.1854,-3.1348,-3.1424,-3.1587,-3.165,-3.1524,-3.1411,-3.1486,-3.1411,-3.1705,-3.1705,-3.1705,-3.1705,-3.1705,-3.1705,-3.1705,-3.1705,-3.1705,-3.1705,-3.1705,-3.1705,-3.1585,-3.138,-3.138,-3.1091,-3.0585,-3.0338,-3.0062,-2.9737,-2.922,-2.8979,-2.8955,-2.8643,-2.851,-2.851,-2.851,-2.851,-2.8474,-2.8282,-2.7882,-2.7402,-2.7164,-2.6753,-2.6249,-2.6021,-2.5685,-2.5155,-2.5035,-2.4843,-2.4554,-2.4496,-2.4278,-2.389,-2.3998,-2.3938,-2.3508,-2.3469,-2.3372,-2.3192,-2.334,-2.3336,-2.3003,-2.33,-2.3292,-2.3027,-2.3312,-2.3761,-2.447,-2.5469,-2.643,-2.7174,-2.8031,-2.8706,-2.9084,-2.8958,-2.9318,-3.0606,-3.1896,-3.2581,-3.2523,-3.2857,-3.2955,-3.2591,-3.2127,-3.175,-3.1411,-3.1499,-3.1662,-3.1888,-3.2378,-3.2792,-3.3048,-3.3124,-3.3124,-3.3124,-3.3124,-3.3124,-3.3124,-3.3124,-3.3124,-3.3124,-3.3124,-3.3036,-3.278,-3.2893,-3.2847,-3.2571,-3.2432,-3.239,-3.234,-3.2378,-3.2432,-3.2353,-3.2797,-3.2973,-3.2554,-3.239,-3.2378,-3.237,-3.2407,-3.239,-3.242,-3.2432,-3.239,-3.1705,-3.1705,-3.1705,-3.1705,-3.1705,-3.1705,-3.1705,-3.1705,-3.1705,-3.1705,-3.1705,-3.1705,-3.1705,-3.1705,-3.1705,-3.1488,-3.1151,-3.0983,-3.0718,-3.0266,-2.9761,-2.952,-2.946,-2.8967,-2.8727,-2.8703,-2.8582,-2.851,-2.851,-2.851,-2.8306,-2.793,-2.7789,-2.7524,-2.7126,-2.6994,-2.6743,-2.6322,-2.5901,-2.5504,-2.5023,-2.4807,-2.4422,-2.389,-2.3905,-2.3977,-2.3998,-2.3878,-2.3866,-2.3998,-2.3977,-2.3809,-2.3436,-2.3628,-2.3725,-2.364,-2.3833,-2.4266,-2.4915,-2.5817,-2.6622,-2.7332,-2.8414,-2.9193,-2.9516,-2.9588,-3.0188,-3.1427,-3.2241,-3.2779,-3.2909,-3.2887,-3.2692,-3.2466,-3.2495,-3.2304,-3.1766,-3.2167,-3.2469,-3.2294,-3.2667,-3.3124,-3.3124,-3.3124,-3.3124,-3.3124,-3.3124,-3.324,-3.3326,-3.3326,-3.3167,-3.3368,-3.3283,-3.3124,-3.3124,-3.3111,-3.3124,-3.3124,-3.3036,-3.3023,-3.3124,-3.3111,-3.3111,-3.2797,-3.3036,-3.3086,-3.2923,-3.2998,-3.3061,-3.3111,-3.3086,-3.3048,-3.2973,-3.3086,-3.3086,-3.1705,-3.1705,-3.1705,-3.1705,-3.1705,-3.1705,-3.1705,-3.1705,-3.1705,-3.1705,-3.1705,-3.1705,-3.1705,-3.1705,-3.1705,-3.1693,-3.1585,-3.1175,-3.0903,-3.0826,-3.029,-3.0062,-3.0055,-2.952,-2.9268,-2.922,-2.8787,-2.8546,-2.8522,-2.851,-2.851,-2.8438,-2.7993,-2.7729,-2.7633,-2.7222,-2.691,-2.6849,-2.6789,-2.6562,-2.6033,-2.554,-2.4843,-2.4083,-2.4218,-2.441,-2.4422,-2.4025,-2.4001,-2.4436,-2.446,-2.4458,-2.4424,-2.4867,-2.5071,-2.5131,-2.4759,-2.4951,-2.5901,-2.655,-2.7308,-2.8237,-2.874,-2.9099,-2.9894,-3.0335,-3.1046,-3.1866,-3.2639,-3.2939,-3.2889,-3.2662,-3.2604,-3.2991,-3.3258,-3.3029,-3.2315,-3.3032,-3.299,-3.2637,-3.2984,-3.333,-3.324,-3.3124,-3.324,-3.324,-3.3167,-3.3368,-3.3823,-3.3526,-3.3454,-3.3781,-3.3569,-3.3124,-3.3124,-3.3124,-3.3124,-3.3124,-3.3124,-3.3124,-3.3124,-3.3124,-3.3124,-3.3124,-3.3124,-3.3124,-3.3124,-3.3124,-3.3111,-3.3124,-3.3124,-3.3124,-3.3124,-3.3124,-3.3124,-3.1705,-3.1705,-3.1705,-3.1705,-3.1705,-3.1705,-3.1705,-3.1705,-3.1705,-3.1705,-3.1705,-3.1705,-3.1705,-3.1705,-3.1705,-3.1705,-3.1681,-3.15,-3.1428,-3.1368,-3.0843,-3.0633,-3.053,-3.0062,-2.9809,-2.9737,-2.9268,-2.8835,-2.8534,-2.851,-2.851,-2.8498,-2.829,-2.8234,-2.8158,-2.8053,-2.775,-2.7426,-2.7414,-2.7138,-2.6645,-2.6442,-2.5997,-2.5299,-2.4446,-2.4194,-2.4484,-2.435,-2.4494,-2.5011,-2.5011,-2.4867,-2.4544,-2.4699,-2.5288,-2.6117,-2.5841,-2.5925,-2.6698,-2.7304,-2.7987,-2.8836,-2.9475,-3.0446,-3.1445,-3.154,-3.1791,-3.3046,-3.3161,-3.3227,-3.3573,-3.3208,-3.2885,-3.3122,-3.3672,-3.4003,-3.3864,-3.4319,-3.47,-3.4483,-3.4586,-3.4568,-3.4317,-3.447,-3.4483,-3.4021,-3.3949,-3.3865,-3.3569,-3.3283,-3.3283,-3.3441,-3.3326,-3.3124,-3.3124,-3.3124,-3.3124,-3.3124,-3.3124,-3.3124,-3.3124,-3.3124,-3.3124,-3.3124,-3.3124,-3.321,-3.3197,-3.3167,-3.3167,-3.3253,-3.321,-3.3124,-3.3124,-3.3124,-3.3124,-3.1705,-3.1705,-3.1705,-3.1705,-3.1705,-3.1705,-3.1705,-3.1705,-3.1705,-3.1705,-3.1705,-3.1705,-3.1705,-3.1705,-3.1705,-3.1705,-3.1705,-3.1705,-3.1705,-3.1681,-3.1332,-3.1175,-3.1091,-3.0633,-3.0338,-3.023,-2.9629,-2.9027,-2.8558,-2.851,-2.851,-2.851,-2.851,-2.851,-2.851,-2.851,-2.8318,-2.7978,-2.7981,-2.775,-2.7426,-2.7234,-2.6982,-2.6514,-2.5432,-2.4855,-2.5023,-2.4676,-2.4771,-2.5204,-2.5155,-2.494,-2.4772,-2.5072,-2.5817,-2.6893,-2.6956,-2.7188,-2.7916,-2.87,-2.9479,-3.0201,-3.0968,-3.2094,-3.338,-3.2747,-3.3086,-3.399,-3.4246,-3.4163,-3.433,-3.4163,-3.3924,-3.4008,-3.4703,-3.5073,-3.4896,-3.5507,-3.5682,-3.5346,-3.5359,-3.5427,-3.5386,-3.5507,-3.5278,-3.4814,-3.4579,-3.4147,-3.4008,-3.3641,-3.3539,-3.3581,-3.3882,-3.3924,-3.3953,-3.4037,-3.3526,-3.3398,-3.324,-3.321,-3.3167,-3.3167,-3.3124,-3.3124,-3.321,-3.3283,-3.3283,-3.324,-3.3326,-3.3454,-3.3253,-3.3124,-3.3124,-3.3124,-3.3124,-3.1729,-3.1705,-3.1705,-3.1705,-3.1705,-3.1705,-3.1705,-3.1705,-3.1705,-3.1705,-3.1705,-3.1705,-3.1705,-3.1705,-3.1705,-3.1705,-3.1705,-3.1705,-3.1705,-3.1693,-3.1669,-3.1645,-3.1609,-3.1151,-3.0826,-3.0718,-2.9797,-2.9063,-2.8546,-2.851,-2.851,-2.851,-2.851,-2.851,-2.851,-2.851,-2.8498,-2.8438,-2.8426,-2.8438,-2.8438,-2.793,-2.7705,-2.7582,-2.7054,-2.661,-2.6166,-2.5168,-2.494,-2.5264,-2.4975,-2.482,-2.5444,-2.6372,-2.7162,-2.7767,-2.8157,-2.8737,-2.9593,-3.0729,-3.158,-3.2306,-3.3145,-3.3787,-3.4402,-3.4211,-3.4215,-3.4834,-3.5346,-3.5467,-3.5061,-3.5264,-3.5413,-3.5628,-3.6082,-3.6294,-3.5949,-3.636,-3.6452,-3.5521,-3.5628,-3.5909,-3.6201,-3.6227,-3.5909,-3.5602,-3.5142,-3.4827,-3.5115,-3.4718,-3.4468,-3.4509,-3.4718,-3.4828,-3.4992,-3.5074,-3.4317,-3.3683,-3.3484,-3.3368,-3.3368,-3.3326,-3.3167,-3.3124,-3.3454,-3.3569,-3.3937,-3.3894,-3.4037,-3.4079,-3.3641,-3.3368,-3.3368,-3.3411,-3.3167,-3.2022,-3.1717,-3.1705,-3.1705,-3.1705,-3.1705,-3.1705,-3.1705,-3.1705,-3.1705,-3.1705,-3.1705,-3.1705,-3.1705,-3.1705,-3.1705,-3.1705,-3.1705,-3.1705,-3.1705,-3.1705,-3.1705,-3.1669,-3.1536,-3.1079,-3.0398,-3.0013,-2.9376,-2.8667,-2.8522,-2.851,-2.851,-2.851,-2.851,-2.851,-2.851,-2.851,-2.851,-2.851,-2.851,-2.851,-2.8354,-2.8258,-2.8246,-2.8062,-2.7933,-2.7717,-2.6705,-2.6249,-2.6418,-2.6237,-2.6225,-2.6663,-2.8014,-2.9343,-3.0103,-3.005,-3.053,-3.1562,-3.2104,-3.2941,-3.3817,-3.4353,-3.502,-3.5894,-3.5509,-3.5392,-3.5975,-3.6805,-3.7039,-3.6281,-3.6281,-3.6267,-3.5709,-3.636,-3.6858,-3.6688,-3.7246,-3.7529,-3.7271,-3.7271,-3.7477,-3.7553,-3.7386,-3.7039,-3.6557,-3.6215,-3.6042,-3.5628,-3.5467,-3.5237,-3.5278,-3.5494,-3.5534,-3.5305,-3.5467,-3.5359,-3.4677,-3.4246,-3.4008,-3.3894,-3.3768,-3.3484,-3.3484,-3.3768,-3.4092,-3.4426,-3.4579,-3.4759,-3.4759,-3.4538,-3.4259,-3.3979,-3.3654,-3.3283,-3.2178,-3.1729,-3.1705,-3.1705,-3.1705,-3.1705,-3.1705,-3.1705,-3.1705,-3.1705,-3.1705,-3.1705,-3.1705,-3.1705,-3.1705,-3.1705,-3.1705,-3.1705,-3.1705,-3.1705,-3.1705,-3.1705,-3.1705,-3.1705,-3.1296,-3.0543,-3.0374,-2.9833,-2.8847,-2.8799,-2.8715,-2.8546,-2.851,-2.851,-2.851,-2.851,-2.851,-2.851,-2.851,-2.851,-2.851,-2.851,-2.851,-2.8566,-2.8605,-2.8657,-2.8648,-2.8043,-2.7607,-2.7438,-2.7641,-2.7928,-2.8146,-2.9585,-3.1096,-3.2118,-3.2003,-3.2032,-3.3115,-3.3762,-3.4502,-3.5481,-3.5924,-3.6382,-3.7123,-3.6791,-3.6791,-3.7208,-3.772,-3.7924,-3.7323,-3.7232,-3.7116,-3.666,-3.7078,-3.7376,-3.7491,-3.7848,-3.8127,-3.8075,-3.8127,-3.8202,-3.8202,-3.8202,-3.8,-3.7453,-3.7092,-3.6805,-3.6241,-3.6108,-3.5989,-3.6068,-3.6425,-3.6108,-3.5386,-3.5669,-3.6227,-3.5749,-3.5196,-3.4965,-3.48,-3.4635,-3.4387,-3.447,-3.4718,-3.5047,-3.5372,-3.5318,-3.5386,-3.5318,-3.5454,-3.462,-3.4105,-3.3526,-3.3167,-3.2202,-3.1741,-3.1705,-3.1705,-3.1705,-3.1705,-3.1705,-3.1705,-3.1705,-3.1705,-3.1705,-3.1705,-3.1705,-3.1705,-3.1705,-3.1705,-3.1705,-3.1705,-3.1705,-3.1705,-3.1705,-3.1705,-3.1705,-3.1705,-3.1392,-3.0922,-3.085,-3.029,-2.9376,-2.9244,-2.9051,-2.8655,-2.857,-2.851,-2.851,-2.851,-2.8498,-2.855,-2.855,-2.855,-2.859,-2.855,-2.8657,-2.8803,-2.8843,-2.8895,-2.8988,-2.9034,-2.8825,-2.8379,-2.9162,-2.9813,-3.01,-3.1021,-3.2566,-3.4011,-3.3465,-3.3599,-3.439,-3.5403,-3.6396,-3.7088,-3.7578,-3.8202,-3.8037,-3.7924,-3.7886,-3.8,-3.8127,-3.8202,-3.8089,-3.8089,-3.8052,-3.8165,-3.8,-3.8089,-3.8165,-3.8202,-3.8202,-3.8202,-3.8202,-3.8202,-3.8202,-3.8202,-3.8165,-3.8,-3.7491,-3.7169,-3.7053,-3.6883,-3.6557,-3.6791,-3.7232,-3.6791,-3.6122,-3.6635,-3.7078,-3.6478,-3.6082,-3.6082,-3.5642,-3.5386,-3.5142,-3.5264,-3.5588,-3.5963,-3.6162,-3.6122,-3.6517,-3.7,-3.6373,-3.5032,-3.4384,-3.4134,-3.3755,-3.2527,-3.1741,-3.1705,-3.1705,-3.1705,-3.1705,-3.1705,-3.1705,-3.1705,-3.1705,-3.1705,-3.1705,-3.1705,-3.1705,-3.1705,-3.1705,-3.1705,-3.1705,-3.1705,-3.1705,-3.1705,-3.1705,-3.1705,-3.1705,-3.144,-3.0995,-3.0958,-3.0518,-2.9893,-2.9556,-2.9268,-2.9088,-2.8715,-2.8522,-2.851,-2.851,-2.8578,-2.8685,-2.8724,-2.8803,-2.8907,-2.8946,-2.8973,-2.9013,-2.904,-2.9079,-2.9197,-2.9832,-3.005,-2.9859,-3.1213,-3.1654,-3.1343,-3.2645,-3.3756,-3.4205,-3.4614,-3.4994,-3.5697,-3.6461,-3.7273,-3.7868,-3.8086,-3.8202,-3.8202,-3.8202,-3.8202,-3.8202,-3.8202,-3.8202,-3.8202,-3.8202,-3.8202,-3.8202,-3.8202,-3.8202,-3.8202,-3.8202,-3.8202,-3.8202,-3.8202,-3.8202,-3.8202,-3.8202,-3.8202,-3.8165,-3.7962,-3.7772,-3.7682,-3.7682,-3.74,-3.7644,-3.7834,-3.74,-3.7208,-3.772,-3.7772,-3.713,-3.6961,-3.7232,-3.6635,-3.6029,-3.5749,-3.5548,-3.632,-3.6766,-3.6936,-3.6961,-3.7682,-3.8165,-3.7169,-3.591,-3.5856,-3.5682,-3.5115,-3.2454,-3.1717,-3.1705,-3.1705,-3.1705,-3.1705,-3.1705,-3.1705,-3.1705,-3.1705,-3.1705,-3.1705,-3.1705,-3.1705,-3.1705,-3.1705,-3.1705,-3.1705,-3.1705,-3.1705,-3.1705,-3.1705,-3.1705,-3.1705,-3.1536,-3.1296,-3.1247,-3.0958,-3.047,-3.0098,-2.9749,-2.9345,-2.9113,-2.8847,-2.8657,-2.8736,-2.8788,-2.8934,-2.8922,-2.9,-2.9091,-2.9104,-2.917,-2.9275,-2.9535,-2.9871,-3.038,-3.1217,-3.1586,-3.1659,-3.2384,-3.2897,-3.2861,-3.3707,-3.438,-3.4395,-3.4777,-3.5328,-3.617,-3.6693,-3.7288,-3.7984,-3.8202,-3.8202,-3.8202,-3.8202,-3.8202,-3.8202,-3.8202,-3.8202,-3.8202,-3.8202,-3.8202,-3.8202,-3.8202,-3.8202,-3.8202,-3.8202,-3.8202,-3.8202,-3.8202,-3.8202,-3.8202,-3.8202,-3.8202,-3.8202,-3.8202,-3.8127,-3.8127,-3.8202,-3.8246,-3.8289,-3.8214,-3.7797,-3.7567,-3.7925,-3.8016,-3.749,-3.7634,-3.7949,-3.7601,-3.6861,-3.6791,-3.6752,-3.7208,-3.7453,-3.7529,-3.7644,-3.7924,-3.7962,-3.7337,-3.6975,-3.6766,-3.661,-3.6108,-3.2166,-3.1705,-3.1705,-3.1705,-3.1705,-3.1705,-3.1705,-3.1705,-3.1705,-3.1705,-3.1705,-3.1705,-3.1705,-3.1705,-3.1705,-3.1705,-3.1705,-3.1705,-3.1705,-3.1705,-3.1705,-3.1705,-3.1705,-3.1705,-3.1681,-3.1621,-3.1693,-3.1428,-3.1074,-3.0941,-3.0447,-2.9927,-2.98,-2.9488,-2.9272,-2.9221,-2.919,-2.9253,-2.9167,-2.917,-2.9287,-2.9392,-2.96,-2.9793,-3.0456,-3.1193,-3.1965,-3.2684,-3.3003,-3.3017,-3.3227,-3.3638,-3.423,-3.438,-3.438,-3.4472,-3.4632,-3.5154,-3.5981,-3.6286,-3.6823,-3.7781,-3.8057,-3.8173,-3.8173,-3.8202,-3.8202,-3.8202,-3.8202,-3.8202,-3.8202,-3.8202,-3.8202,-3.8202,-3.8202,-3.8202,-3.8202,-3.8202,-3.8202,-3.8202,-3.8202,-3.8202,-3.8202,-3.8202,-3.8202,-3.8202,-3.8202,-3.8202,-3.8202,-3.8202,-3.8333,-3.8492,-3.8364,-3.8155,-3.8016,-3.8016,-3.7954,-3.7762,-3.8141,-3.8408,-3.8364,-3.7973,-3.8034,-3.8089,-3.7886,-3.7848,-3.8,-3.8127,-3.8202,-3.8075,-3.7644,-3.7323,-3.7078,-3.6961,-3.6635,-3.2166,-3.1705,-3.1705,-3.1705,-3.1705,-3.1705,-3.1705,-3.1705,-3.1705,-3.1705,-3.1705,-3.1705,-3.1705,-3.1705,-3.1705,-3.1705,-3.1705,-3.1705,-3.1705,-3.1705,-3.1705,-3.1705,-3.1717,-3.1761,-3.1705,-3.1705,-3.1705,-3.1733,-3.1651,-3.1374,-3.1156,-3.1069,-3.0633,-3.0495,-3.0323,-2.9958,-2.9902,-2.9948,-2.9665,-2.9621,-2.9893,-3.0279,-3.0558,-3.0683,-3.1365,-3.2146,-3.2791,-3.3122,-3.3485,-3.3928,-3.4079,-3.4147,-3.4346,-3.438,-3.438,-3.4501,-3.4864,-3.529,-3.559,-3.6083,-3.6635,-3.7404,-3.7665,-3.7694,-3.8173,-3.8202,-3.8202,-3.8202,-3.8202,-3.8202,-3.8202,-3.8202,-3.8202,-3.8202,-3.8202,-3.8202,-3.8202,-3.8202,-3.8202,-3.826,-3.826,-3.8231,-3.826,-3.8362,-3.8333,-3.8246,-3.826,-3.8231,-3.8289,-3.8362,-3.8565,-3.887,-3.8707,-3.8673,-3.8924,-3.8842,-3.8625,-3.8519,-3.8765,-3.8971,-3.8899,-3.8696,-3.8594,-3.8405,-3.8165,-3.8217,-3.8275,-3.8202,-3.8202,-3.8075,-3.8037,-3.7834,-3.7606,-3.7438,-3.7323,-3.1937,-3.1717,-3.1705,-3.1705,-3.1705,-3.1705,-3.1705,-3.1705,-3.1705,-3.1705,-3.1705,-3.1705,-3.1705,-3.1705,-3.1705,-3.1705,-3.1717,-3.1805,-3.1849,-3.1906,-3.1937,-3.2038,-3.2025,-3.2038,-3.1981,-3.1893,-3.1981,-3.2081,-3.2072,-3.1907,-3.1706,-3.1589,-3.1395,-3.1116,-3.0984,-3.0757,-3.0754,-3.0894,-3.0949,-3.1007,-3.1241,-3.1634,-3.1911,-3.2005,-3.242,-3.2981,-3.3673,-3.3776,-3.3997,-3.4298,-3.438,-3.438,-3.438,-3.438,-3.438,-3.4486,-3.4675,-3.5131,-3.5436,-3.5952,-3.6591,-3.7259,-3.7549,-3.7868,-3.813,-3.8202,-3.8202,-3.8202,-3.8202,-3.8202,-3.8202,-3.8202,-3.8202,-3.8202,-3.8202,-3.8202,-3.8202,-3.8202,-3.842,-3.8638,-3.8783,-3.9059,-3.9146,-3.9015,-3.9044,-3.9204,-3.9233,-3.9204,-3.9102,-3.9175,-3.9189,-3.9305,-3.9204,-3.9281,-3.9702,-3.9774,-3.96,-3.9479,-3.9518,-3.961,-3.9581,-3.9276,-3.8971,-3.8739,-3.8492,-3.8376,-3.8391,-3.8304,-3.8202,-3.8165,-3.8127,-3.8202,-3.8127,-3.7848,-3.7796,-3.1705,-3.1705,-3.1705,-3.1705,-3.1705,-3.1705,-3.1705,-3.1705,-3.1705,-3.1705,-3.1705,-3.1705,-3.1705,-3.1705,-3.1705,-3.1705,-3.1749,-3.1906,-3.2006,-3.1994,-3.2213,-3.2313,-3.2356,-3.2344,-3.2344,-3.2125,-3.2257,-3.2344,-3.2431,-3.245,-3.2247,-3.1944,-3.201,-3.1908,-3.1593,-3.1631,-3.1797,-3.1894,-3.2397,-3.2685,-3.2841,-3.3157,-3.344,-3.374,-3.3833,-3.4028,-3.4485,-3.4515,-3.4511,-3.4395,-3.4501,-3.4501,-3.4414,-3.438,-3.438,-3.438,-3.4472,-3.4791,-3.5348,-3.5851,-3.6417,-3.7201,-3.7709,-3.8072,-3.8159,-3.8202,-3.8202,-3.8202,-3.8202,-3.8202,-3.8202,-3.8202,-3.8202,-3.8202,-3.8202,-3.8202,-3.8202,-3.8217,-3.858,-3.9194,-3.9378,-3.961,-3.9958,-4.006,-4.0104,-4.0118,-4.0133,-4.0075,-3.9929,-3.9842,-3.9784,-3.9886,-3.9842,-3.9944,-4.0336,-4.0757,-4.0554,-4.0263,-4.0263,-4.0263,-4.0249,-4.0089,-3.9755,-3.9117,-3.8841,-3.871,-3.8478,-3.8275,-3.8202,-3.8202,-3.8202,-3.8202,-3.8202,-3.8202,-3.8202,-3.1705,-3.1705,-3.1705,-3.1705,-3.1705,-3.1705,-3.1705,-3.1705,-3.1705,-3.1705,-3.1705,-3.1705,-3.1705,-3.1705,-3.1705,-3.1705,-3.1749,-3.195,-3.2081,-3.2125,-3.2344,-3.2487,-3.2487,-3.2605,-3.2593,-3.255,-3.2519,-3.2519,-3.2636,-3.2655,-3.2649,-3.2759,-3.288,-3.281,-3.2832,-3.2995,-3.3149,-3.3219,-3.3686,-3.3952,-3.4077,-3.4533,-3.5026,-3.5404,-3.5417,-3.54,-3.5201,-3.5218,-3.5,-3.453,-3.4922,-3.4913,-3.4675,-3.4545,-3.4525,-3.454,-3.4569,-3.4922,-3.545,-3.561,-3.6199,-3.6968,-3.7506,-3.7796,-3.8072,-3.8202,-3.8202,-3.8202,-3.8202,-3.8202,-3.8202,-3.8202,-3.8202,-3.8202,-3.8202,-3.8202,-3.8202,-3.8333,-3.8594,-3.9281,-3.9697,-4.0104,-4.0423,-4.0684,-4.0684,-4.0626,-4.0597,-4.0408,-4.0147,-4.0133,-4.0147,-4.0321,-4.0539,-4.0713,-4.096,-4.141,-4.1541,-4.1047,-4.0931,-4.0945,-4.0931,-4.0931,-4.0583,-4.0089,-3.9436,-3.903,-3.8739,-3.8333,-3.8202,-3.8202,-3.8202,-3.8202,-3.8202,-3.8202,-3.8202,-3.1705,-3.1705,-3.1705,-3.1705,-3.1705,-3.1705,-3.1705,-3.1705,-3.1705,-3.1705,-3.1705,-3.1705,-3.1705,-3.1705,-3.1705,-3.1761,-3.1893,-3.2201,-3.2332,-3.2419,-3.2649,-3.2779,-3.2736,-3.2865,-3.2896,-3.2896,-3.2822,-3.2779,-3.2896,-3.2896,-3.3025,-3.3154,-3.3496,-3.3781,-3.394,-3.4318,-3.4526,-3.4701,-3.5131,-3.5485,-3.5495,-3.601,-3.6367,-3.628,-3.633,-3.6141,-3.5967,-3.5851,-3.572,-3.5532,-3.5691,-3.5648,-3.5473,-3.5386,-3.5401,-3.5386,-3.5357,-3.5473,-3.588,-3.6162,-3.6751,-3.7186,-3.7549,-3.7868,-3.8101,-3.8202,-3.8202,-3.8202,-3.8202,-3.8202,-3.8202,-3.8202,-3.8202,-3.8202,-3.8202,-3.8202,-3.8275,-3.8507,-3.887,-3.9305,-3.9741,-4.022,-4.0844,-4.1033,-4.1134,-4.1134,-4.1091,-4.0815,-4.0466,-4.0539,-4.0655,-4.096,-4.1221,-4.1294,-4.1453,-4.1715,-4.2049,-4.1686,-4.1482,-4.1497,-4.1526,-4.1482,-4.1468,-4.125,-4.0539,-3.9755,-3.8754,-3.8275,-3.8246,-3.8202,-3.8202,-3.8202,-3.8202,-3.8202,-3.8202,-3.1705,-3.1705,-3.1705,-3.1705,-3.1749,-3.1749,-3.1793,-3.1849,-3.1805,-3.1761,-3.1761,-3.1761,-3.1761,-3.1805,-3.1849,-3.1937,-3.2125,-3.2506,-3.2624,-3.2723,-3.2939,-3.3081,-3.3124,-3.3124,-3.3081,-3.3038,-3.3081,-3.3124,-3.3124,-3.3326,-3.3368,-3.3696,-3.423,-3.4634,-3.4787,-3.5373,-3.5749,-3.6108,-3.6674,-3.7116,-3.7195,-3.7336,-3.7259,-3.6765,-3.6678,-3.6693,-3.6548,-3.6519,-3.6373,-3.6286,-3.6359,-3.6431,-3.6359,-3.6548,-3.6678,-3.6649,-3.6475,-3.6373,-3.662,-3.6881,-3.723,-3.7578,-3.7941,-3.813,-3.8202,-3.8202,-3.8202,-3.8202,-3.8202,-3.8202,-3.8202,-3.8202,-3.8202,-3.8202,-3.8202,-3.8231,-3.8318,-3.8492,-3.8681,-3.9146,-3.9712,-4.0307,-4.0916,-4.1482,-4.1599,-4.1628,-4.1584,-4.1337,-4.1062,-4.1221,-4.1395,-4.1715,-4.1918,-4.1903,-4.1932,-4.1889,-4.2078,-4.1947,-4.1845,-4.1845,-4.1918,-4.1976,-4.1918,-4.1802,-4.1584,-4.0728,-3.9494,-3.8391,-3.8246,-3.8202,-3.8202,-3.8202,-3.8202,-3.8202,-3.8202,-3.1705,-3.1705,-3.1705,-3.1805,-3.1937,-3.1937,-3.2081,-3.2257,-3.2038,-3.195,-3.1981,-3.1994,-3.1994,-3.2025,-3.2201,-3.23,-3.2431,-3.2593,-3.2754,-3.2797,-3.2995,-3.3124,-3.3124,-3.3124,-3.321,-3.324,-3.3253,-3.3124,-3.3411,-3.3979,-3.423,-3.4384,-3.5006,-3.5467,-3.5561,-3.632,-3.6713,-3.6897,-3.7606,-3.8,-3.7985,-3.8011,-3.797,-3.7912,-3.7825,-3.7622,-3.7244,-3.7157,-3.6997,-3.6548,-3.6939,-3.6867,-3.6606,-3.7433,-3.7854,-3.7651,-3.7114,-3.6562,-3.7085,-3.7331,-3.7593,-3.7883,-3.8144,-3.8202,-3.8202,-3.8202,-3.8202,-3.8202,-3.8202,-3.8202,-3.8202,-3.8202,-3.8202,-3.8202,-3.8202,-3.8202,-3.826,-3.8333,-3.8536,-3.8913,-3.945,-4.0234,-4.096,-4.1555,-4.2063,-4.2078,-4.2034,-4.1758,-4.1628,-4.1715,-4.1773,-4.199,-4.2092,-4.2092,-4.2092,-4.2092,-4.2092,-4.2092,-4.2092,-4.2092,-4.2092,-4.2092,-4.2092,-4.1976,-4.186,-4.1802,-4.0945,-3.9871,-3.8754,-3.8202,-3.8202,-3.8202,-3.8202,-3.8202,-3.8202,-3.1705,-3.1705,-3.1849,-3.1862,-3.1849,-3.2125,-3.2213,-3.2169,-3.2213,-3.2213,-3.2225,-3.2225,-3.2213,-3.23,-3.2463,-3.255,-3.2605,-3.281,-3.2939,-3.2939,-3.3038,-3.3124,-3.3124,-3.3167,-3.324,-3.3781,-3.3907,-3.4246,-3.4371,-3.4426,-3.4551,-3.5169,-3.5883,-3.636,-3.6385,-3.7193,-3.7515,-3.772,-3.8,-3.8202,-3.8202,-3.8202,-3.8202,-3.8202,-3.8202,-3.8028,-3.7883,-3.781,-3.7709,-3.7433,-3.7723,-3.7694,-3.7535,-3.7883,-3.8188,-3.813,-3.7738,-3.7564,-3.7752,-3.7781,-3.7941,-3.8086,-3.8202,-3.8202,-3.8202,-3.8202,-3.8202,-3.8202,-3.8202,-3.8202,-3.8202,-3.8202,-3.8202,-3.8202,-3.8202,-3.8202,-3.8202,-3.8202,-3.8362,-3.8768,-3.9276,-4.0191,-4.1033,-4.1628,-4.2063,-4.2092,-4.2092,-4.1961,-4.1889,-4.1947,-4.199,-4.2049,-4.2092,-4.2092,-4.2092,-4.2092,-4.2092,-4.2092,-4.2092,-4.2092,-4.2092,-4.2092,-4.2092,-4.2092,-4.2005,-4.1961,-4.1961,-4.1018,-3.9581,-3.8826,-3.8202,-3.8202,-3.8202,-3.8202,-3.8202,-3.1761,-3.1805,-3.195,-3.1981,-3.1969,-3.2332,-3.2431,-3.2344,-3.2431,-3.2475,-3.2475,-3.2475,-3.2519,-3.2605,-3.2723,-3.2797,-3.281,-3.3025,-3.3081,-3.3124,-3.3167,-3.3283,-3.3454,-3.3539,-3.3937,-3.4703,-3.469,-3.5128,-3.548,-3.5534,-3.5507,-3.5949,-3.6791,-3.7169,-3.7376,-3.7758,-3.8075,-3.8127,-3.8165,-3.8202,-3.8202,-3.8202,-3.8202,-3.8202,-3.8202,-3.8202,-3.8202,-3.8173,-3.8159,-3.813,-3.8115,-3.8072,-3.8086,-3.8115,-3.8202,-3.8188,-3.8028,-3.8043,-3.8101,-3.813,-3.8202,-3.8202,-3.8202,-3.8202,-3.8202,-3.8202,-3.8202,-3.8202,-3.8202,-3.8202,-3.8202,-3.8202,-3.8202,-3.8202,-3.8202,-3.8202,-3.8231,-3.8318,-3.8362,-3.858,-3.9262,-4.0365,-4.1134,-4.1729,-4.202,-4.2078,-4.2092,-4.2092,-4.2092,-4.2092,-4.2092,-4.2092,-4.2092,-4.2092,-4.2092,-4.2092,-4.2092,-4.2092,-4.2092,-4.2092,-4.2092,-4.2092,-4.2092,-4.2092,-4.2092,-4.2063,-4.202,-4.1207,-4.0365,-3.9421,-3.8609,-3.8304,-3.8202,-3.8231,-3.8231,-3.1994,-3.1994,-3.1994,-3.2245,-3.2581,-3.2624,-3.281,-3.2865,-3.2766,-3.268,-3.2692,-3.268,-3.281,-3.2995,-3.2982,-3.3025,-3.3081,-3.3068,-3.3197,-3.321,-3.321,-3.3725,-3.4105,-3.4426,-3.4703,-3.544,-3.5548,-3.6002,-3.661,-3.6688,-3.6702,-3.6936,-3.7529,-3.7924,-3.8052,-3.8089,-3.8202,-3.8202,-3.8202,-3.8202,-3.8202,-3.8202,-3.8202,-3.8202,-3.8202,-3.8202,-3.8202,-3.8202,-3.8202,-3.8202,-3.8202,-3.8202,-3.8202,-3.8202,-3.8202,-3.8202,-3.8202,-3.8202,-3.8202,-3.8202,-3.8202,-3.8202,-3.8202,-3.8202,-3.8202,-3.8202,-3.8202,-3.8202,-3.8202,-3.8202,-3.8202,-3.8202,-3.8202,-3.8246,-3.8318,-3.8463,-3.8507,-3.8565,-3.8594,-3.8551,-3.932,-4.0568,-4.1294,-4.1874,-4.2034,-4.2078,-4.2092,-4.2092,-4.2092,-4.2092,-4.2092,-4.2092,-4.2092,-4.2092,-4.2092,-4.2092,-4.2092,-4.2092,-4.2092,-4.2092,-4.2092,-4.2092,-4.2092,-4.2092,-4.2092,-4.2092,-4.2034,-4.1453,-4.0742,-3.9712,-3.9044,-3.8797,-3.8536,-3.8478,-3.8434,-3.23,-3.2407,-3.2419,-3.2463,-3.2562,-3.2822,-3.2896,-3.2896,-3.2939,-3.2939,-3.2952,-3.2952,-3.2982,-3.3081,-3.3124,-3.3124,-3.321,-3.3709,-3.3823,-3.4147,-3.4413,-3.48,-3.5128,-3.5251,-3.5561,-3.6241,-3.6439,-3.6869,-3.7606,-3.7606,-3.7682,-3.7848,-3.8052,-3.8127,-3.8202,-3.8202,-3.8202,-3.8202,-3.8202,-3.8202,-3.8202,-3.8202,-3.8202,-3.8202,-3.8202,-3.8202,-3.8202,-3.8202,-3.8202,-3.8202,-3.8202,-3.8202,-3.8202,-3.8202,-3.8202,-3.8202,-3.8202,-3.8202,-3.8202,-3.8202,-3.8202,-3.8202,-3.8202,-3.8202,-3.8202,-3.8202,-3.8202,-3.8202,-3.8275,-3.8376,-3.8217,-3.8217,-3.8217,-3.8304,-3.8492,-3.8725,-3.887,-3.8986,-3.9117,-3.9218,-3.9987,-4.1047,-4.1584,-4.2049,-4.2078,-4.2092,-4.2092,-4.2092,-4.2092,-4.2092,-4.2092,-4.2092,-4.2092,-4.2092,-4.2092,-4.2092,-4.2092,-4.2092,-4.2092,-4.2092,-4.2092,-4.2092,-4.2092,-4.2092,-4.2092,-4.2092,-4.2005,-4.1802,-4.1178,-4.0292,-3.9741,-3.9378,-3.9117,-3.8841,-3.8812,-3.255,-3.2711,-3.281,-3.2723,-3.2649,-3.2952,-3.2995,-3.2853,-3.3025,-3.3124,-3.3124,-3.3124,-3.3124,-3.3124,-3.3124,-3.3326,-3.3611,-3.4105,-3.4468,-3.4814,-3.5237,-3.5749,-3.5909,-3.6108,-3.6439,-3.7092,-3.7337,-3.7682,-3.8089,-3.8202,-3.8127,-3.8127,-3.8202,-3.8202,-3.8202,-3.8202,-3.8202,-3.8202,-3.8202,-3.8202,-3.8202,-3.8202,-3.8202,-3.8202,-3.8202,-3.8202,-3.8202,-3.8202,-3.8202,-3.8202,-3.8202,-3.8202,-3.8202,-3.8202,-3.8202,-3.8202,-3.8202,-3.8202,-3.8202,-3.8202,-3.8202,-3.8202,-3.8202,-3.8202,-3.8202,-3.8202,-3.8202,-3.8246,-3.8463,-3.8696,-3.8594,-3.8739,-3.8928,-3.9146,-3.9247,-3.945,-3.9523,-3.9625,-3.9784,-3.9958,-4.0728,-4.1279,-4.1715,-4.2092,-4.2092,-4.2092,-4.2092,-4.2092,-4.2092,-4.2092,-4.2092,-4.2092,-4.2092,-4.2092,-4.2092,-4.2092,-4.2092,-4.2092,-4.2092,-4.2092,-4.2092,-4.2092,-4.2092,-4.2092,-4.2092,-4.2092,-4.202,-4.1903,-4.1512,-4.096,-4.0394,-3.9799,-3.9683,-3.945,-3.945,-3.2711,-3.2723,-3.2995,-3.3081,-3.3038,-3.3081,-3.3081,-3.3038,-3.3081,-3.3124,-3.3124,-3.3124,-3.3167,-3.321,-3.3338,-3.3696,-3.4343,-3.4592,-3.495,-3.5561,-3.5989,-3.6267,-3.6635,-3.7014,-3.7232,-3.7962,-3.8052,-3.8,-3.8202,-3.8202,-3.8202,-3.8202,-3.8202,-3.8202,-3.8202,-3.8202,-3.8202,-3.8202,-3.8202,-3.8202,-3.8202,-3.8202,-3.8202,-3.8202,-3.8202,-3.8202,-3.8202,-3.8202,-3.8202,-3.8202,-3.8202,-3.8202,-3.8202,-3.8202,-3.8202,-3.8202,-3.8202,-3.8202,-3.8202,-3.8202,-3.8202,-3.8202,-3.8202,-3.8202,-3.8202,-3.8202,-3.8304,-3.8449,-3.916,-3.9509,-3.9581,-3.9581,-3.9726,-3.9842,-3.9915,-4.0118,-4.0176,-4.0437,-4.0641,-4.0757,-4.0989,-4.1337,-4.1773,-4.2092,-4.2092,-4.2092,-4.2092,-4.2092,-4.2092,-4.2092,-4.2092,-4.2092,-4.2092,-4.2092,-4.2092,-4.2092,-4.2092,-4.2092,-4.2092,-4.2092,-4.2092,-4.2092,-4.2092,-4.2092,-4.2092,-4.2092,-4.2092,-4.2078,-4.17,-4.1337,-4.067,-4.0176,-4.0104,-4.0075,-4.0089,-3.2952,-3.2982,-3.3081,-3.3124,-3.3124,-3.3124,-3.3124,-3.3124,-3.3124,-3.3124,-3.3124,-3.3124,-3.3484,-3.3781,-3.3992,-3.4384,-3.5169,-3.5936,-3.6373,-3.6439,-3.6908,-3.7438,-3.7682,-3.772,-3.7872,-3.8127,-3.8202,-3.8202,-3.8202,-3.8202,-3.8202,-3.8202,-3.8202,-3.8202,-3.8202,-3.8202,-3.8202,-3.8202,-3.8202,-3.8202,-3.8202,-3.8202,-3.8202,-3.8202,-3.8202,-3.8202,-3.8202,-3.8202,-3.8202,-3.8202,-3.8202,-3.8202,-3.8202,-3.8202,-3.8202,-3.8202,-3.8202,-3.8202,-3.8202,-3.8202,-3.8202,-3.8202,-3.8202,-3.8202,-3.8202,-3.8202,-3.842,-3.8913,-3.9697,-3.9973,-3.9929,-3.9929,-4.0031,-4.0133,-4.0292,-4.0655,-4.0887,-4.1308,-4.1599,-4.1642,-4.1787,-4.1744,-4.199,-4.2092,-4.2092,-4.2092,-4.2092,-4.2092,-4.2092,-4.2092,-4.2092,-4.2092,-4.2092,-4.2092,-4.2092,-4.2092,-4.2092,-4.2092,-4.2092,-4.2092,-4.2092,-4.2092,-4.2092,-4.2092,-4.2092,-4.2092,-4.2092,-4.2078,-4.202,-4.1657,-4.1105,-4.0786,-4.0771,-4.0757,-4.0757,-3.3124,-3.3124,-3.3124,-3.3295,-3.3441,-3.324,-3.324,-3.3569,-3.3797,-3.3839,-3.3611,-3.3569,-3.3823,-3.4272,-3.4481,-3.5155,-3.6002,-3.657,-3.7246,-3.7337,-3.7848,-3.8052,-3.8127,-3.8202,-3.8127,-3.8202,-3.8202,-3.8202,-3.8202,-3.8202,-3.8202,-3.8202,-3.8202,-3.8202,-3.8202,-3.8202,-3.8202,-3.8202,-3.8202,-3.8202,-3.8202,-3.8202,-3.8202,-3.8202,-3.8202,-3.8202,-3.8202,-3.8202,-3.8202,-3.8202,-3.8202,-3.8202,-3.8202,-3.8202,-3.8202,-3.8202,-3.8202,-3.8202,-3.8202,-3.8202,-3.8202,-3.8202,-3.8202,-3.8202,-3.8202,-3.8202,-3.8594,-3.9175,-4.0104,-4.0423,-4.0495,-4.0495,-4.0713,-4.0844,-4.096,-4.1337,-4.1468,-4.1874,-4.1947,-4.2049,-4.2078,-4.2092,-4.2092,-4.2092,-4.2092,-4.2092,-4.2092,-4.2092,-4.2092,-4.2092,-4.2092,-4.2092,-4.2092,-4.2092,-4.2092,-4.2092,-4.2092,-4.2092,-4.2092,-4.2092,-4.2092,-4.2092,-4.2092,-4.2092,-4.2092,-4.2092,-4.2092,-4.2063,-4.2034,-4.1961,-4.17,-4.1497,-4.1453,-4.1395,-4.1337,-3.3167,-3.3154,-3.3124,-3.3666,-3.4147,-3.3738,-3.381,-3.4454,-3.5183,-3.5074,-3.4426,-3.4426,-3.4592,-3.4592,-3.4592,-3.5507,-3.6688,-3.7014,-3.7453,-3.7886,-3.8165,-3.8202,-3.8202,-3.8202,-3.8202,-3.8202,-3.8202,-3.8202,-3.8202,-3.8202,-3.8202,-3.8202,-3.8202,-3.8202,-3.8202,-3.8202,-3.8202,-3.8202,-3.8202,-3.8202,-3.8202,-3.8202,-3.8202,-3.8202,-3.8202,-3.8202,-3.8202,-3.8202,-3.8202,-3.8202,-3.8202,-3.8202,-3.8202,-3.8202,-3.8202,-3.8202,-3.8202,-3.8202,-3.8202,-3.8202,-3.8202,-3.8202,-3.8202,-3.8202,-3.8202,-3.8246,-3.8652,-3.961,-4.0655,-4.1018,-4.1265,-4.1541,-4.1802,-4.1845,-4.1845,-4.1961,-4.1961,-4.2063,-4.2063,-4.2092,-4.2092,-4.2092,-4.2092,-4.2092,-4.2092,-4.2092,-4.2092,-4.2092,-4.2092,-4.2092,-4.2092,-4.2092,-4.2092,-4.2092,-4.2092,-4.2092,-4.2092,-4.2092,-4.2092,-4.2092,-4.2092,-4.2092,-4.2092,-4.2092,-4.2092,-4.2092,-4.2092,-4.2092,-4.2078,-4.199,-4.1918,-4.1903,-4.1758,-4.1831,-4.1831,-3.4034,-3.4021,-3.4034,-3.4189,-3.4509,-3.5413,-3.5655,-3.5359,-3.5534,-3.5413,-3.5278,-3.5278,-3.5534,-3.6149,-3.6189,-3.6858,-3.7414,-3.7848,-3.7962,-3.8165,-3.8202,-3.8202,-3.8202,-3.8202,-3.8202,-3.8202,-3.8202,-3.8202,-3.8202,-3.8202,-3.8202,-3.8202,-3.8202,-3.8202,-3.8202,-3.8202,-3.8202,-3.8202,-3.8202,-3.8202,-3.8202,-3.8202,-3.8202,-3.8202,-3.8202,-3.8202,-3.8202,-3.8202,-3.8202,-3.8202,-3.8202,-3.8202,-3.8202,-3.8202,-3.8202,-3.8202,-3.8202,-3.8202,-3.8202,-3.8202,-3.8202,-3.8202,-3.8202,-3.8202,-3.8202,-3.8347,-3.8739,-3.9944,-4.1091,-4.1555,-4.17,-4.1918,-4.2092,-4.2092,-4.2092,-4.2092,-4.2092,-4.2092,-4.2092,-4.2092,-4.2092,-4.2092,-4.2092,-4.2092,-4.2092,-4.2092,-4.2092,-4.2092,-4.2092,-4.2092,-4.2092,-4.2092,-4.2092,-4.2092,-4.2092,-4.2092,-4.2092,-4.2092,-4.2092,-4.2092,-4.2092,-4.2092,-4.2092,-4.2092,-4.2092,-4.2092,-4.2092,-4.2092,-4.2092,-4.2092,-4.2034,-4.2063,-4.2092,-4.2092,-4.2092,-3.4896,-3.4855,-3.4855,-3.506,-3.5588,-3.6819,-3.7078,-3.6674,-3.6621,-3.6478,-3.6148,-3.6108,-3.6413,-3.6741,-3.6858,-3.7299,-3.8089,-3.8127,-3.8165,-3.8165,-3.8202,-3.8202,-3.8202,-3.8202,-3.8202,-3.8202,-3.8202,-3.8202,-3.8202,-3.8202,-3.8202,-3.8202,-3.8202,-3.8202,-3.8202,-3.8202,-3.8202,-3.8202,-3.8202,-3.8202,-3.8202,-3.8202,-3.8202,-3.8202,-3.8202,-3.8202,-3.8202,-3.8202,-3.8202,-3.8202,-3.8202,-3.8202,-3.8202,-3.8202,-3.8202,-3.8202,-3.8202,-3.8202,-3.8202,-3.8202,-3.8202,-3.8202,-3.8217,-3.8391,-3.8405,-3.8492,-3.9305,-4.0307,-4.1308,-4.2063,-4.2078,-4.2092,-4.2092,-4.2092,-4.2092,-4.2092,-4.2092,-4.2092,-4.2092,-4.2092,-4.2092,-4.2092,-4.2092,-4.2092,-4.2092,-4.2092,-4.2092,-4.2092,-4.2092,-4.2092,-4.2092,-4.2092,-4.2092,-4.2092,-4.2063,-4.199,-4.1961,-4.1976,-4.2092,-4.2092,-4.2078,-4.2078,-4.2049,-4.2063,-4.2092,-4.2092,-4.2092,-4.2092,-4.2092,-4.2092,-4.2092,-4.2092,-4.2092,-4.2092,-4.2092,-3.5695,-3.5695,-3.5682,-3.6188,-3.7053,-3.781,-3.8127,-3.8202,-3.8052,-3.7734,-3.7092,-3.7014,-3.7053,-3.7208,-3.7208,-3.7515,-3.8037,-3.8202,-3.8202,-3.8202,-3.8202,-3.8202,-3.8202,-3.8202,-3.8202,-3.8202,-3.8202,-3.8202,-3.8202,-3.8202,-3.8202,-3.8202,-3.8202,-3.8202,-3.8202,-3.8202,-3.8202,-3.8202,-3.8202,-3.8202,-3.8202,-3.8202,-3.8202,-3.8202,-3.8202,-3.8202,-3.8202,-3.8202,-3.8202,-3.8202,-3.8202,-3.8202,-3.8202,-3.8202,-3.8202,-3.8202,-3.8202,-3.8202,-3.8202,-3.8202,-3.8202,-3.8202,-3.8217,-3.8638,-3.8812,-3.8913,-3.9697,-4.0597,-4.1584,-4.202,-4.2092,-4.2092,-4.2092,-4.2092,-4.2092,-4.2092,-4.2092,-4.2092,-4.2092,-4.2092,-4.2092,-4.2092,-4.2092,-4.2092,-4.2092,-4.2092,-4.2092,-4.2092,-4.2092,-4.2092,-4.2092,-4.2092,-4.2092,-4.2034,-4.1802,-4.1744,-4.1758,-4.1831,-4.1816,-4.1671,-4.1366,-4.1613,-4.202,-4.2049,-4.2092,-4.2092,-4.2092,-4.2092,-4.2092,-4.2092,-4.2092,-4.2092,-4.2092,-4.2092,-4.2092,-3.657,-3.6557,-3.661,-3.7092,-3.7848,-3.8089,-3.8202,-3.8202,-3.8202,-3.8089,-3.7886,-3.7886,-3.7848,-3.7772,-3.7772,-3.8,-3.8127,-3.8202,-3.8202,-3.8202,-3.8202,-3.8202,-3.8202,-3.8202,-3.8202,-3.8202,-3.8202,-3.8202,-3.8202,-3.8202,-3.8202,-3.8202,-3.8202,-3.8202,-3.8202,-3.8202,-3.8217,-3.8318,-3.8333,-3.8362,-3.8405,-3.8275,-3.8202,-3.826,-3.8289,-3.8362,-3.8347,-3.8289,-3.8246,-3.8202,-3.8202,-3.8202,-3.8202,-3.8202,-3.8202,-3.8202,-3.8202,-3.8202,-3.8202,-3.8217,-3.8246,-3.826,-3.8405,-3.9,-3.9378,-3.9538,-4.0046,-4.0945,-4.1584,-4.1889,-4.2092,-4.2092,-4.2092,-4.2092,-4.2092,-4.2092,-4.2092,-4.2092,-4.2092,-4.2092,-4.2092,-4.2092,-4.2092,-4.2092,-4.2092,-4.2092,-4.2092,-4.2092,-4.2092,-4.2092,-4.2119,-4.2133,-4.2107,-4.199,-4.1671,-4.141,-4.1395,-4.1047,-4.0844,-4.0728,-4.0684,-4.1149,-4.1642,-4.1961,-4.2092,-4.2092,-4.2092,-4.2092,-4.2092,-4.2092,-4.2092,-4.2092,-4.2092,-4.2092,-4.2092,-3.7054,-3.7097,-3.7391,-3.7772,-3.8165,-3.8202,-3.8202,-3.8202,-3.8202,-3.8202,-3.8202,-3.8202,-3.8202,-3.8202,-3.8202,-3.8202,-3.8202,-3.8202,-3.8202,-3.8202,-3.8202,-3.8202,-3.8202,-3.8202,-3.8202,-3.8202,-3.8202,-3.8202,-3.8202,-3.8202,-3.8202,-3.8202,-3.8202,-3.8202,-3.8202,-3.8231,-3.8391,-3.8652,-3.8623,-3.8768,-3.887,-3.8826,-3.887,-3.8899,-3.903,-3.9,-3.9044,-3.9044,-3.9059,-3.8928,-3.887,-3.842,-3.8318,-3.8202,-3.8202,-3.8202,-3.8202,-3.8202,-3.8202,-3.8231,-3.8333,-3.8478,-3.8638,-3.9262,-4.0147,-4.035,-4.0525,-4.1337,-4.1758,-4.2092,-4.2092,-4.2092,-4.2092,-4.2092,-4.2092,-4.2092,-4.2092,-4.2092,-4.2092,-4.2092,-4.2092,-4.2092,-4.2092,-4.2092,-4.2092,-4.2092,-4.2092,-4.216,-4.2175,-4.2073,-4.2087,-4.2058,-4.1974,-4.1744,-4.1381,-4.112,-4.096,-4.0539,-3.9958,-4.0292,-4.0539,-4.0887,-4.1265,-4.1686,-4.1976,-4.2092,-4.2092,-4.2092,-4.2092,-4.2092,-4.2092,-4.2092,-4.2092,-4.2092,-4.2092,-3.7193,-3.7389,-3.7918,-3.8202,-3.8202,-3.8202,-3.8202,-3.8202,-3.8202,-3.8202,-3.8202,-3.8202,-3.8202,-3.8202,-3.8202,-3.8202,-3.8202,-3.8202,-3.8202,-3.8202,-3.8202,-3.8202,-3.8202,-3.8202,-3.8202,-3.8202,-3.8202,-3.8202,-3.8202,-3.8202,-3.8202,-3.8202,-3.8202,-3.8202,-3.8217,-3.8376,-3.8623,-3.9,-3.9247,-3.9639,-3.9712,-3.9654,-3.9668,-3.9886,-4.0104,-4.0104,-4.0075,-4.0075,-4.0075,-3.9886,-3.9479,-3.8899,-3.8522,-3.8362,-3.8289,-3.8275,-3.8202,-3.8202,-3.8202,-3.8202,-3.8594,-3.8942,-3.9146,-3.9668,-4.0539,-4.0902,-4.1062,-4.1512,-4.1932,-4.2092,-4.2092,-4.2092,-4.2092,-4.2092,-4.2092,-4.2092,-4.2092,-4.2092,-4.2092,-4.2092,-4.2078,-4.2078,-4.2092,-4.2092,-4.2078,-4.2133,-4.216,-4.2242,-4.2266,-4.205,-4.1922,-4.1779,-4.1637,-4.1404,-4.1087,-4.0626,-4.035,-3.9799,-3.9363,-3.99,-4.0292,-4.0292,-4.067,-4.1526,-4.1787,-4.186,-4.202,-4.2092,-4.2092,-4.2092,-4.2092,-4.2092,-4.2092,-4.2092,-4.2092,-3.6823,-3.736,-3.7955,-3.8202,-3.8202,-3.8202,-3.8202,-3.8202,-3.8202,-3.8202,-3.8202,-3.8202,-3.8202,-3.8202,-3.8202,-3.8202,-3.8202,-3.8202,-3.8202,-3.8202,-3.8202,-3.8202,-3.8202,-3.8202,-3.8202,-3.8202,-3.8202,-3.8202,-3.8202,-3.8202,-3.8202,-3.8202,-3.8202,-3.8246,-3.8318,-3.8594,-3.9073,-3.945,-3.9857,-4.0234,-4.0539,-4.0408,-4.0046,-4.0075,-4.0104,-4.0104,-4.0089,-4.0104,-4.0089,-4.0046,-3.9958,-3.9334,-3.8971,-3.871,-3.8492,-3.8275,-3.8202,-3.8289,-3.8304,-3.8246,-3.8609,-3.9363,-3.9581,-3.9871,-4.0481,-4.0713,-4.1091,-4.1773,-4.2092,-4.2092,-4.2092,-4.2092,-4.2092,-4.2092,-4.2092,-4.2092,-4.2092,-4.2092,-4.2092,-4.2049,-4.2061,-4.209,-4.216,-4.2146,-4.2087,-4.2129,-4.2208,-4.2275,-4.2225,-4.2038,-4.1737,-4.1522,-4.1306,-4.1055,-4.0713,-3.9958,-3.9538,-3.8986,-3.8739,-3.9175,-3.9392,-3.932,-3.9842,-4.0873,-4.1366,-4.1497,-4.1686,-4.1961,-4.2092,-4.2092,-4.2092,-4.2092,-4.2092,-4.2092,-4.2092]},{"header":{"parameterUnit":"m.s-1","parameterCategory":1,"la1":31.0,"la2":29.5877,"lo1":-88.7671,"lo2":-86.6584,"dy":0.0162,"dx":0.0185,"nx":115,"ny":88,"refTime":"2024-07-16T06:00:00:Z","depth":0,"parameterNumber":3,"parameterNumberName":"V-component_of_WINDS"},"data":[0.0,0.0,0.0,0.0,0.0,0.0,0.0,0.0,0.0,0.0,0.0,0.0,0.0,0.0,0.0,0.0,0.0,0.0,0.0,0.0,0.0,0.0,0.0,0.0,0.0,0.0,0.0,0.0,0.0,0.0,0.0,0.0,0.0,0.0,0.0,0.0,0.0,0.0,0.0,0.0,0.0,0.0,0.0,0.0,0.0,0.0,0.0,0.0,0.0,0.0,0.0,0.0,0.0,0.0,0.0,0.0,0.0,0.0,0.0,0.0,0.0,0.0,0.0,0.0,0.0,0.0,0.0,0.0,0.0,0.0,0.0,0.0,0.0,0.0,0.0,0.0,0.0,0.0,0.0,0.0,0.0,0.0,0.0,0.0,0.0,0.0,0.0,0.0,0.0,0.0,0.0,0.0,0.0,0.0,0.0,0.0,0.0,0.0,0.0,0.0,0.0,0.0,0.0,0.0,0.0,0.0,0.0,0.0,0.0,0.0,0.0,0.0,0.0,0.0,0.0,0.0,0.0,0.0,0.0,0.0,0.0,0.0,0.0,0.0,0.0,0.0,0.0,0.0,0.0,0.0,0.0,0.0,0.0,0.0,0.0,0.0,0.0,0.0,0.0,0.0,0.0,0.0,0.0,0.0,0.0,0.0,0.0,0.0,0.0,0.0,0.0,0.0,0.0,0.0,0.0,0.0,0.0,0.0,0.0,0.0,0.0,0.0,0.0,0.0,0.0,0.0,0.0,0.0,0.0,0.0,0.0,0.0,0.0,0.0,0.0,0.0,0.0,0.0,0.0,0.0,0.0,0.0,0.0,0.0,0.0,0.0,0.0,0.0,0.0,0.0,0.0,0.0,0.0,0.0,0.0,0.0,0.0,0.0,0.0,0.0,0.0,0.0,0.0,0.0,0.0,0.0,0.0,0.0,0.0,0.0,0.0,0.0,0.0,0.0,0.0,0.0,0.0,0.0,0.0,0.0,0.0,0.0,0.0,0.0,0.0,0.0,0.0,0.0,0.0,0.0,0.0,0.0,0.0,0.0,0.0,0.0,0.0,0.0,0.0,0.0,0.0,0.0,0.0,0.0,0.0,0.0,0.0,0.0,0.0,0.0,0.0,0.0,0.0,0.0,0.0,0.0,0.0,0.0,0.0,0.0,0.0,0.0,0.0,0.0,0.0,0.0,0.0,0.0,0.0,0.0,0.0,0.0,0.0,0.0,0.0,0.0,0.0,0.0,0.0,0.0,0.0,0.0,0.0,0.0,0.0,0.0,0.0,0.0,0.0,0.0,0.0,0.0,0.0,0.0,0.0,0.0,0.0,0.0,0.0,0.0,0.0,0.0,0.0,0.0,0.0,0.0,0.0,0.0,0.0,0.0,0.0,0.0,0.0,0.0,0.0,0.0,0.0,0.0,0.0,0.0,0.0,0.0,0.0,0.0,0.0,0.0,0.0,0.0,0.0,0.0,0.0,0.0,0.0,0.0,0.0,0.0,0.0,0.0,0.0,0.0,0.0,0.0,0.0,0.0,0.0,0.0,0.0,0.0,0.0,0.0,0.0,0.0,0.0,0.0,0.0,0.0,0.0,0.0,0.0,0.0,0.0,0.0,0.0,0.0,0.0,0.0,0.0,0.0,0.0,0.0,0.0,0.0,0.0,0.0,0.0,0.0,0.0,0.0,0.0,0.0,0.0,0.0,0.0,0.0,0.0,0.0,0.0,0.0,0.0,0.0,0.0,0.0,0.0,0.0,0.0,0.0,0.0,0.0,0.0,0.0,0.0,0.0,0.0,0.0,0.0,0.0,0.0,0.0,0.0,0.0,0.0,0.0,0.0,0.0,0.0,0.0,0.0,0.0,0.0,0.0,0.0,0.0,0.0,0.0,0.0,0.0,0.0,0.0,0.0,0.0,0.0,0.0,0.0,0.0,0.0,0.0,0.0,0.0,0.0,0.0,0.0,0.0,0.0,0.0,0.0,0.0,0.0,0.0,0.0,0.0,0.0,0.0,0.0,0.0,0.0,0.0,0.0,0.0,0.0,0.0,0.0,0.0,0.0,0.0,0.0,0.0,0.0,0.0,0.0,0.0,0.0,0.0,0.0,0.0,0.0,0.0,0.0,0.0,0.0,0.0,0.0,0.0,0.0,0.0,0.0,0.0,0.0,0.0,0.0,0.0,0.0,0.0,0.0,0.0,0.0,0.0,0.0,0.0,0.0,0.0,0.0,0.0,0.0,0.0,0.0,0.0,0.0,0.0,0.0,0.0,0.0,0.0,0.0,0.0,0.0,0.0,0.0,0.0,0.0,0.0,0.0,0.0,0.0,0.0,0.0,0.0,0.0,0.0,0.0,0.0,0.0,0.0,0.0,0.0,0.0,0.0,0.0,0.0,0.0,0.0,0.0,0.0,0.0,0.0,0.0,0.0,0.0,0.0,0.0,0.0,0.0,0.0,0.0,0.0,0.0,0.0,0.0,0.0,0.0,0.0,0.0,0.0,0.0,0.0,0.0,0.0,0.0,0.0,0.0,0.0,0.0,0.0,0.0,0.0,0.0,0.0,0.0,0.0,0.0,0.0,0.0,0.0,0.0,0.0,0.0,0.0,0.0,0.0,0.0,0.0,0.0,0.0,0.0,0.0,0.0,0.0,0.0,0.0,0.0,0.0,0.0,0.0,0.0,0.0,0.0,0.0,0.0,0.0,0.0,0.0,0.0,0.0,0.0,0.0,0.0,0.0,0.0,0.0,0.0,0.0,0.0,0.0,0.0,0.0,0.0,0.0,0.0,0.0,0.0,0.0,0.0,0.0,0.0,0.0,0.0,0.0,0.0,0.0,0.0,0.0,0.0,0.0,0.0,0.0,0.0,0.0,0.0,0.0,0.0,0.0,0.0,0.0,0.0,0.0,0.0,0.0,0.0,0.0,0.0,0.0,0.0,0.0,0.0,0.0,0.0,0.0,0.0,0.0,0.0,0.0,0.0,0.0,0.0,0.0,0.0,0.0,0.0,0.0,0.0,0.0,0.0,0.0,0.0,0.0,0.0,0.0,0.0,0.0,0.0,0.0,0.0,0.0,0.0,0.0,0.0,0.0,0.0,0.0,0.0,0.0,0.0,0.0,0.0,0.0,0.0,0.0,0.0,0.0,0.0,0.0,0.0,0.0,0.0,0.0,0.0,0.0,0.0,0.0,0.0,0.0,0.0,0.0,0.0,0.0,0.0,0.0,0.0,0.0,0.0,0.0,0.0,0.0,0.0,0.0,0.0,0.0,0.0,0.0,0.0,0.0,0.0,0.0,0.0,0.0,0.0,0.0,0.0,0.0,0.0,0.0,0.0,0.0,0.0,0.0,0.0,0.0,0.0,0.0,0.0,0.0,0.0,0.0,0.0,0.0,0.0,0.0,0.0,0.0,0.0,0.0,0.0,0.0,0.0,0.0,0.0,0.0,0.0,0.0,0.0,0.0,0.0,0.0,0.0,0.0,0.0,0.0,0.0,0.0,0.0,0.0,0.0,0.0,0.0,0.0,0.0,0.0,0.0,0.0,0.0,0.0,0.0,0.0,0.0,0.0,0.0,0.0,0.0,0.0,0.0,0.0,0.0,0.0,0.0,0.0,0.0,0.0,0.0,0.0,0.0,0.0,0.0,0.0,0.0,0.0,0.0,0.0,0.0,0.0,0.0,0.0,0.0,0.0,0.0,0.0,0.0,0.0,0.0,0.0,0.0,0.0,0.0,0.0,0.0,0.0,0.0,0.0,0.0,0.0,0.0,0.0,0.0,0.0,0.0,0.0,0.0,0.0,0.0,0.0,0.0,0.0,0.0,0.0,0.0,0.0,0.0,0.0,0.0,0.0,0.0,0.0,0.0,0.0,0.0,0.0,0.0,0.0,0.0,0.0,0.0,0.0,0.0,0.0,0.0,0.0,0.0,0.0,0.0,0.0,0.0,0.0,0.0,0.0,0.0,0.0,0.0,0.0,0.0,0.0,0.0,0.0,0.0,0.0,0.0,0.0,0.0,0.0,0.0,0.0,0.0,0.0,0.0,0.0,0.0,0.0,0.0,0.0,0.0,0.0,0.0,0.0,0.0,0.0,0.0,0.0,0.0,0.0,0.0,0.0,0.0,0.0,0.0,0.0,0.0,0.0,0.0,0.0,0.0,0.0,0.0,0.0,0.0,0.0,0.0,0.0,0.0,0.0,0.0,0.0,0.0,0.0,0.0,0.0,0.0,0.0,0.0,0.0,0.0,0.0,0.0,0.0,0.0,0.0,0.0,0.0,0.0,0.0,-0.7906,0.0,0.0,0.0,0.0,0.0,0.0,0.0,0.0,0.0,0.0,0.0,0.0,0.0,0.0,0.0,0.0,0.0,0.0,0.0,0.0,0.0,0.0,0.0,0.0,0.0,0.0,0.0,0.0,0.0,0.0,0.0,0.0,0.0,0.0,0.0,0.0,0.0,0.0,0.0,0.0,0.0,0.0,0.0,0.0,0.0,0.0,0.0,0.0,0.0,0.0,0.0,0.0,0.0,0.0,0.0,0.0,0.0,0.0,0.0,0.0,0.0,0.0,0.0,0.0,0.0,0.0,0.0,0.0,0.0,0.0,0.0,0.0,0.0,0.0,0.0,0.0,0.0,0.0,0.0,0.0,0.0,0.0,0.0,0.0,0.0,0.0,0.0,0.0,0.0,0.0,0.0,0.0,0.0,0.0,0.0,0.0,0.0,0.0,0.0,0.0,0.0,0.0,0.0,0.0,0.0,0.0,0.0,0.0,0.0,0.0,-0.7905,-0.7906,-0.7906,-0.7906,-0.7906,0.0,0.0,0.0,0.0,0.0,0.0,0.0,0.0,0.0,0.0,0.0,0.0,0.0,0.0,0.0,0.0,0.0,0.0,0.0,0.0,0.0,0.0,0.0,0.0,0.0,0.0,0.0,0.0,0.0,0.0,0.0,0.0,0.0,0.0,0.0,0.0,0.0,0.0,0.0,0.0,0.0,0.0,0.0,0.0,0.0,0.0,0.0,0.0,0.0,0.0,0.0,0.0,0.0,0.0,0.0,0.0,0.0,0.0,0.0,0.0,0.0,0.0,0.0,0.0,0.0,0.0,0.0,0.0,0.0,0.0,0.0,0.0,0.0,0.0,0.0,0.0,0.0,0.0,0.0,0.0,0.0,0.0,0.0,0.0,0.0,0.0,0.0,0.0,0.0,0.0,0.0,0.0,0.0,0.0,0.0,0.0,0.0,0.0,0.0,0.0,0.0,0.0,0.0,0.0,0.0,0.0,0.0,0.0,0.0,0.0,0.0,0.0,-0.8342,-0.8357,-0.8349,0.0,0.0,0.0,0.0,0.0,0.0,0.0,0.0,0.0,0.0,0.0,0.0,0.0,0.0,0.0,0.0,0.0,0.0,0.0,0.0,0.0,0.0,0.0,0.0,0.0,0.0,0.0,0.0,0.0,0.0,0.0,0.0,0.0,0.0,0.0,0.0,0.0,0.0,0.0,0.0,0.0,0.0,0.0,0.0,0.0,0.0,0.0,0.0,0.0,0.0,0.0,0.0,0.0,0.0,0.0,0.0,0.0,0.0,0.0,0.0,0.0,0.0,0.0,0.0,0.0,0.0,0.0,0.0,0.0,0.0,0.0,0.0,0.0,0.0,0.0,0.0,0.0,0.0,0.0,0.0,0.0,0.0,0.0,0.0,0.0,0.0,0.0,0.0,0.0,0.0,0.0,0.0,0.0,0.0,0.0,0.0,0.0,0.0,0.0,0.0,0.0,0.0,0.0,0.0,0.0,0.0,0.0,0.0,0.0,0.0,-0.8538,-0.9674,-0.9704,0.0,-0.9704,0.0,0.0,0.0,0.0,0.0,0.0,0.0,0.0,0.0,0.0,0.0,0.0,0.0,0.0,0.0,0.0,0.0,0.0,0.0,0.0,0.0,0.0,0.0,0.0,0.0,0.0,0.0,0.0,0.0,0.0,0.0,0.0,0.0,0.0,0.0,0.0,0.0,0.0,0.0,0.0,0.0,0.0,0.0,0.0,0.0,0.0,0.0,0.0,0.0,0.0,0.0,0.0,0.0,0.0,0.0,0.0,0.0,0.0,0.0,0.0,0.0,0.0,0.0,0.0,0.0,0.0,0.0,0.0,0.0,0.0,0.0,0.0,0.0,0.0,0.0,0.0,0.0,0.0,0.0,0.0,0.0,0.0,0.0,0.0,0.0,0.0,0.0,0.0,0.0,0.0,0.0,0.0,0.0,0.0,0.0,0.0,0.0,0.0,0.0,0.0,0.0,0.0,0.0,0.0,0.0,0.0,0.0,0.0,0.0,0.0,0.0,-0.9958,-0.9956,-0.9956,0.0,0.0,0.0,0.0,0.0,0.0,0.0,0.0,0.0,0.0,0.0,0.0,0.0,0.0,0.0,0.0,0.0,0.0,0.0,0.0,0.0,0.0,0.0,0.0,0.0,0.0,0.0,0.0,0.0,0.0,0.0,0.0,0.0,0.0,0.0,0.0,0.0,0.0,0.0,0.0,0.0,0.0,0.0,0.0,0.0,0.0,0.0,0.0,0.0,0.0,0.0,0.0,0.0,0.0,0.0,0.0,0.0,0.0,0.0,0.0,0.0,0.0,0.0,0.0,0.0,0.0,0.0,0.0,0.0,0.0,0.0,0.0,0.0,0.0,0.0,0.0,0.0,0.0,0.0,0.0,0.0,0.0,0.0,0.0,0.0,0.0,0.0,0.0,0.0,0.0,0.0,0.0,0.0,0.0,0.0,0.0,0.0,0.0,0.0,0.0,0.0,0.0,0.0,0.0,0.0,0.0,0.0,0.0,0.0,0.0,-0.9801,0.0,-1.0519,-1.02,-1.0012,-0.9988,0.0,0.0,0.0,0.0,0.0,0.0,0.0,0.0,0.0,0.0,0.0,0.0,0.0,0.0,0.0,0.0,0.0,0.0,0.0,0.0,0.0,0.0,0.0,0.0,0.0,0.0,0.0,0.0,0.0,0.0,0.0,0.0,0.0,0.0,0.0,0.0,0.0,0.0,0.0,0.0,0.0,0.0,0.0,0.0,0.0,0.0,0.0,0.0,0.0,0.0,0.0,0.0,0.0,0.0,0.0,0.0,0.0,0.0,0.0,0.0,0.0,0.0,0.0,0.0,0.0,0.0,0.0,0.0,0.0,0.0,0.0,0.0,0.0,0.0,0.0,0.0,0.0,0.0,0.0,0.0,0.0,0.0,0.0,0.0,0.0,0.0,0.0,0.0,0.0,0.0,0.0,0.0,0.0,0.0,0.0,0.0,0.0,0.0,0.0,0.0,0.0,0.0,0.0,0.0,0.0,0.0,0.0,0.0,0.0,-1.0737,-1.0681,-1.185,-1.068,-1.0012,0.0,0.0,0.0,0.0,0.0,0.0,0.0,0.0,0.0,0.0,0.0,0.0,0.0,0.0,0.0,0.0,0.0,0.0,0.0,0.0,0.0,0.0,0.0,0.0,0.0,0.0,0.0,0.0,0.0,0.0,0.0,0.0,0.0,0.0,0.0,0.0,0.0,0.0,0.0,0.0,0.0,0.0,0.0,0.0,0.0,0.0,0.0,0.0,0.0,0.0,0.0,0.0,0.0,0.0,0.0,0.0,0.0,0.0,0.0,0.0,0.0,0.0,0.0,0.0,0.0,0.0,0.0,0.0,0.0,0.0,0.0,0.0,0.0,0.0,0.0,0.0,0.0,0.0,0.0,0.0,0.0,0.0,0.0,0.0,0.0,0.0,0.0,0.0,0.0,0.0,0.0,0.0,0.0,0.0,0.0,0.0,0.0,0.0,0.0,0.0,0.0,0.0,0.0,0.0,0.0,0.0,0.0,0.0,0.0,-0.9536,-0.9905,-1.1176,0.0,-1.1249,-1.0482,0.0,0.0,0.0,0.0,0.0,0.0,0.0,0.0,0.0,0.0,0.0,0.0,0.0,0.0,0.0,0.0,0.0,0.0,0.0,0.0,0.0,0.0,0.0,0.0,0.0,0.0,0.0,0.0,0.0,0.0,0.0,0.0,0.0,0.0,0.0,0.0,0.0,0.0,0.0,0.0,0.0,0.0,0.0,0.0,0.0,0.0,0.0,0.0,0.0,0.0,0.0,0.0,0.0,0.0,0.0,0.0,0.0,0.0,0.0,0.0,0.0,0.0,0.0,0.0,0.0,0.0,0.0,0.0,0.0,0.0,0.0,0.0,0.0,0.0,0.0,0.0,0.0,0.0,0.0,0.0,0.0,0.0,0.0,0.0,0.0,0.0,0.0,0.0,0.0,0.0,0.0,0.0,0.0,0.0,0.0,0.0,0.0,0.0,0.0,0.0,0.0,0.0,0.0,0.0,0.0,0.0,0.0,0.0,0.0,-0.942,0.0,-1.2128,0.0,-1.1543,-1.0549,0.0,0.0,0.0,0.0,0.0,0.0,0.0,0.0,0.0,0.0,0.0,0.0,0.0,0.0,0.0,0.0,0.0,0.0,0.0,0.0,0.0,0.0,0.0,0.0,0.0,0.0,0.0,0.0,0.0,0.0,0.0,0.0,0.0,0.0,0.0,0.0,0.0,0.0,0.0,0.0,0.0,0.0,0.0,0.0,0.0,0.0,0.0,0.0,0.0,0.0,0.0,0.0,0.0,0.0,0.0,0.0,0.0,0.0,0.0,0.0,0.0,0.0,0.0,0.0,0.0,0.0,0.0,0.0,0.0,0.0,0.0,0.0,0.0,0.0,0.0,0.0,0.0,0.0,0.0,0.0,0.0,0.0,0.0,0.0,0.0,0.0,0.0,0.0,0.0,0.0,0.0,0.0,0.0,0.0,0.0,0.0,0.0,0.0,0.0,0.0,0.0,0.0,0.0,0.0,0.0,0.0,0.0,0.0,-0.9451,-1.2015,-1.3355,-1.3417,-1.2303,-1.1482,-1.0165,0.0,0.0,0.0,0.0,0.0,0.0,0.0,0.0,0.0,0.0,0.0,0.0,0.0,0.0,0.0,0.0,0.0,0.0,0.0,0.0,0.0,0.0,0.0,0.0,0.0,0.0,0.0,0.0,0.0,0.0,0.0,0.0,0.0,0.0,0.0,0.0,0.0,0.0,0.0,0.0,0.0,0.0,0.0,0.0,0.0,0.0,0.0,0.0,0.0,0.0,0.0,0.0,0.0,0.0,0.0,0.0,0.0,0.0,0.0,0.0,0.0,0.0,0.0,0.0,0.0,0.0,0.0,0.0,0.0,0.0,0.0,0.0,0.0,0.0,0.0,0.0,0.0,0.0,0.0,0.0,0.0,0.0,0.0,0.0,0.0,0.0,0.0,0.0,0.0,0.0,0.0,0.0,0.0,0.0,0.0,0.0,0.0,0.0,0.0,0.0,0.0,0.0,0.0,0.0,0.0,0.0,0.0,0.0,0.0,-1.0774,-1.162,-1.2763,-1.4071,-1.1303,-1.0303,0.0,0.0,0.0,0.0,0.0,0.0,0.0,0.0,0.0,0.0,0.0,0.0,0.0,0.0,0.0,0.0,0.0,0.0,0.0,0.0,0.0,0.0,0.0,0.0,0.0,0.0,0.0,0.0,0.0,0.0,0.0,0.0,0.0,0.0,0.0,0.0,0.0,0.0,0.0,0.0,0.0,0.0,0.0,0.0,0.0,0.0,0.0,0.0,0.0,0.0,0.0,0.0,0.0,0.0,0.0,0.0,0.0,0.0,0.0,0.0,0.0,0.0,0.0,0.0,0.0,0.0,0.0,0.0,0.0,0.0,0.0,0.0,0.0,0.0,0.0,0.0,0.0,0.0,0.0,0.0,0.0,0.0,0.0,0.0,0.0,0.0,0.0,0.0,0.0,0.0,0.0,0.0,0.0,0.0,0.0,0.0,0.0,0.0,0.0,0.0,0.0,0.0,0.0,0.0,0.0,0.0,0.0,0.0,0.0,-1.2425,-1.3275,-1.432,-1.5534,-1.2605,-1.1312,-1.1943,0.0,0.0,0.0,0.0,0.0,0.0,0.0,0.0,0.0,0.0,0.0,0.0,0.0,0.0,0.0,0.0,0.0,0.0,0.0,0.0,0.0,0.0,0.0,0.0,0.0,0.0,0.0,0.0,0.0,0.0,0.0,0.0,0.0,0.0,0.0,0.0,0.0,0.0,0.0,0.0,0.0,0.0,0.0,0.0,0.0,0.0,0.0,0.0,0.0,0.0,0.0,0.0,0.0,0.0,0.0,0.0,0.0,0.0,0.0,0.0,0.0,0.0,0.0,0.0,0.0,0.0,0.0,0.0,0.0,0.0,0.0,0.0,0.0,0.0,0.0,0.0,0.0,0.0,0.0,0.0,0.0,0.0,0.0,0.0,0.0,0.0,0.0,0.0,0.0,0.0,0.0,0.0,0.0,0.0,0.0,0.0,0.0,0.0,0.0,0.0,0.0,0.0,0.0,0.0,0.0,0.0,0.0,0.0,-1.6346,-1.7746,-1.7823,-1.6562,-1.5009,-1.3021,0.0,0.0,0.0,0.0,0.0,0.0,0.0,0.0,0.0,0.0,0.0,0.0,0.0,0.0,0.0,0.0,0.0,0.0,0.0,0.0,0.0,0.0,0.0,0.0,0.0,0.0,0.0,0.0,0.0,0.0,0.0,0.0,0.0,0.0,0.0,0.0,0.0,0.0,0.0,0.0,0.0,0.0,0.0,0.0,0.0,0.0,0.0,0.0,0.0,0.0,0.0,0.0,0.0,0.0,0.0,0.0,0.0,0.0,0.0,0.0,0.0,0.0,0.0,0.0,0.0,0.0,0.0,0.0,0.0,0.0,0.0,0.0,0.0,0.0,0.0,0.0,0.0,0.0,0.0,0.0,0.0,0.0,0.0,0.0,0.0,0.0,0.0,0.0,0.0,0.0,0.0,0.0,0.0,0.0,0.0,0.0,0.0,0.0,0.0,0.0,0.0,0.0,0.0,0.0,0.0,0.0,0.0,0.0,0.0,-1.8423,-2.0762,-2.1332,-1.9931,-1.6699,-1.4363,0.0,0.0,0.0,0.0,0.0,0.0,0.0,0.0,0.0,0.0,0.0,0.0,0.0,0.0,0.0,0.0,0.0,0.0,0.0,0.0,0.0,0.0,0.0,0.0,0.0,0.0,0.0,0.0,0.0,0.0,0.0,0.0,0.0,0.0,0.0,0.0,0.0,0.0,0.0,0.0,0.0,0.0,0.0,0.0,0.0,0.0,0.0,0.0,0.0,0.0,0.0,0.0,0.0,0.0,0.0,0.0,0.0,0.0,0.0,0.0,0.0,0.0,0.0,0.0,0.0,0.0,0.0,0.0,0.0,0.0,0.0,0.0,0.0,0.0,0.0,0.0,0.0,0.0,0.0,0.0,0.0,0.0,0.0,0.0,0.0,0.0,0.0,0.0,0.0,0.0,0.0,0.0,0.0,0.0,0.0,0.0,0.0,0.0,0.0,0.0,0.0,0.0,0.0,0.0,0.0,0.0,0.0,0.0,-1.7356,-2.0119,-2.3352,-2.4518,-2.3425,-1.9469,-1.633,0.0,0.0,0.0,0.0,0.0,0.0,0.0,0.0,0.0,0.0,0.0,0.0,0.0,0.0,0.0,0.0,0.0,0.0,0.0,0.0,0.0,0.0,0.0,0.0,0.0,0.0,0.0,0.0,0.0,0.0,0.0,0.0,0.0,0.0,0.0,0.0,0.0,0.0,0.0,0.0,0.0,0.0,0.0,0.0,0.0,0.0,0.0,0.0,0.0,0.0,0.0,0.0,0.0,0.0,0.0,0.0,0.0,0.0,0.0,0.0,0.0,0.0,0.0,0.0,0.0,0.0,0.0,0.0,0.0,0.0,0.0,0.0,0.0,0.0,0.0,0.0,0.0,0.0,0.0,0.0,0.0,0.0,0.0,0.0,0.0,0.0,0.0,0.0,0.0,0.0,0.0,0.0,0.0,0.0,0.0,0.0,0.0,0.0,0.0,0.0,0.0,0.0,0.0,0.0,0.0,0.0,0.0,0.0,-1.9465,-2.1488,-2.5364,-2.7072,-2.6327,-2.2501,-1.8546,0.0,0.0,0.0,0.0,0.0,0.0,0.0,0.0,0.0,0.0,0.0,0.0,0.0,0.0,0.0,0.0,0.0,0.0,0.0,0.0,0.0,0.0,0.0,0.0,0.0,0.0,0.0,0.0,0.0,0.0,0.0,0.0,0.0,0.0,0.0,0.0,0.0,0.0,0.0,0.0,0.0,0.0,0.0,0.0,0.0,0.0,0.0,0.0,0.0,0.0,0.0,0.0,0.0,0.0,0.0,0.0,0.0,0.0,0.0,0.0,0.0,0.0,0.0,0.0,0.0,0.0,0.0,0.0,0.0,0.0,0.0,0.0,0.0,0.0,0.0,0.0,0.0,0.0,0.0,0.0,0.0,0.0,0.0,0.0,0.0,0.0,0.0,0.0,0.0,0.0,0.0,0.0,0.0,0.0,0.0,0.0,0.0,0.0,0.0,0.0,0.0,0.0,0.0,0.0,0.0,0.0,0.0,0.0,-1.9765,-2.2825,-2.5826,-2.7334,-2.7165,-2.3194,-1.9686,0.0,0.0,0.0,0.0,0.0,0.0,0.0,0.0,0.0,0.0,0.0,0.0,0.0,0.0,0.0,0.0,0.0,0.0,0.0,0.0,0.0,0.0,0.0,0.0,0.0,0.0,0.0,0.0,0.0,0.0,0.0,0.0,0.0,0.0,0.0,0.0,0.0,0.0,0.0,0.0,0.0,0.0,0.0,0.0,0.0,0.0,0.0,0.0,-0.8749,0.0,0.0,0.0,0.0,0.0,0.0,0.0,0.0,0.0,0.0,0.0,0.0,0.0,0.0,0.0,0.0,0.0,0.0,0.0,0.0,0.0,0.0,0.0,0.0,0.0,0.0,0.0,0.0,0.0,0.0,0.0,0.0,0.0,0.0,0.0,0.0,0.0,0.0,0.0,0.0,0.0,0.0,0.0,0.0,0.0,0.0,0.0,0.0,0.0,0.0,0.0,0.0,0.0,0.0,0.0,0.0,0.0,0.0,0.0,-2.1237,-2.4179,-2.6611,-2.7873,-2.775,-2.4518,-2.1132,0.0,0.0,0.0,0.0,0.0,0.0,0.0,0.0,0.0,0.0,0.0,0.0,0.0,0.0,0.0,0.0,0.0,0.0,0.0,0.0,0.0,0.0,0.0,0.0,0.0,0.0,0.0,0.0,0.0,0.0,0.0,0.0,0.0,0.0,0.0,0.0,0.0,0.0,0.0,0.0,0.0,0.0,0.0,0.0,0.0,0.0,0.0,0.0,0.0,0.0,0.0,0.0,0.0,0.0,0.0,0.0,0.0,0.0,0.0,0.0,0.0,0.0,0.0,0.0,0.0,0.0,0.0,0.0,0.0,0.0,0.0,0.0,0.0,0.0,0.0,0.0,0.0,0.0,0.0,0.0,0.0,0.0,0.0,0.0,0.0,0.0,0.0,0.0,0.0,0.0,0.0,0.0,0.0,0.0,0.0,0.0,0.0,0.0,0.0,0.0,0.0,0.0,0.0,0.0,0.0,0.0,0.0,-1.9515,-2.2695,-2.5549,-2.7457,-2.8411,-2.8365,-2.5841,-2.259,-1.8668,0.0,0.0,0.0,0.0,0.0,0.0,0.0,0.0,0.0,0.0,0.0,0.0,0.0,0.0,0.0,0.0,0.0,0.0,0.0,0.0,0.0,0.0,0.0,0.0,0.0,0.0,0.0,0.0,0.0,0.0,0.0,0.0,0.0,0.0,0.0,0.0,0.0,0.0,-0.7591,-0.8087,0.0,0.0,0.0,0.0,0.0,0.0,0.0,0.0,-0.9031,0.0,0.0,0.0,0.0,0.0,0.0,0.0,0.0,0.0,0.0,0.0,0.0,0.0,0.0,0.0,0.0,0.0,0.0,0.0,0.0,0.0,0.0,0.0,0.0,0.0,0.0,0.0,0.0,0.0,0.0,0.0,0.0,0.0,0.0,0.0,0.0,0.0,0.0,0.0,0.0,0.0,0.0,0.0,0.0,0.0,0.0,0.0,0.0,0.0,0.0,0.0,0.0,0.0,0.0,0.0,0.0,-1.8749,-1.9498,-2.2195,-2.6941,-2.7934,-2.8411,-2.835,-2.6287,-2.3517,-2.0056,0.0,0.0,0.0,0.0,0.0,0.0,0.0,0.0,0.0,0.0,0.0,0.0,0.0,0.0,0.0,0.0,0.0,0.0,0.0,0.0,0.0,0.0,0.0,0.0,0.0,0.0,0.0,0.0,0.0,0.0,0.0,0.0,0.0,0.0,0.0,0.0,0.0,0.0,0.0,-1.0431,-1.1269,0.0,0.0,0.0,0.0,0.0,0.0,0.0,0.0,-1.2535,0.0,0.0,0.0,0.0,0.0,0.0,0.0,0.0,0.0,0.0,0.0,0.0,0.0,0.0,0.0,0.0,0.0,0.0,0.0,0.0,0.0,0.0,0.0,0.0,0.0,0.0,0.0,0.0,0.0,0.0,0.0,0.0,0.0,0.0,0.0,0.0,0.0,0.0,0.0,0.0,0.0,0.0,0.0,0.0,0.0,0.0,0.0,0.0,0.0,0.0,0.0,0.0,0.0,0.0,0.0,-1.8886,-2.0663,-2.3566,-2.775,-2.8242,-2.8411,-2.8334,-2.5364,-2.2501,0.0,0.0,0.0,0.0,0.0,0.0,0.0,0.0,0.0,0.0,0.0,0.0,0.0,0.0,0.0,0.0,0.0,0.0,0.0,0.0,0.0,0.0,0.0,0.0,0.0,0.0,0.0,0.0,0.0,0.0,0.0,0.0,0.0,0.0,0.0,0.0,0.0,0.0,0.0,0.0,-1.1576,-1.2431,-1.3853,0.0,0.0,0.0,0.0,0.0,0.0,-1.2938,-1.258,0.0,0.0,0.0,0.0,0.0,0.0,0.0,0.0,0.0,0.0,0.0,0.0,0.0,0.0,0.0,0.0,0.0,0.0,0.0,0.0,0.0,0.0,0.0,0.0,0.0,0.0,0.0,0.0,0.0,0.0,0.0,0.0,0.0,0.0,0.0,0.0,0.0,0.0,0.0,0.0,0.0,0.0,0.0,0.0,0.0,0.0,0.0,0.0,0.0,0.0,0.0,0.0,0.0,0.0,0.0,-1.8643,-2.1486,-2.4713,-2.8211,-2.8411,-2.8411,-2.8334,-2.4564,-2.1504,0.0,0.0,0.0,0.0,0.0,0.0,0.0,0.0,0.0,0.0,0.0,0.0,0.0,0.0,0.0,0.0,0.0,0.0,0.0,0.0,0.0,0.0,0.0,0.0,0.0,0.0,0.0,0.0,0.0,0.0,0.0,0.0,0.0,0.0,0.0,0.0,0.0,0.0,0.0,0.0,0.0,-1.3736,-1.5235,-1.4914,0.0,0.0,0.0,0.0,-1.4637,-1.3995,0.0,0.0,0.0,0.0,0.0,0.0,0.0,0.0,0.0,0.0,0.0,0.0,0.0,0.0,0.0,0.0,0.0,0.0,0.0,0.0,0.0,0.0,0.0,0.0,0.0,0.0,0.0,0.0,0.0,0.0,0.0,0.0,0.0,0.0,0.0,0.0,0.0,0.0,0.0,0.0,0.0,0.0,0.0,0.0,0.0,0.0,0.0,0.0,0.0,0.0,0.0,0.0,0.0,0.0,0.0,0.0,-1.8579,-2.0687,-2.3889,-2.8134,-2.8411,-2.8411,-2.8365,-2.501,-2.1966,0.0,0.0,0.0,0.0,0.0,0.0,0.0,0.0,0.0,0.0,0.0,0.0,0.0,0.0,0.0,0.0,0.0,0.0,0.0,0.0,0.0,0.0,0.0,0.0,0.0,0.0,0.0,0.0,0.0,0.0,0.0,0.0,0.0,0.0,0.0,0.0,0.0,0.0,0.0,0.0,0.0,-1.5941,-1.6671,-1.6056,-1.5576,0.0,0.0,-1.6187,-1.7322,-1.7287,0.0,0.0,0.0,0.0,0.0,0.0,0.0,0.0,0.0,0.0,0.0,0.0,0.0,0.0,0.0,0.0,0.0,0.0,0.0,0.0,0.0,0.0,0.0,0.0,0.0,0.0,0.0,0.0,0.0,0.0,0.0,0.0,0.0,0.0,0.0,0.0,0.0,0.0,0.0,0.0,0.0,0.0,0.0,0.0,0.0,0.0,0.0,0.0,0.0,0.0,0.0,0.0,0.0,0.0,0.0,-1.5144,-1.866,-2.1597,-2.4827,-2.8242,-2.8411,-2.8411,-2.8396,-2.3984,-2.067,0.0,0.0,0.0,0.0,0.0,0.0,0.0,0.0,0.0,0.0,0.0,0.0,0.0,0.0,0.0,0.0,0.0,0.0,0.0,0.0,0.0,0.0,0.0,0.0,0.0,0.0,0.0,0.0,0.0,0.0,0.0,0.0,0.0,0.0,0.0,0.0,0.0,0.0,0.0,0.0,0.0,0.0,-1.7812,-1.7888,0.0,0.0,0.0,-1.7636,-1.7274,0.0,0.0,0.0,0.0,0.0,0.0,0.0,0.0,0.0,0.0,0.0,0.0,0.0,0.0,0.0,0.0,0.0,0.0,0.0,0.0,0.0,0.0,0.0,0.0,0.0,0.0,0.0,0.0,0.0,0.0,0.0,0.0,0.0,0.0,0.0,0.0,0.0,0.0,0.0,0.0,0.0,0.0,0.0,0.0,0.0,0.0,0.0,0.0,0.0,0.0,0.0,0.0,0.0,0.0,0.0,0.0,0.0,-1.8649,-2.2372,-2.5626,-2.8273,-2.8411,-2.8411,-2.8319,-2.363,0.0,0.0,0.0,0.0,0.0,0.0,0.0,0.0,0.0,0.0,0.0,0.0,0.0,0.0,0.0,0.0,0.0,0.0,0.0,0.0,0.0,0.0,0.0,0.0,0.0,0.0,0.0,-0.6979,0.0,0.0,0.0,0.0,0.0,0.0,0.0,0.0,0.0,0.0,0.0,0.0,0.0,0.0,-1.8139,-1.8562,-1.9274,-1.9453,0.0,0.0,-1.9017,-1.7943,-1.8773,-1.8596,0.0,0.0,0.0,0.0,0.0,0.0,0.0,0.0,0.0,0.0,0.0,0.0,0.0,0.0,0.0,0.0,0.0,0.0,0.0,0.0,0.0,0.0,0.0,0.0,0.0,0.0,0.0,0.0,0.0,0.0,0.0,0.0,0.0,0.0,0.0,0.0,0.0,0.0,0.0,0.0,0.0,0.0,0.0,0.0,0.0,0.0,0.0,0.0,0.0,0.0,0.0,0.0,0.0,0.0,0.0,-1.853,-2.2334,-2.5641,-2.8288,-2.8411,-2.8411,-2.835,-2.4964,-2.1563,0.0,0.0,0.0,0.0,0.0,0.0,0.0,0.0,0.0,0.0,0.0,0.0,0.0,0.0,0.0,0.0,0.0,0.0,0.0,0.0,0.0,0.0,0.0,0.0,0.0,0.0,0.0,0.0,0.0,0.0,0.0,0.0,0.0,0.0,0.0,0.0,0.0,0.0,0.0,0.0,0.0,-1.9137,-1.8762,-1.9691,-2.0421,0.0,0.0,-2.0407,-2.0912,-2.131,-2.0628,-1.7841,0.0,0.0,0.0,0.0,0.0,0.0,0.0,0.0,0.0,0.0,0.0,0.0,0.0,0.0,0.0,0.0,0.0,0.0,0.0,0.0,0.0,0.0,0.0,0.0,0.0,0.0,0.0,0.0,0.0,0.0,0.0,0.0,0.0,0.0,0.0,0.0,0.0,0.0,0.0,0.0,0.0,0.0,0.0,0.0,0.0,0.0,0.0,0.0,0.0,0.0,0.0,0.0,0.0,-1.6279,-1.8454,-2.2698,-2.6034,-2.8288,-2.8411,-2.8411,-2.8396,-2.5487,-2.2332,0.0,0.0,0.0,0.0,0.0,0.0,0.0,0.0,0.0,0.0,0.0,0.0,0.0,0.0,0.0,0.0,0.0,0.0,0.0,0.0,0.0,0.0,0.0,0.0,0.0,0.0,0.0,0.0,-1.2128,-1.222,-1.121,0.0,0.0,0.0,0.0,0.0,0.0,0.0,0.0,0.0,0.0,-2.0564,-2.1556,-2.1804,0.0,0.0,-2.2328,-2.1996,-2.1552,-2.203,-2.1532,-1.874,-1.8435,0.0,0.0,0.0,0.0,0.0,0.0,0.0,0.0,0.0,0.0,0.0,0.0,0.0,0.0,0.0,0.0,0.0,0.0,0.0,0.0,0.0,0.0,0.0,0.0,0.0,0.0,0.0,0.0,0.0,0.0,0.0,0.0,0.0,0.0,0.0,0.0,0.0,0.0,0.0,0.0,0.0,0.0,0.0,0.0,0.0,0.0,0.0,0.0,0.0,0.0,0.0,0.0,-1.6575,-1.8672,-2.3048,-2.6318,-2.835,-2.8411,-2.8411,-2.8334,-2.5933,-2.3117,0.0,0.0,0.0,0.0,0.0,0.0,0.0,0.0,0.0,0.0,0.0,0.0,0.0,0.0,0.0,0.0,0.0,0.0,0.0,0.0,0.0,0.0,0.0,0.0,0.0,0.0,0.0,0.0,-1.288,-1.2728,-1.1272,0.0,0.0,0.0,0.0,0.0,0.0,0.0,0.0,0.0,0.0,-2.1731,-2.2819,-2.3051,-2.3207,-2.3427,-2.308,-2.2538,-2.1852,-2.225,-2.1859,-1.9487,0.0,0.0,0.0,0.0,0.0,0.0,0.0,0.0,0.0,0.0,0.0,0.0,0.0,0.0,0.0,0.0,0.0,0.0,0.0,0.0,0.0,0.0,0.0,0.0,0.0,0.0,0.0,-0.9021,0.0,0.0,-0.8982,0.0,0.0,0.0,0.0,0.0,0.0,0.0,0.0,0.0,0.0,0.0,0.0,0.0,0.0,0.0,0.0,0.0,0.0,0.0,0.0,0.0,0.0,-1.6699,-1.9271,-2.3286,-2.6349,-2.8334,-2.8411,-2.8411,-2.8365,-2.6373,-2.401,-2.1288,0.0,0.0,0.0,0.0,0.0,0.0,0.0,0.0,0.0,0.0,0.0,0.0,0.0,0.0,0.0,0.0,0.0,0.0,0.0,0.0,0.0,0.0,0.0,0.0,0.0,0.0,-0.8611,-1.0011,-1.118,0.0,0.0,0.0,0.0,0.0,0.0,0.0,0.0,0.0,0.0,-2.1019,-2.2539,-2.175,-2.2957,-2.3716,-2.2946,-2.2203,-2.1797,-2.211,-2.214,-2.1666,0.0,0.0,0.0,0.0,0.0,0.0,0.0,0.0,0.0,0.0,0.0,0.0,0.0,0.0,0.0,0.0,0.0,0.0,0.0,0.0,0.0,0.0,0.0,0.0,0.0,0.0,0.0,-1.1635,-1.1112,0.0,0.0,0.0,0.0,0.0,0.0,0.0,0.0,0.0,0.0,0.0,-1.802,-1.8207,0.0,0.0,0.0,0.0,0.0,0.0,0.0,0.0,0.0,0.0,0.0,0.0,-1.7758,-2.0058,-2.4415,-2.7257,-2.8365,-2.8411,-2.8411,-2.8396,-2.7288,-2.4779,-2.0734,0.0,0.0,0.0,0.0,0.0,0.0,0.0,0.0,0.0,0.0,0.0,0.0,0.0,0.0,0.0,0.0,0.0,0.0,0.0,0.0,0.0,0.0,0.0,0.0,0.0,-1.0826,0.0,0.0,0.0,0.0,0.0,0.0,0.0,0.0,0.0,0.0,0.0,-2.0026,-2.1398,-2.2416,-2.3186,-2.3615,-2.4194,-2.4791,0.0,0.0,0.0,0.0,0.0,0.0,0.0,0.0,0.0,0.0,0.0,0.0,0.0,0.0,-2.2923,-1.8101,-1.7757,-1.9026,-2.1556,0.0,0.0,0.0,0.0,0.0,0.0,0.0,0.0,0.0,0.0,0.0,0.0,0.0,0.0,-1.4942,0.0,-1.3461,0.0,0.0,0.0,0.0,0.0,0.0,0.0,0.0,-1.9363,-2.0564,-2.1456,-2.1679,-2.1627,0.0,-2.0562,-1.8236,0.0,0.0,0.0,0.0,0.0,0.0,0.0,0.0,-1.8995,-2.109,-2.5232,-2.7734,-2.8365,-2.8411,-2.8411,-2.8396,-2.7519,-2.5472,-2.2151,-1.9423,-1.6945,0.0,0.0,0.0,0.0,0.0,0.0,0.0,0.0,0.0,0.0,0.0,0.0,0.0,0.0,0.0,0.0,0.0,0.0,0.0,0.0,0.0,0.0,0.0,-1.1749,0.0,0.0,0.0,0.0,0.0,0.0,0.0,0.0,0.0,-2.2145,-2.2152,-2.2374,-2.3585,-2.3944,-2.435,-2.504,0.0,0.0,0.0,0.0,0.0,0.0,0.0,-2.384,-2.3347,-2.3876,-2.4541,-2.51,-2.6191,-2.7003,-2.6889,0.0,0.0,-2.1747,-2.1371,-2.2595,-2.5127,-2.4284,-2.3125,-2.3051,-2.3379,-2.3686,0.0,0.0,0.0,0.0,0.0,0.0,0.0,0.0,-1.8931,-1.8885,0.0,-1.7425,0.0,0.0,0.0,0.0,0.0,-1.8718,0.0,0.0,-2.5025,-2.6626,-2.545,-2.6026,-2.601,-2.5318,-2.4025,-2.2428,-2.0474,-1.8049,0.0,0.0,0.0,0.0,0.0,0.0,-2.0335,-2.2397,-2.5687,-2.7703,-2.8334,-2.8396,-2.8411,-2.8365,-2.7157,-2.6072,-2.525,-2.2763,-2.0764,-1.9364,-1.6143,0.0,0.0,0.0,0.0,0.0,0.0,0.0,0.0,0.0,0.0,0.0,0.0,0.0,0.0,0.0,0.0,0.0,0.0,0.0,0.0,-1.2262,0.0,0.0,0.0,0.0,0.0,0.0,0.0,0.0,0.0,0.0,-2.2894,-2.3082,-2.363,-2.4841,0.0,0.0,0.0,0.0,-2.69,-2.6012,-2.5515,-2.5195,-2.4987,-2.5432,-2.5785,-2.5653,0.0,0.0,-2.7779,-2.7705,-2.76,-2.6926,-2.7959,-2.8332,-2.7135,-2.6016,-2.6085,-2.7832,-2.76,-2.6972,-2.6526,-2.6388,-2.6434,-2.4262,0.0,0.0,0.0,0.0,-2.0975,-2.2077,-2.4287,-2.3665,-2.2883,-2.1941,-2.106,0.0,0.0,0.0,0.0,0.0,0.0,-2.1843,-2.4564,-2.5496,-2.645,-2.7488,-2.7242,-2.6995,-2.6795,-2.6411,-2.618,-2.5995,-2.438,-2.0738,-1.527,0.0,0.0,0.0,0.0,-2.1227,-2.3702,-2.6149,-2.7488,-2.7673,-2.815,-2.8411,-2.8411,-2.7565,-2.678,-2.6034,-2.4789,-2.3086,-2.0811,-1.8886,0.0,0.0,0.0,0.0,0.0,0.0,0.0,0.0,0.0,0.0,0.0,0.0,0.0,0.0,0.0,0.0,0.0,0.0,0.0,-1.2323,-1.3878,-1.4648,0.0,0.0,0.0,0.0,0.0,0.0,0.0,0.0,0.0,-2.563,-2.5494,-2.5633,0.0,0.0,-2.5847,-2.5809,-2.679,-2.7379,-2.7135,-2.736,0.0,-2.752,-2.6894,-2.6573,-2.6956,-2.8293,-2.9412,-2.9624,-3.0073,-3.037,-3.0285,-3.0629,-3.0802,-3.0497,-2.9059,-2.8737,-3.0521,-3.0389,-2.9628,-2.9316,-2.9218,-2.9218,-2.9373,-2.6703,-2.4184,-2.407,-2.5518,-2.4956,-2.6015,-2.8061,-2.7566,-2.6865,-2.6057,-2.5118,-2.366,-2.1849,-2.0892,0.0,0.0,0.0,-2.4856,-2.791,-2.7218,-2.7726,-2.9119,-2.8756,-2.8596,-2.8556,-2.8319,-2.8411,-2.8781,-2.718,-2.3979,-1.9299,0.0,0.0,-1.8838,-2.0595,-2.2413,-2.4287,-2.6087,-2.7134,-2.7396,-2.8057,-2.8411,-2.8381,-2.7996,-2.7596,-2.7142,-2.648,-2.5133,-2.2963,-2.1088,-1.867,0.0,0.0,0.0,0.0,0.0,0.0,0.0,0.0,0.0,0.0,0.0,-1.0727,0.0,0.0,0.0,0.0,-1.3294,-1.6282,-1.5481,-1.6536,0.0,0.0,0.0,0.0,0.0,0.0,0.0,-2.1461,-2.4743,-2.7244,-2.7859,-2.7975,-2.8136,-2.8571,-2.7713,-2.7182,-2.762,0.0,-2.8974,-2.9127,-2.9517,-2.9678,-2.9295,-2.9097,-2.9225,-2.9831,-3.0595,-3.121,-3.1629,-3.2048,-3.2332,-3.245,-3.248,-3.2329,-3.1903,-3.0754,-3.0346,-3.1875,-3.1818,-3.137,-3.1217,-3.1197,-3.1186,-3.3475,-3.3183,-2.9489,-2.8354,-2.8954,-2.883,-2.951,-3.0709,-3.0725,-3.0678,-3.054,-2.935,-2.8396,-2.765,-2.6311,0.0,-2.7719,-2.7703,-2.8765,-3.0602,-3.0002,-3.0002,-3.0555,-3.0555,-3.0494,-3.0386,-2.971,-2.9387,-2.9294,-2.755,-2.6211,-2.5342,-2.3594,-2.232,-2.1658,-2.2782,-2.3733,-2.4471,-2.5687,-2.6657,-2.7396,-2.7996,-2.835,-2.8396,-2.8411,-2.8365,-2.8304,-2.7719,-2.6734,-2.5235,-2.2871,-2.1211,-2.0366,0.0,0.0,0.0,0.0,0.0,0.0,0.0,0.0,0.0,0.0,0.0,0.0,0.0,0.0,0.0,-1.5617,0.0,-2.0441,-1.9857,0.0,0.0,0.0,-2.1644,-2.446,-2.562,-2.6161,-2.6044,0.0,0.0,-3.0027,-3.0585,-3.1003,-3.1164,-2.9993,-2.9486,-3.0445,-3.0777,-3.1177,-3.1405,-3.1701,-3.1503,-3.0687,-3.1539,-3.2527,-3.3036,-3.3499,-3.3365,-3.3365,-3.341,-3.3455,-3.3425,-3.3484,-3.314,-3.1884,-3.1675,-3.1806,-3.2376,-3.2522,-3.2567,-3.2567,-3.2567,-3.2567,-3.4258,-3.4166,-3.3211,-3.2622,-3.2252,-3.224,-3.2705,-3.349,-3.3534,-3.3198,-3.2659,-3.2336,-3.1567,-3.0407,-2.9556,-2.9658,-3.0428,-3.0428,-3.1259,-3.2644,-3.2521,-3.2259,-3.1936,-3.1936,-3.1382,-3.0402,-2.971,-2.9387,-2.9371,-2.8935,-2.7827,-2.6211,-2.6164,-2.5318,-2.3671,-2.3917,-2.4671,-2.5872,-2.5687,-2.6164,-2.7349,-2.755,-2.7873,-2.8396,-2.8411,-2.8165,-2.7673,-2.7488,-2.6518,-2.4671,-2.3933,-2.3055,-2.1843,-1.7176,0.0,0.0,0.0,0.0,0.0,0.0,0.0,0.0,0.0,-1.4517,-1.1595,0.0,-1.4816,0.0,-1.6436,-2.1772,-2.1675,-2.2387,0.0,0.0,-2.4709,-2.5599,-2.8322,-2.8829,-2.8878,-2.871,-3.0709,-3.2974,-3.5228,-3.4043,-3.3352,-3.4316,-3.242,-3.1026,-3.1383,-3.1835,-3.2137,-3.2302,-3.2751,-3.2856,-3.2363,-3.3065,-3.3739,-3.3529,-3.3514,-3.3499,-3.3514,-3.3499,-3.3499,-3.3499,-3.3499,-3.335,-3.3095,-3.3021,-3.3638,-3.4942,-3.4692,-3.4012,-3.3996,-3.3981,-3.3996,-3.5414,-3.5398,-3.5398,-3.4799,-3.3875,-3.3904,-3.4135,-3.4489,-3.4489,-3.4274,-3.3904,-3.3891,-3.346,-3.278,-3.2382,-3.2413,-3.2764,-3.2795,-3.3195,-3.386,-3.3875,-3.3675,-3.3349,-3.3349,-3.2782,-3.1751,-3.1366,-3.0874,-3.0304,-2.9997,-2.9125,-2.7765,-2.8104,-2.7565,-2.6134,-2.4918,-2.4687,-2.5441,-2.5687,-2.618,-2.6934,-2.7534,-2.7596,-2.7057,-2.7295,-2.7003,-2.6057,-2.6026,-2.521,-2.3502,-2.3117,-2.304,-2.3086,-1.8407,-1.4209,0.0,0.0,0.0,0.0,0.0,0.0,0.0,0.0,0.0,0.0,0.0,-1.9347,-1.5681,-2.1763,-2.5505,-2.4551,-2.5574,-2.6869,-2.8219,-2.8515,-2.9561,-3.1938,-3.2367,-3.2461,-3.2476,-3.3879,-3.5531,-3.712,-3.5989,-3.5213,-3.5967,-3.4429,-3.3185,-3.3006,-3.3201,-3.3484,-3.3814,-3.4158,-3.4322,-3.4022,-3.4442,-3.4696,-3.4457,-3.4397,-3.4397,-3.4382,-3.4382,-3.4397,-3.4382,-3.4397,-3.4397,-3.4397,-3.4397,-3.4856,-3.5657,-3.5645,-3.5048,-3.4583,-3.4489,-3.4489,-3.6492,-3.6492,-3.6492,-3.5845,-3.4767,-3.4767,-3.4566,-3.4227,-3.4227,-3.4335,-3.452,-3.4674,-3.4767,-3.4767,-3.4751,-3.4767,-3.4767,-3.4767,-3.4767,-3.4767,-3.4767,-3.4674,-3.4489,-3.4489,-3.4089,-3.329,-3.3183,-3.2536,-3.1409,-3.0828,-3.012,-2.9294,-2.9356,-2.8972,-2.8073,-2.5841,-2.4656,-2.4594,-2.5857,-2.6518,-2.6534,-2.7411,-2.7057,-2.5419,-2.5773,-2.545,-2.4256,-2.4179,-2.3563,-2.224,-2.1686,-2.2055,-2.3348,-1.9191,-1.6362,0.0,-1.5009,0.0,0.0,0.0,0.0,0.0,0.0,0.0,0.0,-2.0916,-2.2513,-2.4512,-2.844,-3.0073,-2.8139,-2.8991,-3.0228,-3.1619,-3.2163,-3.3197,-3.5015,-3.5659,-3.5989,-3.6167,-3.6902,-3.7404,-3.7375,-3.6866,-3.6477,-3.642,-3.5789,-3.507,-3.4743,-3.4593,-3.4756,-3.5444,-3.5489,-3.5325,-3.534,-3.5415,-3.5444,-3.5459,-3.54,-3.5489,-3.5415,-3.5429,-3.5459,-3.5444,-3.54,-3.5429,-3.5489,-3.5459,-3.5557,-3.5752,-3.5834,-3.5611,-3.4972,-3.4785,-3.4692,-3.6492,-3.6492,-3.6492,-3.6353,-3.6153,-3.6107,-3.4845,-3.2798,-3.2782,-3.3442,-3.4566,-3.566,-3.6107,-3.6107,-3.6107,-3.6107,-3.6107,-3.6107,-3.6122,-3.6122,-3.6107,-3.5552,-3.4536,-3.4489,-3.3827,-3.2598,-3.2013,-3.1643,-3.1409,-3.1285,-3.032,-2.8658,-2.911,-2.8479,-2.6788,0.0,0.0,0.0,-2.678,-2.7211,-2.7165,-2.5795,-2.5142,-2.5281,-2.4881,0.0,-2.3533,-2.3486,-2.2875,-2.1596,-2.1889,0.0,0.0,0.0,0.0,0.0,0.0,0.0,0.0,0.0,0.0,0.0,-2.2101,-2.2347,-2.1781,-2.2012,-2.3476,-2.658,-3.0727,-3.2661,-3.129,-3.1682,-3.2792,-3.4605,-3.4841,-3.5454,-3.6953,-3.7106,-3.7098,-3.7113,-3.7304,-3.7389,-3.7315,-3.6866,-3.654,-3.6462,-3.5923,-3.5489,-3.534,-3.5295,-3.534,-3.5489,-3.5489,-3.5489,-3.5489,-3.5489,-3.5489,-3.5489,-3.5489,-3.5489,-3.5489,-3.5489,-3.5489,-3.5489,-3.5489,-3.5489,-3.5489,-3.5489,-3.5554,-3.5767,-3.5701,-3.564,-3.5686,-3.5719,-3.5734,-3.7492,0.0,-3.7492,-3.7107,0.0,-3.6492,-3.5352,-3.3488,-3.4137,-3.4814,-3.5537,-3.6199,-3.6492,-3.6445,-3.5829,-3.5521,-3.5491,-3.4783,-3.4845,-3.5491,-3.5507,-3.5521,-3.5491,-3.5506,-3.4937,-3.3906,-3.3229,-3.2579,-3.1917,-3.1578,-3.0705,-2.9412,-2.9725,-2.9371,-2.8387,-2.9027,-2.8873,-2.7888,-2.8227,-2.8411,-2.835,-2.7365,-2.6327,-2.5342,-2.5333,0.0,0.0,0.0,0.0,0.0,0.0,0.0,0.0,0.0,0.0,-2.4081,-2.2052,-2.0868,-2.1237,-2.2536,-2.3871,-2.5241,-2.7165,-2.7457,-2.5472,-2.5318,-2.6565,-2.9612,-3.3133,-3.4927,-3.43,-3.4744,-3.5535,-3.668,-3.708,-3.7477,-3.7901,-3.7967,-3.7853,-3.7734,-3.7554,-3.7195,-3.6537,-3.6821,-3.6791,-3.6522,-3.6207,-3.5983,-3.5953,-3.5699,-3.5504,-3.5489,-3.5489,-3.5489,-3.5489,-3.5489,-3.5489,-3.5489,-3.5489,-3.5489,-3.5489,-3.5489,-3.5489,-3.5489,-3.5489,-3.5489,-3.5489,-3.5489,-3.5522,-3.5619,-3.5554,-3.5537,-3.5733,-3.5893,-3.602,-3.8508,-3.8508,-3.8508,-3.7861,-3.6846,-3.6861,-3.6215,-3.5275,0.0,0.0,0.0,-3.6738,-3.6769,-3.6599,-3.5507,-3.4967,-3.4782,-3.3644,-3.3737,-3.4844,-3.4859,-3.5353,-3.6307,-3.6307,-3.5999,-3.5321,-3.4782,-3.3919,-3.2767,-3.2074,-3.1413,-3.0801,-3.0632,-3.0509,-3.0432,-3.0951,-3.0689,-2.9643,-2.9571,-2.9571,-2.9556,-2.9243,-2.7895,-2.5542,-2.5964,-2.5309,-2.3394,-2.3825,-2.381,-2.3163,-2.324,-2.3009,-2.2375,-2.2778,-2.3625,-2.4872,-2.4518,-2.4441,-2.501,-2.6318,-2.775,-2.9181,-3.132,-3.1582,-2.9273,-2.9335,-3.0428,-3.2752,-3.5262,-3.6705,-3.6613,-3.7117,-3.7628,-3.8046,-3.8451,-3.8571,-3.8432,-3.8257,-3.8138,-3.8078,-3.7674,-3.7075,-3.6267,-3.6851,-3.724,-3.6791,-3.6671,-3.6656,-3.6567,-3.6118,-3.5759,-3.5818,-3.5684,-3.5549,-3.5699,-3.5564,-3.5519,-3.5489,-3.5489,-3.5489,-3.5489,-3.5489,-3.5489,-3.5489,-3.5489,-3.5489,-3.5489,-3.5489,-3.5489,-3.5489,-3.5489,-3.5489,-3.5522,-3.5716,-3.5878,-3.8523,-3.8508,-3.8508,-3.84,-3.8231,-3.8231,-3.8123,-3.7861,-3.6923,-3.6507,-3.6569,-3.7723,-3.7892,-3.7353,-3.7169,-3.6753,-3.6199,-3.5999,-3.6061,-3.6199,-3.6215,-3.5984,-3.563,-3.566,-3.5306,-3.4674,-3.4551,-3.4412,-3.415,-3.3444,-3.2767,-3.2121,-3.1536,-3.0982,-3.0463,-3.0494,-3.0432,-3.0263,-3.0248,-3.0248,-3.0233,-2.8565,-2.7265,-2.6287,-2.578,-2.4773,-2.3379,-2.344,-2.3117,-2.2486,-2.2994,-2.384,-2.5035,-2.5518,-2.6411,-2.7688,-2.7734,-2.7734,-2.7827,-2.9089,-3.0648,-3.249,-3.3059,-3.2844,-3.1982,-3.2936,-3.4058,-3.5045,-3.6653,-3.7479,-3.7038,-3.728,-3.771,-3.8182,-3.7907,-3.7813,-3.8272,-3.7898,-3.7719,-3.8033,-3.7689,-3.7554,-3.7554,-3.7509,-3.7449,-3.73,-3.7285,-3.7285,-3.7195,-3.6746,-3.6462,-3.6462,-3.5983,-3.5893,-3.6327,-3.5953,-3.5684,-3.5489,-3.5579,-3.5654,-3.5669,-3.5549,-3.5549,-3.5534,-3.5639,-3.5609,-3.5579,-3.5489,-3.5594,-3.5624,-3.5669,-3.5654,-3.5669,-3.5689,-3.5677,-3.9567,-3.9567,-3.9567,-3.9567,-3.9567,-3.9601,-3.9567,-3.9521,-3.897,-3.8262,-3.7677,-3.8246,-3.8338,-3.8,-3.7292,-3.6584,-3.5907,-3.5168,-3.5014,-3.5414,-3.5414,-3.566,-3.5999,-3.603,-3.5861,-3.5568,-3.5229,-3.5044,-3.4998,-3.4335,-3.3858,-3.3488,-3.2502,-3.1428,-3.0494,-3.0782,-3.0951,-3.0951,-3.0951,-3.0951,-3.092,-3.0043,-2.9243,-2.8596,-2.8218,-2.7418,-2.6118,-2.6426,-2.6318,-2.5641,-2.5903,-2.6411,-2.7119,-2.7026,-2.7211,-2.7811,-2.7857,-2.7857,-2.7842,-2.9797,-3.149,-3.2767,-3.3819,-3.4295,-3.4091,-3.4335,-3.503,-3.629,-3.7347,-3.7974,-3.8068,-3.8186,-3.8351,-3.8552,-3.8262,-3.8032,-3.7873,-3.7614,-3.7509,-3.7674,-3.7554,-3.7494,-3.7704,-3.7838,-3.7943,-3.7928,-3.7928,-3.7943,-3.7943,-3.7704,-3.7404,-3.718,-3.6757,-3.6731,-3.7045,-3.6821,-3.6567,-3.6552,-3.6537,-3.6537,-3.6477,-3.6088,-3.5863,-3.6387,-3.6537,-3.6537,-3.6507,-3.6357,-3.6327,-3.6537,-3.6776,-3.6821,-3.6641,-3.6537,-3.6297,-4.0489,-4.0489,-4.0489,-4.0489,-4.0489,-4.0489,-4.0489,-4.0489,-4.0474,-3.9905,-3.9046,-3.897,-3.8877,-3.8631,-3.7631,-3.6799,-3.6061,-3.4891,-3.4645,-3.5136,-3.5028,-3.5506,-3.6399,-3.6492,-3.6492,-3.643,-3.5953,-3.5707,-3.563,-3.5059,-3.4659,-3.4397,-3.3229,-3.2028,-3.0905,-3.1213,-3.1305,-3.1182,-3.132,-3.1424,-3.1424,-3.1424,-3.1074,-3.0463,-3.0525,-3.0012,-2.8765,-2.911,-2.9104,-2.8473,-2.855,-2.8627,-2.8627,-2.8288,-2.8011,-2.7873,-2.7857,-2.7996,-2.8396,-3.0515,-3.2198,-3.3059,-3.4419,-3.5401,-3.5645,-3.5245,-3.5584,-3.7022,-3.7889,-3.8478,-3.8834,-3.9042,-3.9013,-3.8843,-3.8542,-3.8082,-3.7543,-3.7285,-3.727,-3.7375,-3.7539,-3.7689,-3.7898,-3.8302,-3.8601,-3.8616,-3.8616,-3.8616,-3.8616,-3.8616,-3.8392,-3.8048,-3.7868,-3.7778,-3.7704,-3.7793,-3.7704,-3.7539,-3.736,-3.7285,-3.7165,-3.6507,-3.6327,-3.715,-3.7674,-3.7614,-3.7464,-3.715,-3.706,-3.7225,-3.7479,-3.7689,-3.7375,-3.73,-3.712,-4.0489,-4.0489,-4.0489,-4.0489,-4.0489,-4.0489,-4.0489,-4.0489,-4.0489,-4.0443,-4.0228,-4.0339,-3.9936,-3.9444,-3.9262,-3.88,-3.8123,-3.7461,-3.7123,-3.7092,-3.6584,-3.6384,-3.6538,-3.6492,-3.6492,-3.6476,-3.6399,-3.6338,-3.6292,-3.5707,-3.5121,-3.4489,-3.369,-3.2967,-3.2244,-3.1732,-3.1136,-3.0525,-3.1089,-3.1424,-3.1424,-3.1424,-3.1074,-3.0417,-3.0982,-3.0674,-2.9396,-2.9356,-2.9095,-2.8519,-2.8996,-2.9279,-2.935,-2.9812,-2.9817,-2.9233,-2.9212,-2.9735,-3.0946,-3.2382,-3.3721,-3.5059,-3.5322,-3.5753,-3.6322,-3.6322,-3.6599,-3.7533,-3.8568,-3.9164,-3.9061,-3.9194,-3.9301,-3.9116,-3.8292,-3.7464,-3.7375,-3.6911,-3.6776,-3.736,-3.7958,-3.8527,-3.8975,-3.9185,-3.9224,-3.9215,-3.9164,-3.92,-3.9179,-3.9215,-3.9179,-3.9134,-3.92,-3.8901,-3.8527,-3.8841,-3.8601,-3.7749,-3.7449,-3.7554,-3.7554,-3.7479,-3.7345,-3.7734,-3.8407,-3.8596,-3.7878,-3.736,-3.7449,-3.7644,-3.7719,-3.7569,-3.7434,-3.7524,-3.7434,-4.0489,-4.0489,-4.0489,-4.0489,-4.0489,-4.0489,-4.0489,-4.0489,-4.0489,-4.0489,-4.0489,-4.0489,-4.0336,-4.0074,-4.0074,-3.9705,-3.9059,-3.8831,-3.8477,-3.8061,-3.74,-3.7092,-3.7061,-3.6661,-3.6492,-3.6492,-3.6492,-3.6492,-3.6445,-3.6199,-3.5768,-3.5152,-3.4768,-3.432,-3.3673,-3.338,-3.2875,-3.2198,-3.2044,-3.1797,-3.1428,-3.1424,-3.1074,-3.0509,-3.0648,-3.0571,-3.0089,-2.9971,-2.9848,-2.9617,-2.9874,-2.9802,-2.9443,-2.9756,-2.9812,-2.9473,-2.9771,-3.0412,-3.132,-3.2672,-3.3829,-3.4859,-3.5477,-3.6089,-3.6811,-3.6487,-3.6775,-3.822,-3.9213,-3.9611,-3.9279,-3.9331,-3.9275,-3.8841,-3.8287,-3.7838,-3.7434,-3.7539,-3.7734,-3.8003,-3.8586,-3.908,-3.9298,-3.9388,-3.9388,-3.9388,-3.9388,-3.9388,-3.9388,-3.9388,-3.9388,-3.9388,-3.9388,-3.9284,-3.9065,-3.92,-3.9059,-3.873,-3.8566,-3.8601,-3.8542,-3.8586,-3.8566,-3.8556,-3.9,-3.9209,-3.8796,-3.8601,-3.8586,-3.8491,-3.8536,-3.8601,-3.8551,-3.8566,-3.8601,-4.0489,-4.0489,-4.0489,-4.0489,-4.0489,-4.0489,-4.0489,-4.0489,-4.0489,-4.0489,-4.0489,-4.0489,-4.0489,-4.0489,-4.0489,-4.0213,-3.9782,-3.9567,-3.9228,-3.8739,-3.8092,-3.7784,-3.7707,-3.7076,-3.6769,-3.6738,-3.6584,-3.6492,-3.6492,-3.6492,-3.623,-3.5829,-3.5568,-3.523,-3.4797,-3.4628,-3.4229,-3.369,-3.3226,-3.2644,-3.2028,-3.1751,-3.1259,-3.0509,-3.0597,-3.0689,-3.0648,-3.0494,-3.0479,-3.0648,-3.0689,-3.0474,-2.9997,-3.0243,-3.0366,-3.0258,-3.0505,-3.1059,-3.189,-3.3044,-3.4075,-3.4983,-3.5722,-3.6374,-3.6941,-3.6784,-3.7279,-3.8637,-3.9461,-3.9676,-3.9568,-3.9281,-3.896,-3.8691,-3.8385,-3.7907,-3.7774,-3.7998,-3.81,-3.8402,-3.8931,-3.9388,-3.9388,-3.9388,-3.9388,-3.9388,-3.9388,-3.9265,-3.9192,-3.9192,-3.9352,-3.9156,-3.9228,-3.9388,-3.9388,-3.9373,-3.9388,-3.9388,-3.9284,-3.9269,-3.9388,-3.9373,-3.9373,-3.9,-3.9284,-3.9343,-3.9149,-3.9239,-3.9313,-3.9373,-3.9343,-3.9298,-3.9209,-3.9343,-3.9343,-4.0489,-4.0489,-4.0489,-4.0489,-4.0489,-4.0489,-4.0489,-4.0489,-4.0489,-4.0489,-4.0489,-4.0489,-4.0489,-4.0489,-4.0489,-4.0474,-4.0336,-3.9813,-3.9554,-3.9367,-3.8769,-3.8477,-3.8383,-3.7784,-3.7461,-3.74,-3.6846,-3.6538,-3.6507,-3.6492,-3.6492,-3.6399,-3.583,-3.5491,-3.5368,-3.4921,-3.452,-3.4443,-3.4366,-3.3998,-3.3321,-3.269,-3.1797,-3.0755,-3.0997,-3.1243,-3.1259,-3.0751,-3.072,-3.1347,-3.1378,-3.1305,-3.1332,-3.1828,-3.209,-3.2167,-3.169,-3.1936,-3.3152,-3.3983,-3.4953,-3.6061,-3.6212,-3.65,-3.7164,-3.7461,-3.7914,-3.8656,-3.9157,-3.9517,-3.9457,-3.9011,-3.8856,-3.9143,-3.809,-3.7745,-3.8256,-3.7665,-3.7701,-3.8213,-3.879,-3.9111,-3.9265,-3.9388,-3.9265,-3.9265,-3.9352,-3.9156,-3.8738,-3.8995,-3.9083,-3.8775,-3.8958,-3.9388,-3.9388,-3.9388,-3.9388,-3.9388,-3.9388,-3.9388,-3.9388,-3.9388,-3.9388,-3.9388,-3.9388,-3.9388,-3.9388,-3.9388,-3.9373,-3.9388,-3.9388,-3.9388,-3.9388,-3.9388,-3.9388,-4.0489,-4.0489,-4.0489,-4.0489,-4.0489,-4.0489,-4.0489,-4.0489,-4.0489,-4.0489,-4.0489,-4.0489,-4.0489,-4.0489,-4.0489,-4.0489,-4.0459,-4.0228,-4.0136,-4.0059,-3.9477,-3.9121,-3.9077,-3.8477,-3.8154,-3.8061,-3.7461,-3.6907,-3.6522,-3.6492,-3.6492,-3.6476,-3.6292,-3.6138,-3.6122,-3.5907,-3.5598,-3.5183,-3.5167,-3.4813,-3.4181,-3.3844,-3.3275,-3.2308,-3.1289,-3.0966,-3.1409,-3.1166,-3.1351,-3.2013,-3.2013,-3.1828,-3.1486,-3.1613,-3.2367,-3.3503,-3.3075,-3.3034,-3.3867,-3.4558,-3.5263,-3.601,-3.6398,-3.6688,-3.7227,-3.7505,-3.7804,-3.8352,-3.8999,-3.925,-3.8877,-3.8882,-3.9104,-3.9211,-3.848,-3.7847,-3.8025,-3.7535,-3.713,-3.7385,-3.7661,-3.789,-3.8196,-3.8032,-3.8046,-3.8538,-3.8627,-3.8701,-3.8958,-3.9228,-3.9228,-3.9068,-3.9192,-3.9388,-3.9388,-3.9388,-3.9388,-3.9388,-3.9388,-3.9388,-3.9388,-3.9388,-3.9388,-3.9388,-3.9388,-3.9316,-3.9301,-3.9352,-3.9352,-3.928,-3.9316,-3.9388,-3.9388,-3.9388,-3.9388,-4.0489,-4.0489,-4.0489,-4.0489,-4.0489,-4.0489,-4.0489,-4.0489,-4.0489,-4.0489,-4.0489,-4.0489,-4.0489,-4.0489,-4.0489,-4.0489,-4.0489,-4.0489,-4.0489,-4.0459,-4.0013,-3.9813,-3.9705,-3.9121,-3.8831,-3.8692,-3.7923,-3.7153,-3.6553,-3.6492,-3.6492,-3.6492,-3.6492,-3.6492,-3.6492,-3.6492,-3.6245,-3.5891,-3.5814,-3.5598,-3.5183,-3.4936,-3.4613,-3.3937,-3.2552,-3.1813,-3.2028,-3.1655,-3.1705,-3.2259,-3.2198,-3.1994,-3.1778,-3.2163,-3.297,-3.4037,-3.3662,-3.35,-3.4015,-3.4431,-3.4899,-3.5439,-3.594,-3.6435,-3.691,-3.677,-3.707,-3.7833,-3.8285,-3.836,-3.8211,-3.836,-3.8598,-3.8523,-3.7872,-3.7529,-3.7668,-3.7011,-3.6788,-3.7084,-3.7098,-3.7088,-3.7127,-3.7011,-3.7256,-3.7744,-3.7985,-3.8427,-3.8523,-3.887,-3.901,-3.8973,-3.8634,-3.8598,-3.8546,-3.8472,-3.8995,-3.9104,-3.9265,-3.9316,-3.9352,-3.9352,-3.9388,-3.9388,-3.9316,-3.9228,-3.9228,-3.9265,-3.9192,-3.9083,-3.928,-3.9388,-3.9388,-3.9388,-3.9388,-4.052,-4.0489,-4.0489,-4.0489,-4.0489,-4.0489,-4.0489,-4.0489,-4.0489,-4.0489,-4.0489,-4.0489,-4.0489,-4.0489,-4.0489,-4.0489,-4.0489,-4.0489,-4.0489,-4.0474,-4.0443,-4.0413,-4.0366,-3.9782,-3.9367,-3.9228,-3.8138,-3.72,-3.6538,-3.6492,-3.6492,-3.6492,-3.6492,-3.6492,-3.6492,-3.6492,-3.6476,-3.6399,-3.6384,-3.6399,-3.6399,-3.5829,-3.546,-3.5383,-3.4705,-3.406,-3.349,-3.2287,-3.1994,-3.241,-3.1967,-3.184,-3.2567,-3.3378,-3.4147,-3.3834,-3.3408,-3.3351,-3.3745,-3.383,-3.4163,-3.4795,-3.508,-3.5682,-3.6094,-3.5737,-3.5976,-3.7192,-3.7165,-3.7049,-3.7434,-3.7242,-3.7074,-3.6894,-3.6478,-3.6294,-3.6582,-3.6201,-3.6136,-3.7025,-3.6894,-3.6621,-3.636,-3.6306,-3.6621,-3.6947,-3.7438,-3.7758,-3.741,-3.7805,-3.8113,-3.8075,-3.7805,-3.7677,-3.7525,-3.7448,-3.8196,-3.8833,-3.9031,-3.9156,-3.9156,-3.9192,-3.9352,-3.9388,-3.9083,-3.8958,-3.8612,-3.8649,-3.8472,-3.8435,-3.887,-3.9156,-3.9156,-3.9119,-3.9352,-4.0986,-4.0505,-4.0489,-4.0489,-4.0489,-4.0489,-4.0489,-4.0489,-4.0489,-4.0489,-4.0489,-4.0489,-4.0489,-4.0489,-4.0489,-4.0489,-4.0489,-4.0489,-4.0489,-4.0489,-4.0489,-4.0489,-4.0443,-4.0274,-3.969,-3.8908,-3.8415,-3.76,-3.6692,-3.6507,-3.6492,-3.6492,-3.6492,-3.6492,-3.6492,-3.6492,-3.6492,-3.6492,-3.6492,-3.6492,-3.6492,-3.6292,-3.6168,-3.6153,-3.5999,-3.5753,-3.5476,-3.4258,-3.3673,-3.3814,-3.3658,-3.3642,-3.3671,-3.3018,-3.2949,-3.358,-3.3155,-3.3245,-3.3994,-3.4128,-3.4411,-3.5249,-3.5574,-3.5715,-3.5894,-3.6056,-3.6252,-3.6529,-3.5776,-3.5534,-3.6281,-3.6281,-3.6267,-3.6816,-3.6201,-3.5749,-3.5896,-3.5345,-3.5073,-3.5291,-3.5291,-3.5101,-3.5019,-3.5169,-3.5534,-3.6002,-3.6373,-3.6517,-3.6894,-3.7049,-3.7295,-3.7256,-3.6996,-3.6958,-3.7204,-3.7049,-3.7179,-3.7843,-3.8285,-3.8523,-3.8649,-3.876,-3.9031,-3.9031,-3.876,-3.8449,-3.815,-3.7985,-3.7767,-3.7767,-3.8023,-3.83,-3.8575,-3.8885,-3.9228,-4.1186,-4.052,-4.0489,-4.0489,-4.0489,-4.0489,-4.0489,-4.0489,-4.0489,-4.0489,-4.0489,-4.0489,-4.0489,-4.0489,-4.0489,-4.0489,-4.0489,-4.0489,-4.0489,-4.0489,-4.0489,-4.0489,-4.0489,-4.0489,-3.9967,-3.9093,-3.8877,-3.8185,-3.6923,-3.6861,-3.6753,-3.6538,-3.6492,-3.6492,-3.6492,-3.6492,-3.6492,-3.6492,-3.6492,-3.6492,-3.6492,-3.6492,-3.6492,-3.6399,-3.6367,-3.6352,-3.6259,-3.5493,-3.4941,-3.4726,-3.444,-3.403,-3.3469,-3.2785,-3.2554,-3.2542,-3.2709,-3.2954,-3.3698,-3.3689,-3.4053,-3.4867,-3.5225,-3.5287,-3.5305,-3.5762,-3.5762,-3.5386,-3.4868,-3.4675,-3.5264,-3.5332,-3.5454,-3.5869,-3.5494,-3.5237,-3.5114,-3.4758,-3.4481,-3.4509,-3.4481,-3.4397,-3.4397,-3.4397,-3.4592,-3.5155,-3.5507,-3.5776,-3.632,-3.6425,-3.6543,-3.6464,-3.6108,-3.6425,-3.7127,-3.6855,-3.6306,-3.6777,-3.7333,-3.7577,-3.7729,-3.7881,-3.8107,-3.8032,-3.7805,-3.7501,-3.7193,-3.7218,-3.7127,-3.7218,-3.7116,-3.7947,-3.8464,-3.8995,-3.9352,-4.1217,-4.0536,-4.0489,-4.0489,-4.0489,-4.0489,-4.0489,-4.0489,-4.0489,-4.0489,-4.0489,-4.0489,-4.0489,-4.0489,-4.0489,-4.0489,-4.0489,-4.0489,-4.0489,-4.0489,-4.0489,-4.0489,-4.0489,-4.0489,-4.009,-3.949,-3.9398,-3.8769,-3.76,-3.743,-3.7184,-3.6676,-3.6569,-3.6492,-3.6492,-3.6492,-3.6476,-3.646,-3.646,-3.646,-3.6429,-3.646,-3.6352,-3.6211,-3.6179,-3.6163,-3.6038,-3.5775,-3.5517,-3.5124,-3.422,-3.3184,-3.2419,-3.2976,-3.2566,-3.1371,-3.1896,-3.2517,-3.285,-3.3086,-3.3278,-3.3911,-3.4359,-3.4397,-3.4551,-3.4675,-3.4716,-3.4592,-3.4481,-3.4397,-3.4522,-3.4522,-3.4564,-3.4439,-3.4592,-3.4522,-3.4439,-3.4397,-3.4397,-3.4397,-3.4397,-3.4397,-3.4397,-3.4397,-3.4439,-3.4592,-3.5114,-3.5426,-3.5548,-3.5696,-3.6002,-3.5762,-3.5332,-3.5762,-3.6439,-3.5923,-3.5494,-3.6082,-3.6478,-3.6478,-3.6908,-3.7127,-3.7357,-3.7242,-3.6933,-3.6596,-3.6399,-3.6439,-3.6042,-3.5575,-3.6215,-3.7567,-3.8188,-3.8412,-3.8745,-4.1632,-4.0536,-4.0489,-4.0489,-4.0489,-4.0489,-4.0489,-4.0489,-4.0489,-4.0489,-4.0489,-4.0489,-4.0489,-4.0489,-4.0489,-4.0489,-4.0489,-4.0489,-4.0489,-4.0489,-4.0489,-4.0489,-4.0489,-4.0489,-4.0151,-3.9582,-3.9536,-3.9062,-3.8262,-3.7831,-3.7461,-3.723,-3.6753,-3.6507,-3.6492,-3.6492,-3.6414,-3.6305,-3.6274,-3.6211,-3.6178,-3.6147,-3.61,-3.6068,-3.6022,-3.599,-3.5894,-3.5317,-3.5029,-3.4884,-3.3545,-3.2994,-3.2885,-3.2291,-3.1616,-3.1275,-3.158,-3.2206,-3.2711,-3.3119,-3.3561,-3.4097,-3.4293,-3.4397,-3.4397,-3.4397,-3.4397,-3.4397,-3.4397,-3.4397,-3.4397,-3.4397,-3.4397,-3.4397,-3.4397,-3.4397,-3.4397,-3.4397,-3.4397,-3.4397,-3.4397,-3.4397,-3.4397,-3.4397,-3.4397,-3.4439,-3.4634,-3.484,-3.4909,-3.4909,-3.5182,-3.495,-3.4744,-3.5182,-3.5386,-3.4868,-3.484,-3.5467,-3.5615,-3.5332,-3.5923,-3.6503,-3.6777,-3.6972,-3.6241,-3.5816,-3.5669,-3.5615,-3.4909,-3.4439,-3.5426,-3.6702,-3.6727,-3.6869,-3.741,-4.154,-4.0505,-4.0489,-4.0489,-4.0489,-4.0489,-4.0489,-4.0489,-4.0489,-4.0489,-4.0489,-4.0489,-4.0489,-4.0489,-4.0489,-4.0489,-4.0489,-4.0489,-4.0489,-4.0489,-4.0489,-4.0489,-4.0489,-4.0489,-4.0274,-3.9967,-3.9905,-3.9536,-3.9,-3.8523,-3.8077,-3.7475,-3.7012,-3.6674,-3.6352,-3.6289,-3.6273,-3.6132,-3.6116,-3.6053,-3.6005,-3.602,-3.5941,-3.5831,-3.5591,-3.5285,-3.4795,-3.3993,-3.365,-3.3581,-3.2883,-3.2398,-3.2434,-3.164,-3.1024,-3.1037,-3.1313,-3.181,-3.2568,-3.3038,-3.3574,-3.4201,-3.4397,-3.4397,-3.4397,-3.4397,-3.4397,-3.4397,-3.4397,-3.4397,-3.4397,-3.4397,-3.4397,-3.4397,-3.4397,-3.4397,-3.4397,-3.4397,-3.4397,-3.4397,-3.4397,-3.4397,-3.4397,-3.4397,-3.4397,-3.4397,-3.4397,-3.4481,-3.4481,-3.4397,-3.4437,-3.4476,-3.4559,-3.5015,-3.5262,-3.4905,-3.4835,-3.5344,-3.5248,-3.485,-3.514,-3.5831,-3.5762,-3.5803,-3.5386,-3.5155,-3.5073,-3.495,-3.4675,-3.4634,-3.5277,-3.5629,-3.5816,-3.5976,-3.6425,-4.117,-4.0489,-4.0489,-4.0489,-4.0489,-4.0489,-4.0489,-4.0489,-4.0489,-4.0489,-4.0489,-4.0489,-4.0489,-4.0489,-4.0489,-4.0489,-4.0489,-4.0489,-4.0489,-4.0489,-4.0489,-4.0489,-4.0489,-4.0489,-4.0459,-4.0382,-4.0474,-4.0136,-3.9594,-3.9425,-3.8795,-3.7962,-3.7464,-3.6989,-3.6636,-3.6327,-3.6127,-3.6125,-3.6019,-3.5941,-3.5846,-3.5735,-3.5512,-3.535,-3.4728,-3.4041,-3.3318,-3.2613,-3.229,-3.2304,-3.2087,-3.1713,-3.1161,-3.1024,-3.1024,-3.1039,-3.1182,-3.1653,-3.2398,-3.2672,-3.3156,-3.4018,-3.4267,-3.4371,-3.4371,-3.4397,-3.4397,-3.4397,-3.4397,-3.4397,-3.4397,-3.4397,-3.4397,-3.4397,-3.4397,-3.4397,-3.4397,-3.4397,-3.4397,-3.4397,-3.4397,-3.4397,-3.4397,-3.4397,-3.4397,-3.4397,-3.4397,-3.4397,-3.4397,-3.4397,-3.4515,-3.4659,-3.4771,-3.4886,-3.5065,-3.5065,-3.5161,-3.5368,-3.5103,-3.4811,-3.4771,-3.5025,-3.4699,-3.4522,-3.4716,-3.4758,-3.4592,-3.4481,-3.4397,-3.4509,-3.495,-3.5264,-3.5494,-3.5615,-3.5923,-4.117,-4.0489,-4.0489,-4.0489,-4.0489,-4.0489,-4.0489,-4.0489,-4.0489,-4.0489,-4.0489,-4.0489,-4.0489,-4.0489,-4.0489,-4.0489,-4.0489,-4.0489,-4.0489,-4.0489,-4.0489,-4.0489,-4.0505,-4.047,-4.0489,-4.0489,-4.0489,-4.0343,-4.006,-3.9531,-3.9081,-3.8625,-3.7998,-3.7658,-3.7446,-3.6912,-3.668,-3.6491,-3.6067,-3.5774,-3.5547,-3.5063,-3.4691,-3.4528,-3.3856,-3.3143,-3.2506,-3.2196,-3.1846,-3.1431,-3.1296,-3.1222,-3.1061,-3.1024,-3.1024,-3.1065,-3.1392,-3.1706,-3.2045,-3.2489,-3.2986,-3.3679,-3.3914,-3.394,-3.4371,-3.4397,-3.4397,-3.4397,-3.4397,-3.4397,-3.4397,-3.4397,-3.4397,-3.4397,-3.4397,-3.4397,-3.4397,-3.4397,-3.4397,-3.445,-3.445,-3.4424,-3.445,-3.4541,-3.4515,-3.4437,-3.445,-3.4424,-3.4476,-3.4541,-3.4724,-3.4999,-3.5005,-3.5128,-3.5434,-3.5437,-3.5471,-3.5529,-3.5289,-3.509,-3.5025,-3.4842,-3.475,-3.458,-3.4439,-3.441,-3.4463,-3.4397,-3.4397,-3.4509,-3.4551,-3.4744,-3.4991,-3.5142,-3.5264,-4.0878,-4.0505,-4.0489,-4.0489,-4.0489,-4.0489,-4.0489,-4.0489,-4.0489,-4.0489,-4.0489,-4.0489,-4.0489,-4.0489,-4.0489,-4.0489,-4.0505,-4.0436,-4.0401,-4.0381,-4.0331,-4.0277,-4.0261,-4.0277,-4.0296,-4.0366,-4.0296,-4.0242,-4.005,-3.9756,-3.9417,-3.9009,-3.8512,-3.8084,-3.7839,-3.7394,-3.7143,-3.69,-3.6316,-3.5906,-3.5702,-3.475,-3.3774,-3.336,-3.2847,-3.234,-3.1676,-3.1566,-3.1357,-3.1086,-3.1024,-3.1024,-3.1024,-3.1024,-3.1024,-3.1052,-3.1222,-3.1562,-3.1836,-3.2372,-3.2947,-3.3548,-3.3809,-3.4097,-3.4332,-3.4397,-3.4397,-3.4397,-3.4397,-3.4397,-3.4397,-3.4397,-3.4397,-3.4397,-3.4397,-3.4397,-3.4397,-3.4397,-3.4593,-3.4789,-3.492,-3.5168,-3.5247,-3.5129,-3.5155,-3.5299,-3.5325,-3.5299,-3.5208,-3.5273,-3.5286,-3.5391,-3.5299,-3.5447,-3.5826,-3.5891,-3.5734,-3.5781,-3.5738,-3.5665,-3.5639,-3.5365,-3.509,-3.4881,-3.4659,-3.4554,-3.4567,-3.4489,-3.4397,-3.4439,-3.4481,-3.4397,-3.4481,-3.4758,-3.4786,-4.0489,-4.0489,-4.0489,-4.0489,-4.0489,-4.0489,-4.0489,-4.0489,-4.0489,-4.0489,-4.0489,-4.0489,-4.0489,-4.0489,-4.0489,-4.0489,-4.0455,-4.0381,-4.0327,-4.0312,-4.0137,-4.0081,-4.0046,-4.0031,-4.0031,-4.0207,-4.0101,-4.0031,-3.996,-3.9895,-3.9556,-3.9098,-3.8917,-3.8622,-3.8071,-3.753,-3.7312,-3.7178,-3.6297,-3.5826,-3.5683,-3.4637,-3.3514,-3.2653,-3.2388,-3.2011,-3.1461,-3.1283,-3.1142,-3.1037,-3.1065,-3.1065,-3.0986,-3.1024,-3.1024,-3.1024,-3.1039,-3.1326,-3.1758,-3.228,-3.279,-3.3496,-3.3953,-3.428,-3.4358,-3.4397,-3.4397,-3.4397,-3.4397,-3.4397,-3.4397,-3.4397,-3.4397,-3.4397,-3.4397,-3.4397,-3.4397,-3.441,-3.4737,-3.5368,-3.5456,-3.5665,-3.5979,-3.607,-3.6109,-3.6123,-3.6136,-3.6083,-3.5953,-3.5874,-3.5822,-3.5913,-3.5874,-3.5966,-3.6319,-3.6698,-3.6515,-3.6253,-3.6253,-3.6253,-3.624,-3.6096,-3.5796,-3.5221,-3.4972,-3.4855,-3.4646,-3.4463,-3.4397,-3.4397,-3.4397,-3.4397,-3.4397,-3.4397,-3.4397,-4.0489,-4.0489,-4.0489,-4.0489,-4.0489,-4.0489,-4.0489,-4.0489,-4.0489,-4.0489,-4.0489,-4.0489,-4.0489,-4.0489,-4.0489,-4.0489,-4.0455,-4.0347,-4.0242,-4.0207,-4.0031,-3.994,-3.994,-3.9818,-3.9803,-3.9839,-3.9889,-3.9889,-3.9768,-3.9702,-3.9606,-3.9388,-3.9185,-3.9014,-3.8612,-3.7956,-3.7222,-3.7056,-3.6045,-3.539,-3.5134,-3.4382,-3.3457,-3.2655,-3.2525,-3.2225,-3.1834,-3.1641,-3.1445,-3.1091,-3.1444,-3.1367,-3.1222,-3.1104,-3.1155,-3.1168,-3.1194,-3.1444,-3.185,-3.1993,-3.2594,-3.3287,-3.377,-3.4031,-3.428,-3.4397,-3.4397,-3.4397,-3.4397,-3.4397,-3.4397,-3.4397,-3.4397,-3.4397,-3.4397,-3.4397,-3.4397,-3.4515,-3.475,-3.5447,-3.5744,-3.6109,-3.6397,-3.6632,-3.6632,-3.658,-3.6554,-3.6384,-3.6149,-3.6136,-3.6149,-3.6305,-3.6502,-3.6658,-3.6881,-3.7286,-3.7403,-3.6959,-3.6854,-3.6867,-3.6854,-3.6854,-3.6541,-3.6096,-3.5508,-3.5142,-3.4881,-3.4515,-3.4397,-3.4397,-3.4397,-3.4397,-3.4397,-3.4397,-3.4397,-4.0489,-4.0489,-4.0489,-4.0489,-4.0489,-4.0489,-4.0489,-4.0489,-4.0489,-4.0489,-4.0489,-4.0489,-4.0489,-4.0489,-4.0489,-4.047,-4.0366,-4.0121,-4.0016,-3.9945,-3.9783,-3.9676,-3.9711,-3.9604,-3.9553,-3.9553,-3.964,-3.9676,-3.9553,-3.9553,-3.9445,-3.9337,-3.9046,-3.8775,-3.8531,-3.7616,-3.7105,-3.6727,-3.5906,-3.5253,-3.5187,-3.4322,-3.3397,-3.2883,-3.2712,-3.2542,-3.2385,-3.228,-3.2163,-3.1993,-3.2136,-3.2097,-3.194,-3.1862,-3.1875,-3.1862,-3.1836,-3.194,-3.2306,-3.2489,-3.3091,-3.3483,-3.3809,-3.4097,-3.4306,-3.4397,-3.4397,-3.4397,-3.4397,-3.4397,-3.4397,-3.4397,-3.4397,-3.4397,-3.4397,-3.4397,-3.4463,-3.4672,-3.4999,-3.5391,-3.5783,-3.6214,-3.6776,-3.6946,-3.7037,-3.7037,-3.6998,-3.675,-3.6436,-3.6502,-3.6606,-3.6881,-3.7116,-3.7181,-3.7325,-3.756,-3.7861,-3.7534,-3.7351,-3.7364,-3.739,-3.7351,-3.7338,-3.7142,-3.6502,-3.5796,-3.4894,-3.4463,-3.4437,-3.4397,-3.4397,-3.4397,-3.4397,-3.4397,-3.4397,-4.0489,-4.0489,-4.0489,-4.0489,-4.0455,-4.0455,-4.042,-4.0401,-4.0436,-4.047,-4.047,-4.047,-4.047,-4.0436,-4.0401,-4.0331,-4.0207,-3.9874,-3.9753,-3.9696,-3.9517,-3.9424,-3.9388,-3.9388,-3.9424,-3.946,-3.9424,-3.9388,-3.9388,-3.9192,-3.9156,-3.8848,-3.8352,-3.7962,-3.7715,-3.7031,-3.6777,-3.6425,-3.5883,-3.5454,-3.5143,-3.4362,-3.3548,-3.3104,-3.3025,-3.3038,-3.2908,-3.2881,-3.2751,-3.2672,-3.2738,-3.2803,-3.2738,-3.2908,-3.3025,-3.2999,-3.2842,-3.2751,-3.2973,-3.3208,-3.3522,-3.3835,-3.4162,-3.4332,-3.4397,-3.4397,-3.4397,-3.4397,-3.4397,-3.4397,-3.4397,-3.4397,-3.4397,-3.4397,-3.4397,-3.4424,-3.4502,-3.4659,-3.4829,-3.5247,-3.5757,-3.6292,-3.6841,-3.7351,-3.7456,-3.7482,-3.7442,-3.722,-3.6972,-3.7116,-3.7273,-3.756,-3.7743,-3.773,-3.7756,-3.7717,-3.7887,-3.7769,-3.7678,-3.7678,-3.7743,-3.7795,-3.7743,-3.7639,-3.7442,-3.6671,-3.5561,-3.4567,-3.4437,-3.4397,-3.4397,-3.4397,-3.4397,-3.4397,-3.4397,-4.0489,-4.0489,-4.0489,-4.0436,-4.0331,-4.0331,-4.0242,-4.0101,-4.0277,-4.0347,-4.0296,-4.0312,-4.0312,-4.0261,-4.0121,-4.0066,-3.996,-3.9803,-3.9646,-3.961,-3.9496,-3.9388,-3.9388,-3.9388,-3.9316,-3.9265,-3.928,-3.9388,-3.9119,-3.8575,-3.8352,-3.8188,-3.7539,-3.7049,-3.6986,-3.6241,-3.5843,-3.5709,-3.4991,-3.4592,-3.4579,-3.4376,-3.4188,-3.4136,-3.4058,-3.3875,-3.3535,-3.3456,-3.3313,-3.2908,-3.326,-3.3195,-3.296,-3.3705,-3.4084,-3.3901,-3.3417,-3.2921,-3.3391,-3.3613,-3.3849,-3.411,-3.4345,-3.4397,-3.4397,-3.4397,-3.4397,-3.4397,-3.4397,-3.4397,-3.4397,-3.4397,-3.4397,-3.4397,-3.4397,-3.4397,-3.445,-3.4515,-3.4698,-3.5038,-3.5521,-3.6227,-3.6881,-3.7416,-3.7874,-3.7887,-3.7848,-3.7599,-3.7482,-3.756,-3.7612,-3.7808,-3.79,-3.79,-3.79,-3.79,-3.79,-3.79,-3.79,-3.79,-3.79,-3.79,-3.79,-3.7795,-3.7691,-3.7639,-3.6867,-3.59,-3.4894,-3.4397,-3.4397,-3.4397,-3.4397,-3.4397,-3.4397,-4.0489,-4.0489,-4.0401,-4.0416,-4.0401,-4.0207,-4.0137,-4.0172,-4.0137,-4.0137,-4.0152,-4.0152,-4.0137,-4.0066,-3.991,-3.9839,-3.9818,-3.9625,-3.9517,-3.9517,-3.946,-3.9388,-3.9388,-3.9352,-3.9265,-3.8775,-3.8664,-3.8285,-3.8173,-3.815,-3.8037,-3.7386,-3.6674,-3.6201,-3.6148,-3.5372,-3.506,-3.4868,-3.4592,-3.4397,-3.4397,-3.4397,-3.4397,-3.4397,-3.4397,-3.4241,-3.411,-3.4045,-3.3953,-3.3705,-3.3966,-3.394,-3.3796,-3.411,-3.4384,-3.4332,-3.3979,-3.3822,-3.3992,-3.4018,-3.4162,-3.4293,-3.4397,-3.4397,-3.4397,-3.4397,-3.4397,-3.4397,-3.4397,-3.4397,-3.4397,-3.4397,-3.4397,-3.4397,-3.4397,-3.4397,-3.4397,-3.4397,-3.4541,-3.4907,-3.5365,-3.6188,-3.6946,-3.7482,-3.7874,-3.79,-3.79,-3.7782,-3.7717,-3.7769,-3.7808,-3.7861,-3.79,-3.79,-3.79,-3.79,-3.79,-3.79,-3.79,-3.79,-3.79,-3.79,-3.79,-3.79,-3.7821,-3.7782,-3.7782,-3.6933,-3.5639,-3.4959,-3.4397,-3.4397,-3.4397,-3.4397,-3.4397,-4.047,-4.0436,-4.0347,-4.0296,-4.0281,-4.0016,-3.996,-4.0031,-3.996,-3.9925,-3.9925,-3.9925,-3.9889,-3.9818,-3.9696,-3.961,-3.9625,-3.9445,-3.9424,-3.9388,-3.9352,-3.9228,-3.9083,-3.901,-3.8612,-3.7872,-3.7857,-3.7424,-3.7063,-3.7039,-3.7092,-3.6582,-3.5762,-3.5426,-3.5237,-3.4827,-3.4509,-3.4481,-3.4439,-3.4397,-3.4397,-3.4397,-3.4397,-3.4397,-3.4397,-3.4397,-3.4397,-3.4371,-3.4358,-3.4332,-3.4319,-3.428,-3.4293,-3.4319,-3.4397,-3.4384,-3.4241,-3.4254,-3.4306,-3.4332,-3.4397,-3.4397,-3.4397,-3.4397,-3.4397,-3.4397,-3.4397,-3.4397,-3.4397,-3.4397,-3.4397,-3.4397,-3.4397,-3.4397,-3.4397,-3.4397,-3.4424,-3.4502,-3.4541,-3.4737,-3.5351,-3.6345,-3.7037,-3.7573,-3.7835,-3.7887,-3.79,-3.79,-3.79,-3.79,-3.79,-3.79,-3.79,-3.79,-3.79,-3.79,-3.79,-3.79,-3.79,-3.79,-3.79,-3.79,-3.79,-3.79,-3.79,-3.7874,-3.7835,-3.7103,-3.6345,-3.5495,-3.4763,-3.4489,-3.4397,-3.4424,-3.4424,-4.0312,-4.0312,-4.0312,-4.0086,-3.9788,-3.9753,-3.9625,-3.9604,-3.9661,-3.9732,-3.9747,-3.9732,-3.9625,-3.9496,-3.9481,-3.9445,-3.9424,-3.9409,-3.9301,-3.9316,-3.9316,-3.8797,-3.8464,-3.815,-3.7872,-3.7102,-3.6972,-3.6557,-3.5976,-3.5896,-3.591,-3.5669,-3.5073,-3.4675,-3.4564,-3.4522,-3.4397,-3.4397,-3.4397,-3.4397,-3.4397,-3.4397,-3.4397,-3.4397,-3.4397,-3.4397,-3.4397,-3.4397,-3.4397,-3.4397,-3.4397,-3.4397,-3.4397,-3.4397,-3.4397,-3.4397,-3.4397,-3.4397,-3.4397,-3.4397,-3.4397,-3.4397,-3.4397,-3.4397,-3.4397,-3.4397,-3.4397,-3.4397,-3.4397,-3.4397,-3.4397,-3.4397,-3.4397,-3.4437,-3.4502,-3.4633,-3.4672,-3.4724,-3.475,-3.4711,-3.5404,-3.6528,-3.7181,-3.7704,-3.7848,-3.7887,-3.79,-3.79,-3.79,-3.79,-3.79,-3.79,-3.79,-3.79,-3.79,-3.79,-3.79,-3.79,-3.79,-3.79,-3.79,-3.79,-3.79,-3.79,-3.79,-3.79,-3.7848,-3.7325,-3.6684,-3.5757,-3.5155,-3.4933,-3.4698,-3.4646,-3.4607,-4.0066,-3.993,-3.9945,-3.991,-3.9854,-3.964,-3.9553,-3.9553,-3.9517,-3.9517,-3.9532,-3.9532,-3.9481,-3.9424,-3.9388,-3.9388,-3.9316,-3.8863,-3.8738,-3.8427,-3.8136,-3.7729,-3.7424,-3.7309,-3.6986,-3.632,-3.6122,-3.5682,-3.4991,-3.4991,-3.4909,-3.4758,-3.4564,-3.4481,-3.4397,-3.4397,-3.4397,-3.4397,-3.4397,-3.4397,-3.4397,-3.4397,-3.4397,-3.4397,-3.4397,-3.4397,-3.4397,-3.4397,-3.4397,-3.4397,-3.4397,-3.4397,-3.4397,-3.4397,-3.4397,-3.4397,-3.4397,-3.4397,-3.4397,-3.4397,-3.4397,-3.4397,-3.4397,-3.4397,-3.4397,-3.4397,-3.4397,-3.4397,-3.4463,-3.4554,-3.441,-3.441,-3.441,-3.4489,-3.4659,-3.4868,-3.4999,-3.5103,-3.5221,-3.5312,-3.6005,-3.6959,-3.7442,-3.7861,-3.7887,-3.79,-3.79,-3.79,-3.79,-3.79,-3.79,-3.79,-3.79,-3.79,-3.79,-3.79,-3.79,-3.79,-3.79,-3.79,-3.79,-3.79,-3.79,-3.79,-3.79,-3.79,-3.7821,-3.7639,-3.7077,-3.6279,-3.5783,-3.5456,-3.5221,-3.4972,-3.4946,-3.9839,-3.9681,-3.9625,-3.9696,-3.9783,-3.9532,-3.9496,-3.9589,-3.9445,-3.9388,-3.9388,-3.9388,-3.9388,-3.9388,-3.9388,-3.9192,-3.8922,-3.8464,-3.8113,-3.7744,-3.7295,-3.6777,-3.6621,-3.6425,-3.6122,-3.5507,-3.5277,-3.4909,-3.4522,-3.4397,-3.4481,-3.4481,-3.4397,-3.4397,-3.4397,-3.4397,-3.4397,-3.4397,-3.4397,-3.4397,-3.4397,-3.4397,-3.4397,-3.4397,-3.4397,-3.4397,-3.4397,-3.4397,-3.4397,-3.4397,-3.4397,-3.4397,-3.4397,-3.4397,-3.4397,-3.4397,-3.4397,-3.4397,-3.4397,-3.4397,-3.4397,-3.4397,-3.4397,-3.4397,-3.4397,-3.4397,-3.4397,-3.4437,-3.4633,-3.4842,-3.475,-3.4881,-3.5051,-3.5247,-3.5338,-3.5521,-3.5587,-3.5678,-3.5822,-3.5979,-3.6671,-3.7168,-3.756,-3.79,-3.79,-3.79,-3.79,-3.79,-3.79,-3.79,-3.79,-3.79,-3.79,-3.79,-3.79,-3.79,-3.79,-3.79,-3.79,-3.79,-3.79,-3.79,-3.79,-3.79,-3.79,-3.79,-3.7835,-3.773,-3.7377,-3.6881,-3.6371,-3.5835,-3.573,-3.5521,-3.5521,-3.9681,-3.9696,-3.9496,-3.9424,-3.946,-3.9424,-3.9424,-3.946,-3.9424,-3.9388,-3.9388,-3.9388,-3.9352,-3.9316,-3.9207,-3.8848,-3.8225,-3.8,-3.7644,-3.6986,-3.6543,-3.6267,-3.5923,-3.5588,-3.5332,-3.4634,-3.4564,-3.4592,-3.4397,-3.4397,-3.4397,-3.4397,-3.4397,-3.4397,-3.4397,-3.4397,-3.4397,-3.4397,-3.4397,-3.4397,-3.4397,-3.4397,-3.4397,-3.4397,-3.4397,-3.4397,-3.4397,-3.4397,-3.4397,-3.4397,-3.4397,-3.4397,-3.4397,-3.4397,-3.4397,-3.4397,-3.4397,-3.4397,-3.4397,-3.4397,-3.4397,-3.4397,-3.4397,-3.4397,-3.4397,-3.4397,-3.4489,-3.462,-3.526,-3.5574,-3.5639,-3.5639,-3.577,-3.5874,-3.594,-3.6123,-3.6175,-3.641,-3.6593,-3.6698,-3.6907,-3.722,-3.7612,-3.79,-3.79,-3.79,-3.79,-3.79,-3.79,-3.79,-3.79,-3.79,-3.79,-3.79,-3.79,-3.79,-3.79,-3.79,-3.79,-3.79,-3.79,-3.79,-3.79,-3.79,-3.79,-3.79,-3.79,-3.7887,-3.7547,-3.722,-3.6619,-3.6175,-3.6109,-3.6083,-3.6096,-3.9532,-3.9481,-3.9424,-3.9388,-3.9388,-3.9388,-3.9388,-3.9388,-3.9388,-3.9388,-3.9388,-3.9388,-3.9031,-3.8775,-3.859,-3.8188,-3.7386,-3.6649,-3.6215,-3.6122,-3.5642,-3.5142,-3.4909,-3.4868,-3.4703,-3.4481,-3.4397,-3.4397,-3.4397,-3.4397,-3.4397,-3.4397,-3.4397,-3.4397,-3.4397,-3.4397,-3.4397,-3.4397,-3.4397,-3.4397,-3.4397,-3.4397,-3.4397,-3.4397,-3.4397,-3.4397,-3.4397,-3.4397,-3.4397,-3.4397,-3.4397,-3.4397,-3.4397,-3.4397,-3.4397,-3.4397,-3.4397,-3.4397,-3.4397,-3.4397,-3.4397,-3.4397,-3.4397,-3.4397,-3.4397,-3.4397,-3.4593,-3.5038,-3.5744,-3.5992,-3.5953,-3.5953,-3.6044,-3.6136,-3.6279,-3.6606,-3.6815,-3.7194,-3.7456,-3.7495,-3.7625,-3.7586,-3.7808,-3.79,-3.79,-3.79,-3.79,-3.79,-3.79,-3.79,-3.79,-3.79,-3.79,-3.79,-3.79,-3.79,-3.79,-3.79,-3.79,-3.79,-3.79,-3.79,-3.79,-3.79,-3.79,-3.79,-3.79,-3.7887,-3.7835,-3.7508,-3.7011,-3.6724,-3.6711,-3.6698,-3.6698,-3.9388,-3.9388,-3.9388,-3.9243,-3.9068,-3.9265,-3.9265,-3.8958,-3.8708,-3.8671,-3.8922,-3.8958,-3.8738,-3.8315,-3.8127,-3.7453,-3.6557,-3.6016,-3.5345,-3.5277,-3.4758,-3.4564,-3.4481,-3.4397,-3.4481,-3.4397,-3.4397,-3.4397,-3.4397,-3.4397,-3.4397,-3.4397,-3.4397,-3.4397,-3.4397,-3.4397,-3.4397,-3.4397,-3.4397,-3.4397,-3.4397,-3.4397,-3.4397,-3.4397,-3.4397,-3.4397,-3.4397,-3.4397,-3.4397,-3.4397,-3.4397,-3.4397,-3.4397,-3.4397,-3.4397,-3.4397,-3.4397,-3.4397,-3.4397,-3.4397,-3.4397,-3.4397,-3.4397,-3.4397,-3.4397,-3.4397,-3.475,-3.5273,-3.6109,-3.6397,-3.6462,-3.6462,-3.6658,-3.6776,-3.6881,-3.722,-3.7338,-3.7704,-3.7769,-3.7861,-3.7887,-3.79,-3.79,-3.79,-3.79,-3.79,-3.79,-3.79,-3.79,-3.79,-3.79,-3.79,-3.79,-3.79,-3.79,-3.79,-3.79,-3.79,-3.79,-3.79,-3.79,-3.79,-3.79,-3.79,-3.79,-3.79,-3.79,-3.7874,-3.7848,-3.7782,-3.7547,-3.7364,-3.7325,-3.7273,-3.722,-3.9352,-3.9337,-3.9388,-3.89,-3.8427,-3.8811,-3.8723,-3.8098,-3.7319,-3.7448,-3.815,-3.815,-3.8,-3.8,-3.8,-3.7092,-3.5896,-3.5588,-3.5155,-3.4716,-3.4439,-3.4397,-3.4397,-3.4397,-3.4397,-3.4397,-3.4397,-3.4397,-3.4397,-3.4397,-3.4397,-3.4397,-3.4397,-3.4397,-3.4397,-3.4397,-3.4397,-3.4397,-3.4397,-3.4397,-3.4397,-3.4397,-3.4397,-3.4397,-3.4397,-3.4397,-3.4397,-3.4397,-3.4397,-3.4397,-3.4397,-3.4397,-3.4397,-3.4397,-3.4397,-3.4397,-3.4397,-3.4397,-3.4397,-3.4397,-3.4397,-3.4397,-3.4397,-3.4397,-3.4397,-3.4437,-3.4803,-3.5665,-3.6606,-3.6933,-3.7155,-3.7403,-3.7639,-3.7678,-3.7678,-3.7782,-3.7782,-3.7874,-3.7874,-3.79,-3.79,-3.79,-3.79,-3.79,-3.79,-3.79,-3.79,-3.79,-3.79,-3.79,-3.79,-3.79,-3.79,-3.79,-3.79,-3.79,-3.79,-3.79,-3.79,-3.79,-3.79,-3.79,-3.79,-3.79,-3.79,-3.79,-3.79,-3.79,-3.7887,-3.7808,-3.7743,-3.773,-3.7599,-3.7665,-3.7665,-3.8553,-3.8538,-3.8553,-3.8389,-3.8075,-3.7155,-3.6922,-3.7179,-3.6958,-3.7074,-3.7256,-3.7256,-3.7039,-3.6466,-3.6427,-3.5749,-3.5196,-3.4758,-3.4634,-3.4439,-3.4397,-3.4397,-3.4397,-3.4397,-3.4397,-3.4397,-3.4397,-3.4397,-3.4397,-3.4397,-3.4397,-3.4397,-3.4397,-3.4397,-3.4397,-3.4397,-3.4397,-3.4397,-3.4397,-3.4397,-3.4397,-3.4397,-3.4397,-3.4397,-3.4397,-3.4397,-3.4397,-3.4397,-3.4397,-3.4397,-3.4397,-3.4397,-3.4397,-3.4397,-3.4397,-3.4397,-3.4397,-3.4397,-3.4397,-3.4397,-3.4397,-3.4397,-3.4397,-3.4397,-3.4397,-3.4528,-3.4881,-3.5966,-3.6998,-3.7416,-3.7547,-3.7743,-3.79,-3.79,-3.79,-3.79,-3.79,-3.79,-3.79,-3.79,-3.79,-3.79,-3.79,-3.79,-3.79,-3.79,-3.79,-3.79,-3.79,-3.79,-3.79,-3.79,-3.79,-3.79,-3.79,-3.79,-3.79,-3.79,-3.79,-3.79,-3.79,-3.79,-3.79,-3.79,-3.79,-3.79,-3.79,-3.79,-3.79,-3.79,-3.7848,-3.7874,-3.79,-3.79,-3.79,-3.7668,-3.7706,-3.7706,-3.7515,-3.7014,-3.579,-3.5494,-3.5883,-3.5909,-3.6082,-3.6385,-3.6425,-3.6175,-3.587,-3.5749,-3.5318,-3.4522,-3.4481,-3.4439,-3.4439,-3.4397,-3.4397,-3.4397,-3.4397,-3.4397,-3.4397,-3.4397,-3.4397,-3.4397,-3.4397,-3.4397,-3.4397,-3.4397,-3.4397,-3.4397,-3.4397,-3.4397,-3.4397,-3.4397,-3.4397,-3.4397,-3.4397,-3.4397,-3.4397,-3.4397,-3.4397,-3.4397,-3.4397,-3.4397,-3.4397,-3.4397,-3.4397,-3.4397,-3.4397,-3.4397,-3.4397,-3.4397,-3.4397,-3.4397,-3.4397,-3.4397,-3.4397,-3.441,-3.4567,-3.458,-3.4659,-3.5391,-3.6292,-3.7194,-3.7874,-3.7887,-3.79,-3.79,-3.79,-3.79,-3.79,-3.79,-3.79,-3.79,-3.79,-3.79,-3.79,-3.79,-3.79,-3.79,-3.79,-3.79,-3.79,-3.79,-3.79,-3.79,-3.79,-3.79,-3.79,-3.7874,-3.7808,-3.7782,-3.7795,-3.79,-3.79,-3.7887,-3.7887,-3.7861,-3.7874,-3.79,-3.79,-3.79,-3.79,-3.79,-3.79,-3.79,-3.79,-3.79,-3.79,-3.79,-3.6802,-3.6802,-3.6788,-3.6346,-3.5548,-3.4799,-3.4481,-3.4397,-3.4564,-3.4881,-3.5507,-3.5588,-3.5548,-3.5386,-3.5386,-3.506,-3.4551,-3.4397,-3.4397,-3.4397,-3.4397,-3.4397,-3.4397,-3.4397,-3.4397,-3.4397,-3.4397,-3.4397,-3.4397,-3.4397,-3.4397,-3.4397,-3.4397,-3.4397,-3.4397,-3.4397,-3.4397,-3.4397,-3.4397,-3.4397,-3.4397,-3.4397,-3.4397,-3.4397,-3.4397,-3.4397,-3.4397,-3.4397,-3.4397,-3.4397,-3.4397,-3.4397,-3.4397,-3.4397,-3.4397,-3.4397,-3.4397,-3.4397,-3.4397,-3.4397,-3.4397,-3.4397,-3.441,-3.4789,-3.4946,-3.5038,-3.5744,-3.6554,-3.7442,-3.7835,-3.79,-3.79,-3.79,-3.79,-3.79,-3.79,-3.79,-3.79,-3.79,-3.79,-3.79,-3.79,-3.79,-3.79,-3.79,-3.79,-3.79,-3.79,-3.79,-3.79,-3.79,-3.79,-3.79,-3.7848,-3.7639,-3.7586,-3.7599,-3.7665,-3.7652,-3.7521,-3.7246,-3.7469,-3.7835,-3.7861,-3.79,-3.79,-3.79,-3.79,-3.79,-3.79,-3.79,-3.79,-3.79,-3.79,-3.79,-3.6016,-3.6002,-3.5976,-3.5507,-3.4758,-3.4522,-3.4397,-3.4397,-3.4397,-3.4522,-3.4716,-3.4716,-3.4758,-3.484,-3.484,-3.4592,-3.4481,-3.4397,-3.4397,-3.4397,-3.4397,-3.4397,-3.4397,-3.4397,-3.4397,-3.4397,-3.4397,-3.4397,-3.4397,-3.4397,-3.4397,-3.4397,-3.4397,-3.4397,-3.4397,-3.4397,-3.441,-3.4502,-3.4515,-3.4541,-3.458,-3.4463,-3.4397,-3.445,-3.4476,-3.4541,-3.4528,-3.4476,-3.4437,-3.4397,-3.4397,-3.4397,-3.4397,-3.4397,-3.4397,-3.4397,-3.4397,-3.4397,-3.4397,-3.441,-3.4437,-3.445,-3.458,-3.5116,-3.5456,-3.56,-3.6057,-3.6867,-3.7442,-3.7717,-3.79,-3.79,-3.79,-3.79,-3.79,-3.79,-3.79,-3.79,-3.79,-3.79,-3.79,-3.79,-3.79,-3.79,-3.79,-3.79,-3.79,-3.79,-3.79,-3.79,-3.7841,-3.7854,-3.7913,-3.7808,-3.7521,-3.7286,-3.7273,-3.6959,-3.6776,-3.6671,-3.6632,-3.705,-3.7495,-3.7782,-3.79,-3.79,-3.79,-3.79,-3.79,-3.79,-3.79,-3.79,-3.79,-3.79,-3.79,-3.4781,-3.4821,-3.5021,-3.484,-3.4439,-3.4397,-3.4397,-3.4397,-3.4397,-3.4397,-3.4397,-3.4397,-3.4397,-3.4397,-3.4397,-3.4397,-3.4397,-3.4397,-3.4397,-3.4397,-3.4397,-3.4397,-3.4397,-3.4397,-3.4397,-3.4397,-3.4397,-3.4397,-3.4397,-3.4397,-3.4397,-3.4397,-3.4397,-3.4397,-3.4397,-3.4424,-3.4567,-3.4803,-3.4776,-3.4907,-3.4999,-3.4959,-3.4999,-3.5025,-3.5142,-3.5116,-3.5155,-3.5155,-3.5168,-3.5051,-3.4999,-3.4593,-3.4502,-3.4397,-3.4397,-3.4397,-3.4397,-3.4397,-3.4397,-3.4424,-3.4515,-3.4646,-3.4789,-3.5351,-3.6149,-3.6332,-3.6488,-3.722,-3.7599,-3.79,-3.79,-3.79,-3.79,-3.79,-3.79,-3.79,-3.79,-3.79,-3.79,-3.79,-3.79,-3.79,-3.79,-3.79,-3.79,-3.79,-3.79,-3.7795,-3.7808,-3.7717,-3.773,-3.7704,-3.771,-3.7586,-3.726,-3.7024,-3.6881,-3.6502,-3.5979,-3.6279,-3.6502,-3.6815,-3.7155,-3.7534,-3.7795,-3.79,-3.79,-3.79,-3.79,-3.79,-3.79,-3.79,-3.79,-3.79,-3.79,-3.3562,-3.3666,-3.4217,-3.4397,-3.4397,-3.4397,-3.4397,-3.4397,-3.4397,-3.4397,-3.4397,-3.4397,-3.4397,-3.4397,-3.4397,-3.4397,-3.4397,-3.4397,-3.4397,-3.4397,-3.4397,-3.4397,-3.4397,-3.4397,-3.4397,-3.4397,-3.4397,-3.4397,-3.4397,-3.4397,-3.4397,-3.4397,-3.4397,-3.4397,-3.441,-3.4554,-3.4776,-3.5116,-3.5338,-3.5691,-3.5757,-3.5704,-3.5717,-3.5913,-3.6109,-3.6109,-3.6083,-3.6083,-3.6083,-3.5913,-3.5547,-3.5025,-3.4685,-3.4541,-3.4476,-3.4463,-3.4397,-3.4397,-3.4397,-3.4397,-3.475,-3.5064,-3.5247,-3.5717,-3.6502,-3.6828,-3.6972,-3.7377,-3.7756,-3.79,-3.79,-3.79,-3.79,-3.79,-3.79,-3.79,-3.79,-3.79,-3.79,-3.79,-3.7887,-3.7887,-3.79,-3.79,-3.7887,-3.7854,-3.7795,-3.7703,-3.7559,-3.7449,-3.7417,-3.7371,-3.7326,-3.7117,-3.6914,-3.658,-3.6332,-3.5835,-3.5443,-3.5926,-3.6279,-3.6279,-3.6619,-3.739,-3.7625,-3.7691,-3.7835,-3.79,-3.79,-3.79,-3.79,-3.79,-3.79,-3.79,-3.79,-3.3156,-3.3639,-3.4175,-3.4397,-3.4397,-3.4397,-3.4397,-3.4397,-3.4397,-3.4397,-3.4397,-3.4397,-3.4397,-3.4397,-3.4397,-3.4397,-3.4397,-3.4397,-3.4397,-3.4397,-3.4397,-3.4397,-3.4397,-3.4397,-3.4397,-3.4397,-3.4397,-3.4397,-3.4397,-3.4397,-3.4397,-3.4397,-3.4397,-3.4437,-3.4502,-3.475,-3.5182,-3.5521,-3.5887,-3.6227,-3.6502,-3.6384,-3.6057,-3.6083,-3.6109,-3.6109,-3.6096,-3.6109,-3.6096,-3.6057,-3.5979,-3.5417,-3.509,-3.4855,-3.4659,-3.4463,-3.4397,-3.4476,-3.4489,-3.4437,-3.4763,-3.5443,-3.5639,-3.59,-3.6449,-3.6658,-3.6998,-3.7612,-3.79,-3.79,-3.79,-3.79,-3.79,-3.79,-3.79,-3.79,-3.79,-3.79,-3.79,-3.7861,-3.7789,-3.7815,-3.7795,-3.7782,-3.773,-3.7684,-3.7507,-3.7402,-3.7193,-3.711,-3.7007,-3.6897,-3.6786,-3.6804,-3.6658,-3.5979,-3.56,-3.5103,-3.4881,-3.5273,-3.5469,-3.5404,-3.5874,-3.6802,-3.7246,-3.7364,-3.7534,-3.7782,-3.79,-3.79,-3.79,-3.79,-3.79,-3.79,-3.79]}]]